<?xml version="1.0" encoding="UTF-8" standalone="no" ?>
<gpx xmlns="http://www.topografix.com/GPX/1/1" xmlns:xsi="http://www.w3.org/2001/XMLSchema-instance" xsi:schemaLocation="http://www.topografix.com/GPX/1/1 http://www.topografix.com/GPX/1/1/gpx.xsd" version="1.1" creator="VisuGPX - https://www.visugpx.com">
  <metadata>
    <name>Cami de Ronda Roses</name>
    <desc><![CDATA[Canelles Grandes - Cala Monjoi - Canelles Grandes]]></desc>
  </metadata>
  <trk>
    <name><![CDATA[Cami de Ronda]]></name>
    <cmt><![CDATA[Avec Julien Canet]]></cmt>
    <trkseg>
      <trkpt lat="42.23788" lon="3.21047">
        <ele>34.400001525879</ele>
        <time>2015-05-07T08:27:58Z</time>
      </trkpt>
      <trkpt lat="42.23788" lon="3.21048">
        <ele>34.400001525879</ele>
        <time>2015-05-07T08:27:59Z</time>
      </trkpt>
      <trkpt lat="42.23783" lon="3.21058">
        <ele>34.799999237061</ele>
        <time>2015-05-07T08:28:04Z</time>
      </trkpt>
      <trkpt lat="42.23779" lon="3.21067">
        <ele>34.599998474121</ele>
        <time>2015-05-07T08:28:07Z</time>
      </trkpt>
      <trkpt lat="42.23777" lon="3.21072">
        <ele>34.400001525879</ele>
        <time>2015-05-07T08:28:09Z</time>
      </trkpt>
      <trkpt lat="42.23774" lon="3.21076">
        <ele>34.400001525879</ele>
        <time>2015-05-07T08:28:11Z</time>
      </trkpt>
      <trkpt lat="42.23772" lon="3.21078">
        <ele>34.400001525879</ele>
        <time>2015-05-07T08:28:13Z</time>
      </trkpt>
      <trkpt lat="42.2377" lon="3.21079">
        <ele>34.400001525879</ele>
        <time>2015-05-07T08:28:14Z</time>
      </trkpt>
      <trkpt lat="42.23767" lon="3.21082">
        <ele>34</ele>
        <time>2015-05-07T08:28:17Z</time>
      </trkpt>
      <trkpt lat="42.23767" lon="3.21085">
        <ele>33.599998474121</ele>
        <time>2015-05-07T08:28:18Z</time>
      </trkpt>
      <trkpt lat="42.23766" lon="3.21087">
        <ele>33</ele>
        <time>2015-05-07T08:28:19Z</time>
      </trkpt>
      <trkpt lat="42.23763" lon="3.21089">
        <ele>31.60000038147</ele>
        <time>2015-05-07T08:28:21Z</time>
      </trkpt>
      <trkpt lat="42.23762" lon="3.21093">
        <ele>30.799999237061</ele>
        <time>2015-05-07T08:28:23Z</time>
      </trkpt>
      <trkpt lat="42.23761" lon="3.21094">
        <ele>30.39999961853</ele>
        <time>2015-05-07T08:28:24Z</time>
      </trkpt>
      <trkpt lat="42.23756" lon="3.21097">
        <ele>29.200000762939</ele>
        <time>2015-05-07T08:28:27Z</time>
      </trkpt>
      <trkpt lat="42.23755" lon="3.21098">
        <ele>29</ele>
        <time>2015-05-07T08:28:28Z</time>
      </trkpt>
      <trkpt lat="42.23755" lon="3.21102">
        <ele>28.200000762939</ele>
        <time>2015-05-07T08:28:30Z</time>
      </trkpt>
      <trkpt lat="42.23756" lon="3.21106">
        <ele>27.799999237061</ele>
        <time>2015-05-07T08:28:32Z</time>
      </trkpt>
      <trkpt lat="42.23758" lon="3.2111">
        <ele>27</ele>
        <time>2015-05-07T08:28:34Z</time>
      </trkpt>
      <trkpt lat="42.23756" lon="3.21114">
        <ele>26.799999237061</ele>
        <time>2015-05-07T08:28:36Z</time>
      </trkpt>
      <trkpt lat="42.23757" lon="3.21119">
        <ele>26</ele>
        <time>2015-05-07T08:28:38Z</time>
      </trkpt>
      <trkpt lat="42.23758" lon="3.2112">
        <ele>25.799999237061</ele>
        <time>2015-05-07T08:28:39Z</time>
      </trkpt>
      <trkpt lat="42.2376" lon="3.21122">
        <ele>25.60000038147</ele>
        <time>2015-05-07T08:28:40Z</time>
      </trkpt>
      <trkpt lat="42.23762" lon="3.21127">
        <ele>24.60000038147</ele>
        <time>2015-05-07T08:28:42Z</time>
      </trkpt>
      <trkpt lat="42.23763" lon="3.21131">
        <ele>23.60000038147</ele>
        <time>2015-05-07T08:28:44Z</time>
      </trkpt>
      <trkpt lat="42.23763" lon="3.21133">
        <ele>23.200000762939</ele>
        <time>2015-05-07T08:28:45Z</time>
      </trkpt>
      <trkpt lat="42.23764" lon="3.21139">
        <ele>22</ele>
        <time>2015-05-07T08:28:48Z</time>
      </trkpt>
      <trkpt lat="42.23765" lon="3.21142">
        <ele>21.60000038147</ele>
        <time>2015-05-07T08:28:51Z</time>
      </trkpt>
      <trkpt lat="42.23766" lon="3.2115">
        <ele>22.799999237061</ele>
        <time>2015-05-07T08:28:55Z</time>
      </trkpt>
      <trkpt lat="42.23766" lon="3.21151">
        <ele>23.200000762939</ele>
        <time>2015-05-07T08:28:56Z</time>
      </trkpt>
      <trkpt lat="42.23767" lon="3.21154">
        <ele>23.60000038147</ele>
        <time>2015-05-07T08:28:58Z</time>
      </trkpt>
      <trkpt lat="42.2377" lon="3.21158">
        <ele>24.200000762939</ele>
        <time>2015-05-07T08:29:00Z</time>
      </trkpt>
      <trkpt lat="42.2377" lon="3.21161">
        <ele>24.200000762939</ele>
        <time>2015-05-07T08:29:01Z</time>
      </trkpt>
      <trkpt lat="42.23771" lon="3.21169">
        <ele>24.799999237061</ele>
        <time>2015-05-07T08:29:05Z</time>
      </trkpt>
      <trkpt lat="42.2377" lon="3.2117">
        <ele>25</ele>
        <time>2015-05-07T08:29:07Z</time>
      </trkpt>
      <trkpt lat="42.23768" lon="3.21174">
        <ele>25.39999961853</ele>
        <time>2015-05-07T08:29:09Z</time>
      </trkpt>
      <trkpt lat="42.23766" lon="3.21183">
        <ele>26.60000038147</ele>
        <time>2015-05-07T08:29:13Z</time>
      </trkpt>
      <trkpt lat="42.23764" lon="3.21189">
        <ele>27.200000762939</ele>
        <time>2015-05-07T08:29:16Z</time>
      </trkpt>
      <trkpt lat="42.23763" lon="3.21193">
        <ele>27.39999961853</ele>
        <time>2015-05-07T08:29:18Z</time>
      </trkpt>
      <trkpt lat="42.23762" lon="3.21197">
        <ele>28</ele>
        <time>2015-05-07T08:29:20Z</time>
      </trkpt>
      <trkpt lat="42.23761" lon="3.21203">
        <ele>28.799999237061</ele>
        <time>2015-05-07T08:29:23Z</time>
      </trkpt>
      <trkpt lat="42.2376" lon="3.21206">
        <ele>29.200000762939</ele>
        <time>2015-05-07T08:29:24Z</time>
      </trkpt>
      <trkpt lat="42.23756" lon="3.21209">
        <ele>30.39999961853</ele>
        <time>2015-05-07T08:29:27Z</time>
      </trkpt>
      <trkpt lat="42.23748" lon="3.21217">
        <ele>29.60000038147</ele>
        <time>2015-05-07T08:29:32Z</time>
      </trkpt>
      <trkpt lat="42.23747" lon="3.21219">
        <ele>29.200000762939</ele>
        <time>2015-05-07T08:29:33Z</time>
      </trkpt>
      <trkpt lat="42.23743" lon="3.21226">
        <ele>27.799999237061</ele>
        <time>2015-05-07T08:29:36Z</time>
      </trkpt>
      <trkpt lat="42.23742" lon="3.21228">
        <ele>27.60000038147</ele>
        <time>2015-05-07T08:29:37Z</time>
      </trkpt>
      <trkpt lat="42.23737" lon="3.21236">
        <ele>27</ele>
        <time>2015-05-07T08:29:41Z</time>
      </trkpt>
      <trkpt lat="42.23736" lon="3.21241">
        <ele>27</ele>
        <time>2015-05-07T08:29:43Z</time>
      </trkpt>
      <trkpt lat="42.2373" lon="3.21254">
        <ele>28.60000038147</ele>
        <time>2015-05-07T08:29:49Z</time>
      </trkpt>
      <trkpt lat="42.23728" lon="3.21256">
        <ele>29.200000762939</ele>
        <time>2015-05-07T08:29:50Z</time>
      </trkpt>
      <trkpt lat="42.2372" lon="3.21264">
        <ele>29.799999237061</ele>
        <time>2015-05-07T08:29:55Z</time>
      </trkpt>
      <trkpt lat="42.23713" lon="3.21269">
        <ele>28.60000038147</ele>
        <time>2015-05-07T08:30:00Z</time>
      </trkpt>
      <trkpt lat="42.23711" lon="3.21269">
        <ele>28.200000762939</ele>
        <time>2015-05-07T08:30:01Z</time>
      </trkpt>
      <trkpt lat="42.23708" lon="3.2127">
        <ele>28</ele>
        <time>2015-05-07T08:30:02Z</time>
      </trkpt>
      <trkpt lat="42.23705" lon="3.21272">
        <ele>27.39999961853</ele>
        <time>2015-05-07T08:30:04Z</time>
      </trkpt>
      <trkpt lat="42.23703" lon="3.21273">
        <ele>27</ele>
        <time>2015-05-07T08:30:05Z</time>
      </trkpt>
      <trkpt lat="42.237" lon="3.21275">
        <ele>26.39999961853</ele>
        <time>2015-05-07T08:30:07Z</time>
      </trkpt>
      <trkpt lat="42.23695" lon="3.21278">
        <ele>25.799999237061</ele>
        <time>2015-05-07T08:30:09Z</time>
      </trkpt>
      <trkpt lat="42.2369" lon="3.21282">
        <ele>24.60000038147</ele>
        <time>2015-05-07T08:30:12Z</time>
      </trkpt>
      <trkpt lat="42.23685" lon="3.21286">
        <ele>23.60000038147</ele>
        <time>2015-05-07T08:30:15Z</time>
      </trkpt>
      <trkpt lat="42.23679" lon="3.21293">
        <ele>23.200000762939</ele>
        <time>2015-05-07T08:30:19Z</time>
      </trkpt>
      <trkpt lat="42.23677" lon="3.21295">
        <ele>23.200000762939</ele>
        <time>2015-05-07T08:30:20Z</time>
      </trkpt>
      <trkpt lat="42.23668" lon="3.21302">
        <ele>23.200000762939</ele>
        <time>2015-05-07T08:30:25Z</time>
      </trkpt>
      <trkpt lat="42.23667" lon="3.21302">
        <ele>22.60000038147</ele>
        <time>2015-05-07T08:30:29Z</time>
      </trkpt>
      <trkpt lat="42.23666" lon="3.21303">
        <ele>22.39999961853</ele>
        <time>2015-05-07T08:30:30Z</time>
      </trkpt>
      <trkpt lat="42.23664" lon="3.21303">
        <ele>22</ele>
        <time>2015-05-07T08:30:33Z</time>
      </trkpt>
      <trkpt lat="42.23662" lon="3.21305">
        <ele>22</ele>
        <time>2015-05-07T08:30:35Z</time>
      </trkpt>
      <trkpt lat="42.23656" lon="3.2131">
        <ele>22.39999961853</ele>
        <time>2015-05-07T08:30:39Z</time>
      </trkpt>
      <trkpt lat="42.23653" lon="3.21312">
        <ele>22.200000762939</ele>
        <time>2015-05-07T08:30:40Z</time>
      </trkpt>
      <trkpt lat="42.2365" lon="3.21314">
        <ele>22</ele>
        <time>2015-05-07T08:30:42Z</time>
      </trkpt>
      <trkpt lat="42.23644" lon="3.21319">
        <ele>21.39999961853</ele>
        <time>2015-05-07T08:30:45Z</time>
      </trkpt>
      <trkpt lat="42.23637" lon="3.21324">
        <ele>20.39999961853</ele>
        <time>2015-05-07T08:30:48Z</time>
      </trkpt>
      <trkpt lat="42.23631" lon="3.2133">
        <ele>19.39999961853</ele>
        <time>2015-05-07T08:30:51Z</time>
      </trkpt>
      <trkpt lat="42.23629" lon="3.21332">
        <ele>19.200000762939</ele>
        <time>2015-05-07T08:30:52Z</time>
      </trkpt>
      <trkpt lat="42.23629" lon="3.21334">
        <ele>19</ele>
        <time>2015-05-07T08:30:53Z</time>
      </trkpt>
      <trkpt lat="42.23629" lon="3.2134">
        <ele>19</ele>
        <time>2015-05-07T08:30:55Z</time>
      </trkpt>
      <trkpt lat="42.23624" lon="3.21348">
        <ele>20</ele>
        <time>2015-05-07T08:30:59Z</time>
      </trkpt>
      <trkpt lat="42.23623" lon="3.2135">
        <ele>20.200000762939</ele>
        <time>2015-05-07T08:31:00Z</time>
      </trkpt>
      <trkpt lat="42.23622" lon="3.21352">
        <ele>20.200000762939</ele>
        <time>2015-05-07T08:31:01Z</time>
      </trkpt>
      <trkpt lat="42.23616" lon="3.21361">
        <ele>19.799999237061</ele>
        <time>2015-05-07T08:31:05Z</time>
      </trkpt>
      <trkpt lat="42.23614" lon="3.21364">
        <ele>19.39999961853</ele>
        <time>2015-05-07T08:31:06Z</time>
      </trkpt>
      <trkpt lat="42.23612" lon="3.21366">
        <ele>19</ele>
        <time>2015-05-07T08:31:07Z</time>
      </trkpt>
      <trkpt lat="42.23606" lon="3.21374">
        <ele>18</ele>
        <time>2015-05-07T08:31:11Z</time>
      </trkpt>
      <trkpt lat="42.23602" lon="3.21384">
        <ele>16.799999237061</ele>
        <time>2015-05-07T08:31:15Z</time>
      </trkpt>
      <trkpt lat="42.23599" lon="3.21389">
        <ele>15.800000190735</ele>
        <time>2015-05-07T08:31:17Z</time>
      </trkpt>
      <trkpt lat="42.23597" lon="3.2139">
        <ele>15.199999809265</ele>
        <time>2015-05-07T08:31:18Z</time>
      </trkpt>
      <trkpt lat="42.23595" lon="3.21392">
        <ele>14.800000190735</ele>
        <time>2015-05-07T08:31:19Z</time>
      </trkpt>
      <trkpt lat="42.23595" lon="3.21394">
        <ele>14.199999809265</ele>
        <time>2015-05-07T08:31:20Z</time>
      </trkpt>
      <trkpt lat="42.23589" lon="3.21399">
        <ele>14.39999961853</ele>
        <time>2015-05-07T08:31:24Z</time>
      </trkpt>
      <trkpt lat="42.23585" lon="3.214">
        <ele>15.39999961853</ele>
        <time>2015-05-07T08:31:26Z</time>
      </trkpt>
      <trkpt lat="42.23583" lon="3.21401">
        <ele>16</ele>
        <time>2015-05-07T08:31:27Z</time>
      </trkpt>
      <trkpt lat="42.2358" lon="3.21403">
        <ele>16.39999961853</ele>
        <time>2015-05-07T08:31:29Z</time>
      </trkpt>
      <trkpt lat="42.23576" lon="3.21409">
        <ele>17</ele>
        <time>2015-05-07T08:31:32Z</time>
      </trkpt>
      <trkpt lat="42.23572" lon="3.21416">
        <ele>17.200000762939</ele>
        <time>2015-05-07T08:31:35Z</time>
      </trkpt>
      <trkpt lat="42.23566" lon="3.21425">
        <ele>18.200000762939</ele>
        <time>2015-05-07T08:31:39Z</time>
      </trkpt>
      <trkpt lat="42.23563" lon="3.21428">
        <ele>18.799999237061</ele>
        <time>2015-05-07T08:31:41Z</time>
      </trkpt>
      <trkpt lat="42.23554" lon="3.21438">
        <ele>18.39999961853</ele>
        <time>2015-05-07T08:31:46Z</time>
      </trkpt>
      <trkpt lat="42.23547" lon="3.21452">
        <ele>17.200000762939</ele>
        <time>2015-05-07T08:31:51Z</time>
      </trkpt>
      <trkpt lat="42.23537" lon="3.21468">
        <ele>16.39999961853</ele>
        <time>2015-05-07T08:31:57Z</time>
      </trkpt>
      <trkpt lat="42.23531" lon="3.21477">
        <ele>16</ele>
        <time>2015-05-07T08:32:01Z</time>
      </trkpt>
      <trkpt lat="42.23529" lon="3.21477">
        <ele>16</ele>
        <time>2015-05-07T08:32:02Z</time>
      </trkpt>
      <trkpt lat="42.23517" lon="3.21479">
        <ele>15.39999961853</ele>
        <time>2015-05-07T08:32:07Z</time>
      </trkpt>
      <trkpt lat="42.23511" lon="3.21488">
        <ele>15.199999809265</ele>
        <time>2015-05-07T08:32:11Z</time>
      </trkpt>
      <trkpt lat="42.23505" lon="3.21494">
        <ele>15.60000038147</ele>
        <time>2015-05-07T08:32:15Z</time>
      </trkpt>
      <trkpt lat="42.23503" lon="3.21496">
        <ele>15.800000190735</ele>
        <time>2015-05-07T08:32:16Z</time>
      </trkpt>
      <trkpt lat="42.23503" lon="3.21499">
        <ele>15.800000190735</ele>
        <time>2015-05-07T08:32:17Z</time>
      </trkpt>
      <trkpt lat="42.23502" lon="3.21508">
        <ele>15.800000190735</ele>
        <time>2015-05-07T08:32:20Z</time>
      </trkpt>
      <trkpt lat="42.235" lon="3.21513">
        <ele>15.800000190735</ele>
        <time>2015-05-07T08:32:22Z</time>
      </trkpt>
      <trkpt lat="42.23499" lon="3.21526">
        <ele>16.39999961853</ele>
        <time>2015-05-07T08:32:26Z</time>
      </trkpt>
      <trkpt lat="42.23494" lon="3.21541">
        <ele>17.200000762939</ele>
        <time>2015-05-07T08:32:31Z</time>
      </trkpt>
      <trkpt lat="42.23494" lon="3.21545">
        <ele>17</ele>
        <time>2015-05-07T08:32:32Z</time>
      </trkpt>
      <trkpt lat="42.23496" lon="3.21565">
        <ele>16.799999237061</ele>
        <time>2015-05-07T08:32:38Z</time>
      </trkpt>
      <trkpt lat="42.23502" lon="3.21583">
        <ele>16</ele>
        <time>2015-05-07T08:32:44Z</time>
      </trkpt>
      <trkpt lat="42.23503" lon="3.21585">
        <ele>15.60000038147</ele>
        <time>2015-05-07T08:32:45Z</time>
      </trkpt>
      <trkpt lat="42.23506" lon="3.21593">
        <ele>15.60000038147</ele>
        <time>2015-05-07T08:32:48Z</time>
      </trkpt>
      <trkpt lat="42.23508" lon="3.21597">
        <ele>15.800000190735</ele>
        <time>2015-05-07T08:32:50Z</time>
      </trkpt>
      <trkpt lat="42.23514" lon="3.21607">
        <ele>17</ele>
        <time>2015-05-07T08:32:55Z</time>
      </trkpt>
      <trkpt lat="42.23521" lon="3.2162">
        <ele>17.60000038147</ele>
        <time>2015-05-07T08:33:01Z</time>
      </trkpt>
      <trkpt lat="42.23527" lon="3.2163">
        <ele>17.60000038147</ele>
        <time>2015-05-07T08:33:05Z</time>
      </trkpt>
      <trkpt lat="42.23528" lon="3.21636">
        <ele>17.39999961853</ele>
        <time>2015-05-07T08:33:07Z</time>
      </trkpt>
      <trkpt lat="42.23526" lon="3.21638">
        <ele>17.200000762939</ele>
        <time>2015-05-07T08:33:08Z</time>
      </trkpt>
      <trkpt lat="42.23516" lon="3.2165">
        <ele>16.60000038147</ele>
        <time>2015-05-07T08:33:13Z</time>
      </trkpt>
      <trkpt lat="42.23512" lon="3.21665">
        <ele>16.60000038147</ele>
        <time>2015-05-07T08:33:18Z</time>
      </trkpt>
      <trkpt lat="42.23505" lon="3.21677">
        <ele>17</ele>
        <time>2015-05-07T08:33:23Z</time>
      </trkpt>
      <trkpt lat="42.23499" lon="3.21674">
        <ele>17</ele>
        <time>2015-05-07T08:33:25Z</time>
      </trkpt>
      <trkpt lat="42.23489" lon="3.2167">
        <ele>17</ele>
        <time>2015-05-07T08:33:29Z</time>
      </trkpt>
      <trkpt lat="42.23478" lon="3.21671">
        <ele>16.39999961853</ele>
        <time>2015-05-07T08:33:34Z</time>
      </trkpt>
      <trkpt lat="42.23465" lon="3.21674">
        <ele>17.799999237061</ele>
        <time>2015-05-07T08:33:40Z</time>
      </trkpt>
      <trkpt lat="42.23464" lon="3.21675">
        <ele>18.200000762939</ele>
        <time>2015-05-07T08:33:41Z</time>
      </trkpt>
      <trkpt lat="42.2346" lon="3.21675">
        <ele>18.60000038147</ele>
        <time>2015-05-07T08:33:43Z</time>
      </trkpt>
      <trkpt lat="42.23456" lon="3.21676">
        <ele>18.60000038147</ele>
        <time>2015-05-07T08:33:45Z</time>
      </trkpt>
      <trkpt lat="42.23446" lon="3.21675">
        <ele>18.200000762939</ele>
        <time>2015-05-07T08:33:49Z</time>
      </trkpt>
      <trkpt lat="42.23434" lon="3.21678">
        <ele>17.60000038147</ele>
        <time>2015-05-07T08:33:55Z</time>
      </trkpt>
      <trkpt lat="42.23426" lon="3.21683">
        <ele>18.39999961853</ele>
        <time>2015-05-07T08:33:59Z</time>
      </trkpt>
      <trkpt lat="42.23424" lon="3.21683">
        <ele>18.39999961853</ele>
        <time>2015-05-07T08:34:00Z</time>
      </trkpt>
      <trkpt lat="42.23415" lon="3.21682">
        <ele>18</ele>
        <time>2015-05-07T08:34:04Z</time>
      </trkpt>
      <trkpt lat="42.2341" lon="3.21683">
        <ele>17.60000038147</ele>
        <time>2015-05-07T08:34:06Z</time>
      </trkpt>
      <trkpt lat="42.23406" lon="3.21685">
        <ele>17.39999961853</ele>
        <time>2015-05-07T08:34:08Z</time>
      </trkpt>
      <trkpt lat="42.23402" lon="3.2169">
        <ele>17</ele>
        <time>2015-05-07T08:34:11Z</time>
      </trkpt>
      <trkpt lat="42.23398" lon="3.21693">
        <ele>16.799999237061</ele>
        <time>2015-05-07T08:34:13Z</time>
      </trkpt>
      <trkpt lat="42.23394" lon="3.217">
        <ele>16.60000038147</ele>
        <time>2015-05-07T08:34:16Z</time>
      </trkpt>
      <trkpt lat="42.23392" lon="3.21705">
        <ele>16.60000038147</ele>
        <time>2015-05-07T08:34:18Z</time>
      </trkpt>
      <trkpt lat="42.23391" lon="3.21711">
        <ele>16.799999237061</ele>
        <time>2015-05-07T08:34:20Z</time>
      </trkpt>
      <trkpt lat="42.23391" lon="3.21716">
        <ele>17</ele>
        <time>2015-05-07T08:34:22Z</time>
      </trkpt>
      <trkpt lat="42.23386" lon="3.2173">
        <ele>17.39999961853</ele>
        <time>2015-05-07T08:34:27Z</time>
      </trkpt>
      <trkpt lat="42.23386" lon="3.21733">
        <ele>17.39999961853</ele>
        <time>2015-05-07T08:34:28Z</time>
      </trkpt>
      <trkpt lat="42.23382" lon="3.21748">
        <ele>16.799999237061</ele>
        <time>2015-05-07T08:34:33Z</time>
      </trkpt>
      <trkpt lat="42.23383" lon="3.21754">
        <ele>16</ele>
        <time>2015-05-07T08:34:35Z</time>
      </trkpt>
      <trkpt lat="42.23381" lon="3.21757">
        <ele>15.800000190735</ele>
        <time>2015-05-07T08:34:36Z</time>
      </trkpt>
      <trkpt lat="42.2338" lon="3.2176">
        <ele>15.39999961853</ele>
        <time>2015-05-07T08:34:37Z</time>
      </trkpt>
      <trkpt lat="42.23379" lon="3.21762">
        <ele>15</ele>
        <time>2015-05-07T08:34:38Z</time>
      </trkpt>
      <trkpt lat="42.23375" lon="3.21768">
        <ele>14</ele>
        <time>2015-05-07T08:34:41Z</time>
      </trkpt>
      <trkpt lat="42.23372" lon="3.21769">
        <ele>13.800000190735</ele>
        <time>2015-05-07T08:34:42Z</time>
      </trkpt>
      <trkpt lat="42.23368" lon="3.21771">
        <ele>13.800000190735</ele>
        <time>2015-05-07T08:34:44Z</time>
      </trkpt>
      <trkpt lat="42.23364" lon="3.21771">
        <ele>14.199999809265</ele>
        <time>2015-05-07T08:34:46Z</time>
      </trkpt>
      <trkpt lat="42.2336" lon="3.21771">
        <ele>14.60000038147</ele>
        <time>2015-05-07T08:34:48Z</time>
      </trkpt>
      <trkpt lat="42.23357" lon="3.21771">
        <ele>14.800000190735</ele>
        <time>2015-05-07T08:34:49Z</time>
      </trkpt>
      <trkpt lat="42.23346" lon="3.21772">
        <ele>15.199999809265</ele>
        <time>2015-05-07T08:34:54Z</time>
      </trkpt>
      <trkpt lat="42.23336" lon="3.21774">
        <ele>15.800000190735</ele>
        <time>2015-05-07T08:34:59Z</time>
      </trkpt>
      <trkpt lat="42.23328" lon="3.21774">
        <ele>16.799999237061</ele>
        <time>2015-05-07T08:35:03Z</time>
      </trkpt>
      <trkpt lat="42.23324" lon="3.21776">
        <ele>17.39999961853</ele>
        <time>2015-05-07T08:35:05Z</time>
      </trkpt>
      <trkpt lat="42.23318" lon="3.21784">
        <ele>18.200000762939</ele>
        <time>2015-05-07T08:35:09Z</time>
      </trkpt>
      <trkpt lat="42.23317" lon="3.21786">
        <ele>18.200000762939</ele>
        <time>2015-05-07T08:35:10Z</time>
      </trkpt>
      <trkpt lat="42.23307" lon="3.21792">
        <ele>19</ele>
        <time>2015-05-07T08:35:15Z</time>
      </trkpt>
      <trkpt lat="42.23307" lon="3.21792">
        <ele>19</ele>
        <time>2015-05-07T08:35:15Z</time>
      </trkpt>
      <trkpt lat="42.23305" lon="3.21793">
        <ele>19.200000762939</ele>
        <time>2015-05-07T08:35:16Z</time>
      </trkpt>
      <trkpt lat="42.23299" lon="3.21796">
        <ele>19.39999961853</ele>
        <time>2015-05-07T08:35:19Z</time>
      </trkpt>
      <trkpt lat="42.23294" lon="3.21799">
        <ele>19.39999961853</ele>
        <time>2015-05-07T08:35:21Z</time>
      </trkpt>
      <trkpt lat="42.23282" lon="3.21812">
        <ele>19.799999237061</ele>
        <time>2015-05-07T08:35:28Z</time>
      </trkpt>
      <trkpt lat="42.2328" lon="3.21823">
        <ele>20.39999961853</ele>
        <time>2015-05-07T08:35:33Z</time>
      </trkpt>
      <trkpt lat="42.23287" lon="3.2183">
        <ele>21.200000762939</ele>
        <time>2015-05-07T08:35:38Z</time>
      </trkpt>
      <trkpt lat="42.23288" lon="3.21831">
        <ele>21.60000038147</ele>
        <time>2015-05-07T08:35:39Z</time>
      </trkpt>
      <trkpt lat="42.2329" lon="3.21833">
        <ele>22.799999237061</ele>
        <time>2015-05-07T08:35:42Z</time>
      </trkpt>
      <trkpt lat="42.23291" lon="3.21834">
        <ele>23</ele>
        <time>2015-05-07T08:35:43Z</time>
      </trkpt>
      <trkpt lat="42.23293" lon="3.21839">
        <ele>23.799999237061</ele>
        <time>2015-05-07T08:35:47Z</time>
      </trkpt>
      <trkpt lat="42.23293" lon="3.21838">
        <ele>24</ele>
        <time>2015-05-07T08:35:48Z</time>
      </trkpt>
      <trkpt lat="42.23293" lon="3.21839">
        <ele>24</ele>
        <time>2015-05-07T08:35:51Z</time>
      </trkpt>
      <trkpt lat="42.23295" lon="3.21834">
        <ele>24</ele>
        <time>2015-05-07T08:35:57Z</time>
      </trkpt>
      <trkpt lat="42.23304" lon="3.2183">
        <ele>24.39999961853</ele>
        <time>2015-05-07T08:36:02Z</time>
      </trkpt>
      <trkpt lat="42.23307" lon="3.21832">
        <ele>24.60000038147</ele>
        <time>2015-05-07T08:36:04Z</time>
      </trkpt>
      <trkpt lat="42.23307" lon="3.21836">
        <ele>25</ele>
        <time>2015-05-07T08:36:06Z</time>
      </trkpt>
      <trkpt lat="42.23307" lon="3.21838">
        <ele>25.39999961853</ele>
        <time>2015-05-07T08:36:07Z</time>
      </trkpt>
      <trkpt lat="42.23307" lon="3.2184">
        <ele>25.799999237061</ele>
        <time>2015-05-07T08:36:08Z</time>
      </trkpt>
      <trkpt lat="42.23307" lon="3.21843">
        <ele>26.200000762939</ele>
        <time>2015-05-07T08:36:09Z</time>
      </trkpt>
      <trkpt lat="42.23309" lon="3.21845">
        <ele>26.60000038147</ele>
        <time>2015-05-07T08:36:10Z</time>
      </trkpt>
      <trkpt lat="42.23312" lon="3.21845">
        <ele>27</ele>
        <time>2015-05-07T08:36:12Z</time>
      </trkpt>
      <trkpt lat="42.23317" lon="3.21846">
        <ele>27</ele>
        <time>2015-05-07T08:36:14Z</time>
      </trkpt>
      <trkpt lat="42.23325" lon="3.21849">
        <ele>26.799999237061</ele>
        <time>2015-05-07T08:36:18Z</time>
      </trkpt>
      <trkpt lat="42.23337" lon="3.21853">
        <ele>25.799999237061</ele>
        <time>2015-05-07T08:36:24Z</time>
      </trkpt>
      <trkpt lat="42.23342" lon="3.21857">
        <ele>25.200000762939</ele>
        <time>2015-05-07T08:36:27Z</time>
      </trkpt>
      <trkpt lat="42.23344" lon="3.21862">
        <ele>25.200000762939</ele>
        <time>2015-05-07T08:36:29Z</time>
      </trkpt>
      <trkpt lat="42.2335" lon="3.2188">
        <ele>25.200000762939</ele>
        <time>2015-05-07T08:36:35Z</time>
      </trkpt>
      <trkpt lat="42.23351" lon="3.2189">
        <ele>25</ele>
        <time>2015-05-07T08:36:38Z</time>
      </trkpt>
      <trkpt lat="42.23355" lon="3.21894">
        <ele>24.60000038147</ele>
        <time>2015-05-07T08:36:40Z</time>
      </trkpt>
      <trkpt lat="42.2336" lon="3.21899">
        <ele>24.39999961853</ele>
        <time>2015-05-07T08:36:43Z</time>
      </trkpt>
      <trkpt lat="42.2336" lon="3.21905">
        <ele>24.39999961853</ele>
        <time>2015-05-07T08:36:45Z</time>
      </trkpt>
      <trkpt lat="42.23364" lon="3.21921">
        <ele>24.799999237061</ele>
        <time>2015-05-07T08:36:51Z</time>
      </trkpt>
      <trkpt lat="42.23366" lon="3.21933">
        <ele>26.39999961853</ele>
        <time>2015-05-07T08:36:56Z</time>
      </trkpt>
      <trkpt lat="42.23367" lon="3.21934">
        <ele>26.60000038147</ele>
        <time>2015-05-07T08:36:57Z</time>
      </trkpt>
      <trkpt lat="42.23369" lon="3.21936">
        <ele>27.200000762939</ele>
        <time>2015-05-07T08:36:59Z</time>
      </trkpt>
      <trkpt lat="42.23372" lon="3.21935">
        <ele>27.60000038147</ele>
        <time>2015-05-07T08:37:01Z</time>
      </trkpt>
      <trkpt lat="42.23373" lon="3.21935">
        <ele>27.799999237061</ele>
        <time>2015-05-07T08:37:02Z</time>
      </trkpt>
      <trkpt lat="42.23378" lon="3.21936">
        <ele>28.799999237061</ele>
        <time>2015-05-07T08:37:05Z</time>
      </trkpt>
      <trkpt lat="42.23379" lon="3.21938">
        <ele>29.200000762939</ele>
        <time>2015-05-07T08:37:06Z</time>
      </trkpt>
      <trkpt lat="42.23381" lon="3.21942">
        <ele>30</ele>
        <time>2015-05-07T08:37:08Z</time>
      </trkpt>
      <trkpt lat="42.23384" lon="3.21943">
        <ele>30.60000038147</ele>
        <time>2015-05-07T08:37:10Z</time>
      </trkpt>
      <trkpt lat="42.23385" lon="3.21943">
        <ele>31.200000762939</ele>
        <time>2015-05-07T08:37:11Z</time>
      </trkpt>
      <trkpt lat="42.23387" lon="3.21944">
        <ele>32.400001525879</ele>
        <time>2015-05-07T08:37:13Z</time>
      </trkpt>
      <trkpt lat="42.23389" lon="3.21944">
        <ele>33.599998474121</ele>
        <time>2015-05-07T08:37:15Z</time>
      </trkpt>
      <trkpt lat="42.23391" lon="3.21943">
        <ele>34</ele>
        <time>2015-05-07T08:37:16Z</time>
      </trkpt>
      <trkpt lat="42.23393" lon="3.21944">
        <ele>34.599998474121</ele>
        <time>2015-05-07T08:37:18Z</time>
      </trkpt>
      <trkpt lat="42.23395" lon="3.21946">
        <ele>35.599998474121</ele>
        <time>2015-05-07T08:37:20Z</time>
      </trkpt>
      <trkpt lat="42.23396" lon="3.21946">
        <ele>36</ele>
        <time>2015-05-07T08:37:21Z</time>
      </trkpt>
      <trkpt lat="42.234" lon="3.21946">
        <ele>36.799999237061</ele>
        <time>2015-05-07T08:37:24Z</time>
      </trkpt>
      <trkpt lat="42.23401" lon="3.21947">
        <ele>37.200000762939</ele>
        <time>2015-05-07T08:37:25Z</time>
      </trkpt>
      <trkpt lat="42.23405" lon="3.21954">
        <ele>38.400001525879</ele>
        <time>2015-05-07T08:37:29Z</time>
      </trkpt>
      <trkpt lat="42.23406" lon="3.21956">
        <ele>38.599998474121</ele>
        <time>2015-05-07T08:37:30Z</time>
      </trkpt>
      <trkpt lat="42.23409" lon="3.21958">
        <ele>39.200000762939</ele>
        <time>2015-05-07T08:37:32Z</time>
      </trkpt>
      <trkpt lat="42.2341" lon="3.21957">
        <ele>39.599998474121</ele>
        <time>2015-05-07T08:37:33Z</time>
      </trkpt>
      <trkpt lat="42.23411" lon="3.21956">
        <ele>39.799999237061</ele>
        <time>2015-05-07T08:37:34Z</time>
      </trkpt>
      <trkpt lat="42.23415" lon="3.21958">
        <ele>40.599998474121</ele>
        <time>2015-05-07T08:37:36Z</time>
      </trkpt>
      <trkpt lat="42.23416" lon="3.21959">
        <ele>41</ele>
        <time>2015-05-07T08:37:37Z</time>
      </trkpt>
      <trkpt lat="42.23417" lon="3.2196">
        <ele>41.599998474121</ele>
        <time>2015-05-07T08:37:38Z</time>
      </trkpt>
      <trkpt lat="42.23418" lon="3.2196">
        <ele>42</ele>
        <time>2015-05-07T08:37:39Z</time>
      </trkpt>
      <trkpt lat="42.23419" lon="3.21961">
        <ele>42.400001525879</ele>
        <time>2015-05-07T08:37:40Z</time>
      </trkpt>
      <trkpt lat="42.2342" lon="3.21963">
        <ele>43.200000762939</ele>
        <time>2015-05-07T08:37:42Z</time>
      </trkpt>
      <trkpt lat="42.2342" lon="3.21966">
        <ele>43.599998474121</ele>
        <time>2015-05-07T08:37:44Z</time>
      </trkpt>
      <trkpt lat="42.2342" lon="3.21967">
        <ele>43.799999237061</ele>
        <time>2015-05-07T08:37:45Z</time>
      </trkpt>
      <trkpt lat="42.2342" lon="3.21969">
        <ele>44.200000762939</ele>
        <time>2015-05-07T08:37:48Z</time>
      </trkpt>
      <trkpt lat="42.23419" lon="3.21971">
        <ele>44.200000762939</ele>
        <time>2015-05-07T08:37:49Z</time>
      </trkpt>
      <trkpt lat="42.23417" lon="3.21973">
        <ele>44.400001525879</ele>
        <time>2015-05-07T08:37:54Z</time>
      </trkpt>
      <trkpt lat="42.23418" lon="3.21979">
        <ele>44.400001525879</ele>
        <time>2015-05-07T08:38:00Z</time>
      </trkpt>
      <trkpt lat="42.23421" lon="3.21985">
        <ele>44.400001525879</ele>
        <time>2015-05-07T08:38:05Z</time>
      </trkpt>
      <trkpt lat="42.23422" lon="3.21986">
        <ele>44.400001525879</ele>
        <time>2015-05-07T08:38:06Z</time>
      </trkpt>
      <trkpt lat="42.23423" lon="3.21986">
        <ele>44.400001525879</ele>
        <time>2015-05-07T08:38:09Z</time>
      </trkpt>
      <trkpt lat="42.23423" lon="3.21987">
        <ele>44.400001525879</ele>
        <time>2015-05-07T08:38:10Z</time>
      </trkpt>
      <trkpt lat="42.23423" lon="3.21986">
        <ele>44.200000762939</ele>
        <time>2015-05-07T08:38:13Z</time>
      </trkpt>
      <trkpt lat="42.23423" lon="3.21987">
        <ele>44</ele>
        <time>2015-05-07T08:38:15Z</time>
      </trkpt>
      <trkpt lat="42.23422" lon="3.21987">
        <ele>44</ele>
        <time>2015-05-07T08:38:16Z</time>
      </trkpt>
      <trkpt lat="42.2342" lon="3.21988">
        <ele>44</ele>
        <time>2015-05-07T08:38:19Z</time>
      </trkpt>
      <trkpt lat="42.2342" lon="3.21992">
        <ele>44.599998474121</ele>
        <time>2015-05-07T08:38:23Z</time>
      </trkpt>
      <trkpt lat="42.23419" lon="3.21996">
        <ele>44.599998474121</ele>
        <time>2015-05-07T08:38:26Z</time>
      </trkpt>
      <trkpt lat="42.23418" lon="3.21999">
        <ele>44.599998474121</ele>
        <time>2015-05-07T08:38:29Z</time>
      </trkpt>
      <trkpt lat="42.23418" lon="3.22">
        <ele>44.799999237061</ele>
        <time>2015-05-07T08:38:30Z</time>
      </trkpt>
      <trkpt lat="42.23418" lon="3.22004">
        <ele>44.599998474121</ele>
        <time>2015-05-07T08:38:33Z</time>
      </trkpt>
      <trkpt lat="42.23418" lon="3.22006">
        <ele>44.599998474121</ele>
        <time>2015-05-07T08:38:35Z</time>
      </trkpt>
      <trkpt lat="42.23417" lon="3.2201">
        <ele>44.599998474121</ele>
        <time>2015-05-07T08:38:38Z</time>
      </trkpt>
      <trkpt lat="42.23418" lon="3.22013">
        <ele>44.799999237061</ele>
        <time>2015-05-07T08:38:42Z</time>
      </trkpt>
      <trkpt lat="42.23418" lon="3.22015">
        <ele>45</ele>
        <time>2015-05-07T08:38:43Z</time>
      </trkpt>
      <trkpt lat="42.23419" lon="3.22021">
        <ele>45</ele>
        <time>2015-05-07T08:38:47Z</time>
      </trkpt>
      <trkpt lat="42.23419" lon="3.22023">
        <ele>44.599998474121</ele>
        <time>2015-05-07T08:38:49Z</time>
      </trkpt>
      <trkpt lat="42.2342" lon="3.22028">
        <ele>44.599998474121</ele>
        <time>2015-05-07T08:38:53Z</time>
      </trkpt>
      <trkpt lat="42.2342" lon="3.22031">
        <ele>44.599998474121</ele>
        <time>2015-05-07T08:38:55Z</time>
      </trkpt>
      <trkpt lat="42.2342" lon="3.22034">
        <ele>44.599998474121</ele>
        <time>2015-05-07T08:38:57Z</time>
      </trkpt>
      <trkpt lat="42.2342" lon="3.22036">
        <ele>44.400001525879</ele>
        <time>2015-05-07T08:38:59Z</time>
      </trkpt>
      <trkpt lat="42.2342" lon="3.22039">
        <ele>44.400001525879</ele>
        <time>2015-05-07T08:39:01Z</time>
      </trkpt>
      <trkpt lat="42.23424" lon="3.22054">
        <ele>45</ele>
        <time>2015-05-07T08:39:06Z</time>
      </trkpt>
      <trkpt lat="42.23431" lon="3.22065">
        <ele>44.799999237061</ele>
        <time>2015-05-07T08:39:12Z</time>
      </trkpt>
      <trkpt lat="42.23434" lon="3.22068">
        <ele>44.599998474121</ele>
        <time>2015-05-07T08:39:17Z</time>
      </trkpt>
      <trkpt lat="42.23434" lon="3.22068">
        <ele>44.599998474121</ele>
        <time>2015-05-07T08:39:25Z</time>
      </trkpt>
      <trkpt lat="42.23436" lon="3.22061">
        <ele>44.599998474121</ele>
        <time>2015-05-07T08:39:29Z</time>
      </trkpt>
      <trkpt lat="42.23439" lon="3.22056">
        <ele>45.200000762939</ele>
        <time>2015-05-07T08:39:33Z</time>
      </trkpt>
      <trkpt lat="42.2344" lon="3.22056">
        <ele>45.599998474121</ele>
        <time>2015-05-07T08:39:34Z</time>
      </trkpt>
      <trkpt lat="42.23442" lon="3.22056">
        <ele>46.400001525879</ele>
        <time>2015-05-07T08:39:37Z</time>
      </trkpt>
      <trkpt lat="42.23444" lon="3.22056">
        <ele>46</ele>
        <time>2015-05-07T08:39:39Z</time>
      </trkpt>
      <trkpt lat="42.23447" lon="3.2206">
        <ele>45</ele>
        <time>2015-05-07T08:39:43Z</time>
      </trkpt>
      <trkpt lat="42.23452" lon="3.22061">
        <ele>44.599998474121</ele>
        <time>2015-05-07T08:39:45Z</time>
      </trkpt>
      <trkpt lat="42.23454" lon="3.22061">
        <ele>44.200000762939</ele>
        <time>2015-05-07T08:39:46Z</time>
      </trkpt>
      <trkpt lat="42.23459" lon="3.22058">
        <ele>43.599998474121</ele>
        <time>2015-05-07T08:39:48Z</time>
      </trkpt>
      <trkpt lat="42.23463" lon="3.22051">
        <ele>43</ele>
        <time>2015-05-07T08:39:51Z</time>
      </trkpt>
      <trkpt lat="42.23464" lon="3.22049">
        <ele>43</ele>
        <time>2015-05-07T08:39:52Z</time>
      </trkpt>
      <trkpt lat="42.2347" lon="3.22039">
        <ele>44.400001525879</ele>
        <time>2015-05-07T08:39:56Z</time>
      </trkpt>
      <trkpt lat="42.23475" lon="3.22037">
        <ele>44.599998474121</ele>
        <time>2015-05-07T08:39:58Z</time>
      </trkpt>
      <trkpt lat="42.23483" lon="3.22034">
        <ele>44.400001525879</ele>
        <time>2015-05-07T08:40:02Z</time>
      </trkpt>
      <trkpt lat="42.23485" lon="3.22034">
        <ele>44.200000762939</ele>
        <time>2015-05-07T08:40:03Z</time>
      </trkpt>
      <trkpt lat="42.23487" lon="3.22031">
        <ele>43.599998474121</ele>
        <time>2015-05-07T08:40:05Z</time>
      </trkpt>
      <trkpt lat="42.23489" lon="3.2203">
        <ele>43.200000762939</ele>
        <time>2015-05-07T08:40:06Z</time>
      </trkpt>
      <trkpt lat="42.23495" lon="3.22029">
        <ele>42</ele>
        <time>2015-05-07T08:40:09Z</time>
      </trkpt>
      <trkpt lat="42.23497" lon="3.22026">
        <ele>41.799999237061</ele>
        <time>2015-05-07T08:40:10Z</time>
      </trkpt>
      <trkpt lat="42.23499" lon="3.22023">
        <ele>41.200000762939</ele>
        <time>2015-05-07T08:40:11Z</time>
      </trkpt>
      <trkpt lat="42.23501" lon="3.22022">
        <ele>40.799999237061</ele>
        <time>2015-05-07T08:40:12Z</time>
      </trkpt>
      <trkpt lat="42.23508" lon="3.22017">
        <ele>39.400001525879</ele>
        <time>2015-05-07T08:40:15Z</time>
      </trkpt>
      <trkpt lat="42.23515" lon="3.22009">
        <ele>39.200000762939</ele>
        <time>2015-05-07T08:40:19Z</time>
      </trkpt>
      <trkpt lat="42.23522" lon="3.21999">
        <ele>39.599998474121</ele>
        <time>2015-05-07T08:40:23Z</time>
      </trkpt>
      <trkpt lat="42.23528" lon="3.21994">
        <ele>40.599998474121</ele>
        <time>2015-05-07T08:40:26Z</time>
      </trkpt>
      <trkpt lat="42.23537" lon="3.21988">
        <ele>41.400001525879</ele>
        <time>2015-05-07T08:40:30Z</time>
      </trkpt>
      <trkpt lat="42.23543" lon="3.21985">
        <ele>41.799999237061</ele>
        <time>2015-05-07T08:40:33Z</time>
      </trkpt>
      <trkpt lat="42.23546" lon="3.21985">
        <ele>41.599998474121</ele>
        <time>2015-05-07T08:40:34Z</time>
      </trkpt>
      <trkpt lat="42.23557" lon="3.21979">
        <ele>42.200000762939</ele>
        <time>2015-05-07T08:40:39Z</time>
      </trkpt>
      <trkpt lat="42.23569" lon="3.21972">
        <ele>42.200000762939</ele>
        <time>2015-05-07T08:40:44Z</time>
      </trkpt>
      <trkpt lat="42.23577" lon="3.21971">
        <ele>43</ele>
        <time>2015-05-07T08:40:48Z</time>
      </trkpt>
      <trkpt lat="42.23581" lon="3.21972">
        <ele>43.599998474121</ele>
        <time>2015-05-07T08:40:50Z</time>
      </trkpt>
      <trkpt lat="42.23585" lon="3.21973">
        <ele>44</ele>
        <time>2015-05-07T08:40:52Z</time>
      </trkpt>
      <trkpt lat="42.23594" lon="3.21971">
        <ele>44</ele>
        <time>2015-05-07T08:40:56Z</time>
      </trkpt>
      <trkpt lat="42.23599" lon="3.21968">
        <ele>43.799999237061</ele>
        <time>2015-05-07T08:40:59Z</time>
      </trkpt>
      <trkpt lat="42.23603" lon="3.21966">
        <ele>43.599998474121</ele>
        <time>2015-05-07T08:41:01Z</time>
      </trkpt>
      <trkpt lat="42.2361" lon="3.2197">
        <ele>42.599998474121</ele>
        <time>2015-05-07T08:41:05Z</time>
      </trkpt>
      <trkpt lat="42.23613" lon="3.21969">
        <ele>41.599998474121</ele>
        <time>2015-05-07T08:41:07Z</time>
      </trkpt>
      <trkpt lat="42.23618" lon="3.21968">
        <ele>40.599998474121</ele>
        <time>2015-05-07T08:41:09Z</time>
      </trkpt>
      <trkpt lat="42.23621" lon="3.21968">
        <ele>40</ele>
        <time>2015-05-07T08:41:10Z</time>
      </trkpt>
      <trkpt lat="42.23629" lon="3.21967">
        <ele>39</ele>
        <time>2015-05-07T08:41:13Z</time>
      </trkpt>
      <trkpt lat="42.23637" lon="3.21962">
        <ele>38</ele>
        <time>2015-05-07T08:41:16Z</time>
      </trkpt>
      <trkpt lat="42.2364" lon="3.21959">
        <ele>38</ele>
        <time>2015-05-07T08:41:18Z</time>
      </trkpt>
      <trkpt lat="42.23643" lon="3.21958">
        <ele>37.799999237061</ele>
        <time>2015-05-07T08:41:19Z</time>
      </trkpt>
      <trkpt lat="42.23647" lon="3.21956">
        <ele>38</ele>
        <time>2015-05-07T08:41:22Z</time>
      </trkpt>
      <trkpt lat="42.2365" lon="3.21957">
        <ele>38</ele>
        <time>2015-05-07T08:41:23Z</time>
      </trkpt>
      <trkpt lat="42.23656" lon="3.21958">
        <ele>38</ele>
        <time>2015-05-07T08:41:26Z</time>
      </trkpt>
      <trkpt lat="42.23659" lon="3.21961">
        <ele>36.799999237061</ele>
        <time>2015-05-07T08:41:29Z</time>
      </trkpt>
      <trkpt lat="42.23661" lon="3.21965">
        <ele>35.400001525879</ele>
        <time>2015-05-07T08:41:31Z</time>
      </trkpt>
      <trkpt lat="42.23663" lon="3.21967">
        <ele>34.200000762939</ele>
        <time>2015-05-07T08:41:33Z</time>
      </trkpt>
      <trkpt lat="42.23662" lon="3.21967">
        <ele>33.599998474121</ele>
        <time>2015-05-07T08:41:35Z</time>
      </trkpt>
      <trkpt lat="42.23664" lon="3.21968">
        <ele>33.400001525879</ele>
        <time>2015-05-07T08:41:44Z</time>
      </trkpt>
      <trkpt lat="42.23664" lon="3.21969">
        <ele>33.599998474121</ele>
        <time>2015-05-07T08:41:51Z</time>
      </trkpt>
      <trkpt lat="42.23664" lon="3.21969">
        <ele>33.599998474121</ele>
        <time>2015-05-07T08:41:52Z</time>
      </trkpt>
      <trkpt lat="42.23664" lon="3.21969">
        <ele>33.400001525879</ele>
        <time>2015-05-07T08:41:55Z</time>
      </trkpt>
      <trkpt lat="42.23664" lon="3.2197">
        <ele>33.599998474121</ele>
        <time>2015-05-07T08:41:59Z</time>
      </trkpt>
      <trkpt lat="42.23664" lon="3.2197">
        <ele>33.599998474121</ele>
        <time>2015-05-07T08:42:02Z</time>
      </trkpt>
      <trkpt lat="42.23664" lon="3.2197">
        <ele>33.599998474121</ele>
        <time>2015-05-07T08:42:04Z</time>
      </trkpt>
      <trkpt lat="42.23668" lon="3.21972">
        <ele>33.599998474121</ele>
        <time>2015-05-07T08:42:12Z</time>
      </trkpt>
      <trkpt lat="42.23675" lon="3.21974">
        <ele>36</ele>
        <time>2015-05-07T08:42:16Z</time>
      </trkpt>
      <trkpt lat="42.23678" lon="3.2197">
        <ele>37.599998474121</ele>
        <time>2015-05-07T08:42:18Z</time>
      </trkpt>
      <trkpt lat="42.23681" lon="3.21968">
        <ele>39.200000762939</ele>
        <time>2015-05-07T08:42:20Z</time>
      </trkpt>
      <trkpt lat="42.23684" lon="3.21968">
        <ele>40.200000762939</ele>
        <time>2015-05-07T08:42:22Z</time>
      </trkpt>
      <trkpt lat="42.23687" lon="3.2197">
        <ele>41.400001525879</ele>
        <time>2015-05-07T08:42:24Z</time>
      </trkpt>
      <trkpt lat="42.23689" lon="3.21973">
        <ele>42.400001525879</ele>
        <time>2015-05-07T08:42:26Z</time>
      </trkpt>
      <trkpt lat="42.23691" lon="3.21976">
        <ele>42.799999237061</ele>
        <time>2015-05-07T08:42:27Z</time>
      </trkpt>
      <trkpt lat="42.23692" lon="3.21977">
        <ele>43</ele>
        <time>2015-05-07T08:42:28Z</time>
      </trkpt>
      <trkpt lat="42.23693" lon="3.21978">
        <ele>43</ele>
        <time>2015-05-07T08:42:29Z</time>
      </trkpt>
      <trkpt lat="42.23695" lon="3.21984">
        <ele>43.599998474121</ele>
        <time>2015-05-07T08:42:32Z</time>
      </trkpt>
      <trkpt lat="42.23696" lon="3.21986">
        <ele>44</ele>
        <time>2015-05-07T08:42:33Z</time>
      </trkpt>
      <trkpt lat="42.23697" lon="3.2199">
        <ele>44.200000762939</ele>
        <time>2015-05-07T08:42:34Z</time>
      </trkpt>
      <trkpt lat="42.23698" lon="3.21995">
        <ele>45.200000762939</ele>
        <time>2015-05-07T08:42:36Z</time>
      </trkpt>
      <trkpt lat="42.23702" lon="3.22">
        <ele>46.200000762939</ele>
        <time>2015-05-07T08:42:38Z</time>
      </trkpt>
      <trkpt lat="42.23704" lon="3.22002">
        <ele>46.599998474121</ele>
        <time>2015-05-07T08:42:39Z</time>
      </trkpt>
      <trkpt lat="42.23706" lon="3.22012">
        <ele>47.799999237061</ele>
        <time>2015-05-07T08:42:43Z</time>
      </trkpt>
      <trkpt lat="42.23705" lon="3.22028">
        <ele>47.400001525879</ele>
        <time>2015-05-07T08:42:47Z</time>
      </trkpt>
      <trkpt lat="42.23704" lon="3.22035">
        <ele>46.599998474121</ele>
        <time>2015-05-07T08:42:49Z</time>
      </trkpt>
      <trkpt lat="42.23706" lon="3.22036">
        <ele>46.200000762939</ele>
        <time>2015-05-07T08:42:50Z</time>
      </trkpt>
      <trkpt lat="42.23708" lon="3.22037">
        <ele>46.200000762939</ele>
        <time>2015-05-07T08:42:51Z</time>
      </trkpt>
      <trkpt lat="42.23708" lon="3.22039">
        <ele>45.799999237061</ele>
        <time>2015-05-07T08:42:52Z</time>
      </trkpt>
      <trkpt lat="42.23708" lon="3.22045">
        <ele>45.799999237061</ele>
        <time>2015-05-07T08:42:54Z</time>
      </trkpt>
      <trkpt lat="42.23707" lon="3.22052">
        <ele>46</ele>
        <time>2015-05-07T08:42:57Z</time>
      </trkpt>
      <trkpt lat="42.23708" lon="3.22056">
        <ele>45.799999237061</ele>
        <time>2015-05-07T08:42:58Z</time>
      </trkpt>
      <trkpt lat="42.23709" lon="3.22063">
        <ele>45.200000762939</ele>
        <time>2015-05-07T08:43:00Z</time>
      </trkpt>
      <trkpt lat="42.2371" lon="3.22074">
        <ele>43.799999237061</ele>
        <time>2015-05-07T08:43:03Z</time>
      </trkpt>
      <trkpt lat="42.23712" lon="3.22083">
        <ele>42.599998474121</ele>
        <time>2015-05-07T08:43:07Z</time>
      </trkpt>
      <trkpt lat="42.23711" lon="3.22085">
        <ele>42.599998474121</ele>
        <time>2015-05-07T08:43:08Z</time>
      </trkpt>
      <trkpt lat="42.23707" lon="3.2209">
        <ele>42.400001525879</ele>
        <time>2015-05-07T08:43:11Z</time>
      </trkpt>
      <trkpt lat="42.23705" lon="3.22092">
        <ele>41.400001525879</ele>
        <time>2015-05-07T08:43:15Z</time>
      </trkpt>
      <trkpt lat="42.23705" lon="3.22093">
        <ele>41.200000762939</ele>
        <time>2015-05-07T08:43:16Z</time>
      </trkpt>
      <trkpt lat="42.23706" lon="3.22096">
        <ele>40.400001525879</ele>
        <time>2015-05-07T08:43:18Z</time>
      </trkpt>
      <trkpt lat="42.23708" lon="3.22101">
        <ele>39.599998474121</ele>
        <time>2015-05-07T08:43:21Z</time>
      </trkpt>
      <trkpt lat="42.23708" lon="3.22103">
        <ele>39.200000762939</ele>
        <time>2015-05-07T08:43:22Z</time>
      </trkpt>
      <trkpt lat="42.23708" lon="3.22107">
        <ele>37.799999237061</ele>
        <time>2015-05-07T08:43:25Z</time>
      </trkpt>
      <trkpt lat="42.23709" lon="3.22109">
        <ele>36.599998474121</ele>
        <time>2015-05-07T08:43:27Z</time>
      </trkpt>
      <trkpt lat="42.23708" lon="3.22114">
        <ele>35.200000762939</ele>
        <time>2015-05-07T08:43:29Z</time>
      </trkpt>
      <trkpt lat="42.23708" lon="3.22116">
        <ele>34.799999237061</ele>
        <time>2015-05-07T08:43:30Z</time>
      </trkpt>
      <trkpt lat="42.23707" lon="3.2212">
        <ele>34</ele>
        <time>2015-05-07T08:43:32Z</time>
      </trkpt>
      <trkpt lat="42.23706" lon="3.22121">
        <ele>33.799999237061</ele>
        <time>2015-05-07T08:43:33Z</time>
      </trkpt>
      <trkpt lat="42.23706" lon="3.22121">
        <ele>33.200000762939</ele>
        <time>2015-05-07T08:43:36Z</time>
      </trkpt>
      <trkpt lat="42.23707" lon="3.22121">
        <ele>33</ele>
        <time>2015-05-07T08:43:37Z</time>
      </trkpt>
      <trkpt lat="42.23706" lon="3.22122">
        <ele>33</ele>
        <time>2015-05-07T08:43:42Z</time>
      </trkpt>
      <trkpt lat="42.23706" lon="3.22122">
        <ele>33</ele>
        <time>2015-05-07T08:43:44Z</time>
      </trkpt>
      <trkpt lat="42.23713" lon="3.22126">
        <ele>33</ele>
        <time>2015-05-07T08:43:47Z</time>
      </trkpt>
      <trkpt lat="42.23716" lon="3.22128">
        <ele>34</ele>
        <time>2015-05-07T08:43:50Z</time>
      </trkpt>
      <trkpt lat="42.23717" lon="3.22129">
        <ele>34.599998474121</ele>
        <time>2015-05-07T08:43:51Z</time>
      </trkpt>
      <trkpt lat="42.23716" lon="3.22131">
        <ele>35.200000762939</ele>
        <time>2015-05-07T08:43:52Z</time>
      </trkpt>
      <trkpt lat="42.23717" lon="3.22132">
        <ele>35.799999237061</ele>
        <time>2015-05-07T08:43:53Z</time>
      </trkpt>
      <trkpt lat="42.23717" lon="3.22136">
        <ele>37.200000762939</ele>
        <time>2015-05-07T08:43:55Z</time>
      </trkpt>
      <trkpt lat="42.23717" lon="3.22139">
        <ele>38.400001525879</ele>
        <time>2015-05-07T08:43:57Z</time>
      </trkpt>
      <trkpt lat="42.23717" lon="3.22145">
        <ele>39.400001525879</ele>
        <time>2015-05-07T08:44:00Z</time>
      </trkpt>
      <trkpt lat="42.2372" lon="3.22147">
        <ele>40.400001525879</ele>
        <time>2015-05-07T08:44:03Z</time>
      </trkpt>
      <trkpt lat="42.2372" lon="3.22148">
        <ele>40.799999237061</ele>
        <time>2015-05-07T08:44:04Z</time>
      </trkpt>
      <trkpt lat="42.23721" lon="3.22153">
        <ele>42</ele>
        <time>2015-05-07T08:44:06Z</time>
      </trkpt>
      <trkpt lat="42.23723" lon="3.22153">
        <ele>43.200000762939</ele>
        <time>2015-05-07T08:44:08Z</time>
      </trkpt>
      <trkpt lat="42.23722" lon="3.22154">
        <ele>44.400001525879</ele>
        <time>2015-05-07T08:44:10Z</time>
      </trkpt>
      <trkpt lat="42.23721" lon="3.22156">
        <ele>44.799999237061</ele>
        <time>2015-05-07T08:44:13Z</time>
      </trkpt>
      <trkpt lat="42.2372" lon="3.22156">
        <ele>45</ele>
        <time>2015-05-07T08:44:17Z</time>
      </trkpt>
      <trkpt lat="42.23723" lon="3.22156">
        <ele>45.200000762939</ele>
        <time>2015-05-07T08:44:22Z</time>
      </trkpt>
      <trkpt lat="42.23726" lon="3.22152">
        <ele>45</ele>
        <time>2015-05-07T08:44:27Z</time>
      </trkpt>
      <trkpt lat="42.23726" lon="3.22152">
        <ele>45.400001525879</ele>
        <time>2015-05-07T08:44:29Z</time>
      </trkpt>
      <trkpt lat="42.23728" lon="3.22152">
        <ele>46</ele>
        <time>2015-05-07T08:44:30Z</time>
      </trkpt>
      <trkpt lat="42.23729" lon="3.22153">
        <ele>46.599998474121</ele>
        <time>2015-05-07T08:44:31Z</time>
      </trkpt>
      <trkpt lat="42.2373" lon="3.22151">
        <ele>47.799999237061</ele>
        <time>2015-05-07T08:44:34Z</time>
      </trkpt>
      <trkpt lat="42.2373" lon="3.22152">
        <ele>48.200000762939</ele>
        <time>2015-05-07T08:44:35Z</time>
      </trkpt>
      <trkpt lat="42.2373" lon="3.22156">
        <ele>48.799999237061</ele>
        <time>2015-05-07T08:44:37Z</time>
      </trkpt>
      <trkpt lat="42.23732" lon="3.22159">
        <ele>49.599998474121</ele>
        <time>2015-05-07T08:44:39Z</time>
      </trkpt>
      <trkpt lat="42.23732" lon="3.22161">
        <ele>50</ele>
        <time>2015-05-07T08:44:40Z</time>
      </trkpt>
      <trkpt lat="42.23734" lon="3.22166">
        <ele>50.599998474121</ele>
        <time>2015-05-07T08:44:43Z</time>
      </trkpt>
      <trkpt lat="42.23735" lon="3.2217">
        <ele>51</ele>
        <time>2015-05-07T08:44:45Z</time>
      </trkpt>
      <trkpt lat="42.23734" lon="3.22175">
        <ele>52.200000762939</ele>
        <time>2015-05-07T08:44:48Z</time>
      </trkpt>
      <trkpt lat="42.23734" lon="3.22178">
        <ele>53.599998474121</ele>
        <time>2015-05-07T08:44:50Z</time>
      </trkpt>
      <trkpt lat="42.23735" lon="3.22181">
        <ele>54.799999237061</ele>
        <time>2015-05-07T08:44:52Z</time>
      </trkpt>
      <trkpt lat="42.23737" lon="3.22182">
        <ele>55.200000762939</ele>
        <time>2015-05-07T08:44:53Z</time>
      </trkpt>
      <trkpt lat="42.23738" lon="3.22184">
        <ele>56</ele>
        <time>2015-05-07T08:44:55Z</time>
      </trkpt>
      <trkpt lat="42.2374" lon="3.22189">
        <ele>57.400001525879</ele>
        <time>2015-05-07T08:44:58Z</time>
      </trkpt>
      <trkpt lat="42.23741" lon="3.22192">
        <ele>58.200000762939</ele>
        <time>2015-05-07T08:45:00Z</time>
      </trkpt>
      <trkpt lat="42.23742" lon="3.22194">
        <ele>58.799999237061</ele>
        <time>2015-05-07T08:45:01Z</time>
      </trkpt>
      <trkpt lat="42.23745" lon="3.22198">
        <ele>60</ele>
        <time>2015-05-07T08:45:04Z</time>
      </trkpt>
      <trkpt lat="42.23748" lon="3.22204">
        <ele>61</ele>
        <time>2015-05-07T08:45:08Z</time>
      </trkpt>
      <trkpt lat="42.23749" lon="3.22206">
        <ele>61.400001525879</ele>
        <time>2015-05-07T08:45:09Z</time>
      </trkpt>
      <trkpt lat="42.23753" lon="3.22207">
        <ele>62.200000762939</ele>
        <time>2015-05-07T08:45:11Z</time>
      </trkpt>
      <trkpt lat="42.23755" lon="3.22208">
        <ele>62.400001525879</ele>
        <time>2015-05-07T08:45:12Z</time>
      </trkpt>
      <trkpt lat="42.23756" lon="3.2221">
        <ele>62.599998474121</ele>
        <time>2015-05-07T08:45:13Z</time>
      </trkpt>
      <trkpt lat="42.23761" lon="3.2222">
        <ele>62.200000762939</ele>
        <time>2015-05-07T08:45:18Z</time>
      </trkpt>
      <trkpt lat="42.23766" lon="3.22231">
        <ele>62.400001525879</ele>
        <time>2015-05-07T08:45:23Z</time>
      </trkpt>
      <trkpt lat="42.23767" lon="3.22235">
        <ele>62.599998474121</ele>
        <time>2015-05-07T08:45:25Z</time>
      </trkpt>
      <trkpt lat="42.23767" lon="3.22247">
        <ele>63.400001525879</ele>
        <time>2015-05-07T08:45:30Z</time>
      </trkpt>
      <trkpt lat="42.23769" lon="3.22257">
        <ele>63.200000762939</ele>
        <time>2015-05-07T08:45:36Z</time>
      </trkpt>
      <trkpt lat="42.23766" lon="3.22263">
        <ele>61.799999237061</ele>
        <time>2015-05-07T08:45:39Z</time>
      </trkpt>
      <trkpt lat="42.23765" lon="3.22265">
        <ele>61.400001525879</ele>
        <time>2015-05-07T08:45:40Z</time>
      </trkpt>
      <trkpt lat="42.23764" lon="3.22267">
        <ele>60.799999237061</ele>
        <time>2015-05-07T08:45:41Z</time>
      </trkpt>
      <trkpt lat="42.23762" lon="3.22272">
        <ele>60</ele>
        <time>2015-05-07T08:45:43Z</time>
      </trkpt>
      <trkpt lat="42.23761" lon="3.22274">
        <ele>59.799999237061</ele>
        <time>2015-05-07T08:45:44Z</time>
      </trkpt>
      <trkpt lat="42.23759" lon="3.22279">
        <ele>59</ele>
        <time>2015-05-07T08:45:46Z</time>
      </trkpt>
      <trkpt lat="42.23759" lon="3.22282">
        <ele>58.799999237061</ele>
        <time>2015-05-07T08:45:47Z</time>
      </trkpt>
      <trkpt lat="42.23759" lon="3.22285">
        <ele>58.200000762939</ele>
        <time>2015-05-07T08:45:48Z</time>
      </trkpt>
      <trkpt lat="42.2376" lon="3.2229">
        <ele>57.200000762939</ele>
        <time>2015-05-07T08:45:50Z</time>
      </trkpt>
      <trkpt lat="42.23761" lon="3.22297">
        <ele>56</ele>
        <time>2015-05-07T08:45:52Z</time>
      </trkpt>
      <trkpt lat="42.23763" lon="3.22302">
        <ele>55.400001525879</ele>
        <time>2015-05-07T08:45:54Z</time>
      </trkpt>
      <trkpt lat="42.23763" lon="3.22305">
        <ele>55</ele>
        <time>2015-05-07T08:45:55Z</time>
      </trkpt>
      <trkpt lat="42.23766" lon="3.22307">
        <ele>54.200000762939</ele>
        <time>2015-05-07T08:45:57Z</time>
      </trkpt>
      <trkpt lat="42.23767" lon="3.22308">
        <ele>54</ele>
        <time>2015-05-07T08:45:58Z</time>
      </trkpt>
      <trkpt lat="42.23769" lon="3.22311">
        <ele>53.599998474121</ele>
        <time>2015-05-07T08:45:59Z</time>
      </trkpt>
      <trkpt lat="42.23769" lon="3.22319">
        <ele>53.200000762939</ele>
        <time>2015-05-07T08:46:02Z</time>
      </trkpt>
      <trkpt lat="42.23764" lon="3.22322">
        <ele>52.799999237061</ele>
        <time>2015-05-07T08:46:05Z</time>
      </trkpt>
      <trkpt lat="42.23763" lon="3.22323">
        <ele>52.599998474121</ele>
        <time>2015-05-07T08:46:06Z</time>
      </trkpt>
      <trkpt lat="42.23763" lon="3.22323">
        <ele>51.599998474121</ele>
        <time>2015-05-07T08:46:09Z</time>
      </trkpt>
      <trkpt lat="42.23759" lon="3.22323">
        <ele>51</ele>
        <time>2015-05-07T08:46:11Z</time>
      </trkpt>
      <trkpt lat="42.2375" lon="3.22325">
        <ele>50.799999237061</ele>
        <time>2015-05-07T08:46:16Z</time>
      </trkpt>
      <trkpt lat="42.23751" lon="3.22327">
        <ele>50.400001525879</ele>
        <time>2015-05-07T08:46:17Z</time>
      </trkpt>
      <trkpt lat="42.23749" lon="3.22335">
        <ele>50.400001525879</ele>
        <time>2015-05-07T08:46:20Z</time>
      </trkpt>
      <trkpt lat="42.2375" lon="3.2234">
        <ele>50.599998474121</ele>
        <time>2015-05-07T08:46:22Z</time>
      </trkpt>
      <trkpt lat="42.23753" lon="3.22346">
        <ele>50.400001525879</ele>
        <time>2015-05-07T08:46:25Z</time>
      </trkpt>
      <trkpt lat="42.23756" lon="3.22352">
        <ele>50.200000762939</ele>
        <time>2015-05-07T08:46:32Z</time>
      </trkpt>
      <trkpt lat="42.23757" lon="3.22352">
        <ele>50.400001525879</ele>
        <time>2015-05-07T08:46:40Z</time>
      </trkpt>
      <trkpt lat="42.23756" lon="3.22352">
        <ele>50.799999237061</ele>
        <time>2015-05-07T08:46:45Z</time>
      </trkpt>
      <trkpt lat="42.23756" lon="3.22352">
        <ele>50.799999237061</ele>
        <time>2015-05-07T08:46:49Z</time>
      </trkpt>
      <trkpt lat="42.23756" lon="3.22352">
        <ele>50.799999237061</ele>
        <time>2015-05-07T08:46:54Z</time>
      </trkpt>
      <trkpt lat="42.23756" lon="3.22352">
        <ele>50.799999237061</ele>
        <time>2015-05-07T08:46:59Z</time>
      </trkpt>
      <trkpt lat="42.23756" lon="3.22353">
        <ele>50.799999237061</ele>
        <time>2015-05-07T08:47:01Z</time>
      </trkpt>
      <trkpt lat="42.23756" lon="3.22353">
        <ele>50.799999237061</ele>
        <time>2015-05-07T08:47:02Z</time>
      </trkpt>
      <trkpt lat="42.23756" lon="3.22353">
        <ele>50.599998474121</ele>
        <time>2015-05-07T08:47:03Z</time>
      </trkpt>
      <trkpt lat="42.23756" lon="3.22353">
        <ele>50.599998474121</ele>
        <time>2015-05-07T08:47:04Z</time>
      </trkpt>
      <trkpt lat="42.23756" lon="3.22353">
        <ele>50.400001525879</ele>
        <time>2015-05-07T08:47:05Z</time>
      </trkpt>
      <trkpt lat="42.23756" lon="3.22352">
        <ele>50.400001525879</ele>
        <time>2015-05-07T08:47:06Z</time>
      </trkpt>
      <trkpt lat="42.23756" lon="3.22353">
        <ele>50.200000762939</ele>
        <time>2015-05-07T08:47:07Z</time>
      </trkpt>
      <trkpt lat="42.23756" lon="3.22353">
        <ele>50.200000762939</ele>
        <time>2015-05-07T08:47:12Z</time>
      </trkpt>
      <trkpt lat="42.23759" lon="3.22355">
        <ele>50.400001525879</ele>
        <time>2015-05-07T08:47:16Z</time>
      </trkpt>
      <trkpt lat="42.23762" lon="3.22357">
        <ele>50.400001525879</ele>
        <time>2015-05-07T08:47:18Z</time>
      </trkpt>
      <trkpt lat="42.23765" lon="3.2236">
        <ele>50.599998474121</ele>
        <time>2015-05-07T08:47:20Z</time>
      </trkpt>
      <trkpt lat="42.2377" lon="3.22366">
        <ele>50.799999237061</ele>
        <time>2015-05-07T08:47:23Z</time>
      </trkpt>
      <trkpt lat="42.23772" lon="3.22368">
        <ele>50.799999237061</ele>
        <time>2015-05-07T08:47:24Z</time>
      </trkpt>
      <trkpt lat="42.23777" lon="3.22374">
        <ele>50.799999237061</ele>
        <time>2015-05-07T08:47:27Z</time>
      </trkpt>
      <trkpt lat="42.23786" lon="3.22382">
        <ele>50.400001525879</ele>
        <time>2015-05-07T08:47:32Z</time>
      </trkpt>
      <trkpt lat="42.23799" lon="3.22388">
        <ele>51</ele>
        <time>2015-05-07T08:47:38Z</time>
      </trkpt>
      <trkpt lat="42.2381" lon="3.22388">
        <ele>51.400001525879</ele>
        <time>2015-05-07T08:47:43Z</time>
      </trkpt>
      <trkpt lat="42.23812" lon="3.22387">
        <ele>51.599998474121</ele>
        <time>2015-05-07T08:47:44Z</time>
      </trkpt>
      <trkpt lat="42.23823" lon="3.22385">
        <ele>51.400001525879</ele>
        <time>2015-05-07T08:47:49Z</time>
      </trkpt>
      <trkpt lat="42.23824" lon="3.22386">
        <ele>51.400001525879</ele>
        <time>2015-05-07T08:47:50Z</time>
      </trkpt>
      <trkpt lat="42.23831" lon="3.22387">
        <ele>50.200000762939</ele>
        <time>2015-05-07T08:47:54Z</time>
      </trkpt>
      <trkpt lat="42.23834" lon="3.22385">
        <ele>49</ele>
        <time>2015-05-07T08:47:56Z</time>
      </trkpt>
      <trkpt lat="42.23838" lon="3.22383">
        <ele>48</ele>
        <time>2015-05-07T08:47:58Z</time>
      </trkpt>
      <trkpt lat="42.23845" lon="3.22384">
        <ele>47.400001525879</ele>
        <time>2015-05-07T08:48:02Z</time>
      </trkpt>
      <trkpt lat="42.23849" lon="3.22384">
        <ele>47.400001525879</ele>
        <time>2015-05-07T08:48:04Z</time>
      </trkpt>
      <trkpt lat="42.23853" lon="3.22383">
        <ele>47.400001525879</ele>
        <time>2015-05-07T08:48:06Z</time>
      </trkpt>
      <trkpt lat="42.23862" lon="3.22381">
        <ele>48.200000762939</ele>
        <time>2015-05-07T08:48:11Z</time>
      </trkpt>
      <trkpt lat="42.23873" lon="3.22383">
        <ele>47.200000762939</ele>
        <time>2015-05-07T08:48:17Z</time>
      </trkpt>
      <trkpt lat="42.23875" lon="3.22382">
        <ele>47</ele>
        <time>2015-05-07T08:48:18Z</time>
      </trkpt>
      <trkpt lat="42.23883" lon="3.22381">
        <ele>46</ele>
        <time>2015-05-07T08:48:22Z</time>
      </trkpt>
      <trkpt lat="42.23886" lon="3.22381">
        <ele>46</ele>
        <time>2015-05-07T08:48:24Z</time>
      </trkpt>
      <trkpt lat="42.23891" lon="3.22382">
        <ele>45.799999237061</ele>
        <time>2015-05-07T08:48:27Z</time>
      </trkpt>
      <trkpt lat="42.23898" lon="3.22384">
        <ele>44.799999237061</ele>
        <time>2015-05-07T08:48:30Z</time>
      </trkpt>
      <trkpt lat="42.23903" lon="3.22385">
        <ele>43.599998474121</ele>
        <time>2015-05-07T08:48:32Z</time>
      </trkpt>
      <trkpt lat="42.23907" lon="3.22385">
        <ele>42.400001525879</ele>
        <time>2015-05-07T08:48:34Z</time>
      </trkpt>
      <trkpt lat="42.23911" lon="3.22384">
        <ele>41</ele>
        <time>2015-05-07T08:48:36Z</time>
      </trkpt>
      <trkpt lat="42.23912" lon="3.22384">
        <ele>40.200000762939</ele>
        <time>2015-05-07T08:48:37Z</time>
      </trkpt>
      <trkpt lat="42.23913" lon="3.22383">
        <ele>39.599998474121</ele>
        <time>2015-05-07T08:48:38Z</time>
      </trkpt>
      <trkpt lat="42.23914" lon="3.22383">
        <ele>39.200000762939</ele>
        <time>2015-05-07T08:48:39Z</time>
      </trkpt>
      <trkpt lat="42.23919" lon="3.22383">
        <ele>38.599998474121</ele>
        <time>2015-05-07T08:48:41Z</time>
      </trkpt>
      <trkpt lat="42.23921" lon="3.22385">
        <ele>38.400001525879</ele>
        <time>2015-05-07T08:48:42Z</time>
      </trkpt>
      <trkpt lat="42.23923" lon="3.22386">
        <ele>37.799999237061</ele>
        <time>2015-05-07T08:48:45Z</time>
      </trkpt>
      <trkpt lat="42.23924" lon="3.22386">
        <ele>37.400001525879</ele>
        <time>2015-05-07T08:48:46Z</time>
      </trkpt>
      <trkpt lat="42.23931" lon="3.22391">
        <ele>36.799999237061</ele>
        <time>2015-05-07T08:48:50Z</time>
      </trkpt>
      <trkpt lat="42.23939" lon="3.22396">
        <ele>36.200000762939</ele>
        <time>2015-05-07T08:48:53Z</time>
      </trkpt>
      <trkpt lat="42.23943" lon="3.224">
        <ele>35</ele>
        <time>2015-05-07T08:48:55Z</time>
      </trkpt>
      <trkpt lat="42.23949" lon="3.22402">
        <ele>34</ele>
        <time>2015-05-07T08:48:57Z</time>
      </trkpt>
      <trkpt lat="42.23953" lon="3.22402">
        <ele>33</ele>
        <time>2015-05-07T08:48:59Z</time>
      </trkpt>
      <trkpt lat="42.23956" lon="3.22402">
        <ele>32.400001525879</ele>
        <time>2015-05-07T08:49:00Z</time>
      </trkpt>
      <trkpt lat="42.23967" lon="3.22406">
        <ele>31.60000038147</ele>
        <time>2015-05-07T08:49:05Z</time>
      </trkpt>
      <trkpt lat="42.23968" lon="3.22408">
        <ele>31.60000038147</ele>
        <time>2015-05-07T08:49:06Z</time>
      </trkpt>
      <trkpt lat="42.23969" lon="3.2241">
        <ele>31.200000762939</ele>
        <time>2015-05-07T08:49:07Z</time>
      </trkpt>
      <trkpt lat="42.23973" lon="3.2241">
        <ele>30.60000038147</ele>
        <time>2015-05-07T08:49:09Z</time>
      </trkpt>
      <trkpt lat="42.23976" lon="3.22412">
        <ele>29.799999237061</ele>
        <time>2015-05-07T08:49:11Z</time>
      </trkpt>
      <trkpt lat="42.23982" lon="3.22415">
        <ele>28.799999237061</ele>
        <time>2015-05-07T08:49:14Z</time>
      </trkpt>
      <trkpt lat="42.23984" lon="3.22416">
        <ele>28.200000762939</ele>
        <time>2015-05-07T08:49:15Z</time>
      </trkpt>
      <trkpt lat="42.23987" lon="3.22418">
        <ele>27</ele>
        <time>2015-05-07T08:49:17Z</time>
      </trkpt>
      <trkpt lat="42.23988" lon="3.2242">
        <ele>26.200000762939</ele>
        <time>2015-05-07T08:49:18Z</time>
      </trkpt>
      <trkpt lat="42.23987" lon="3.22422">
        <ele>25.799999237061</ele>
        <time>2015-05-07T08:49:19Z</time>
      </trkpt>
      <trkpt lat="42.23986" lon="3.22425">
        <ele>25</ele>
        <time>2015-05-07T08:49:20Z</time>
      </trkpt>
      <trkpt lat="42.23985" lon="3.22426">
        <ele>24.200000762939</ele>
        <time>2015-05-07T08:49:21Z</time>
      </trkpt>
      <trkpt lat="42.23984" lon="3.22429">
        <ele>22.60000038147</ele>
        <time>2015-05-07T08:49:23Z</time>
      </trkpt>
      <trkpt lat="42.23985" lon="3.22432">
        <ele>21</ele>
        <time>2015-05-07T08:49:25Z</time>
      </trkpt>
      <trkpt lat="42.23984" lon="3.22436">
        <ele>19.799999237061</ele>
        <time>2015-05-07T08:49:27Z</time>
      </trkpt>
      <trkpt lat="42.23983" lon="3.22437">
        <ele>19.200000762939</ele>
        <time>2015-05-07T08:49:28Z</time>
      </trkpt>
      <trkpt lat="42.23983" lon="3.22439">
        <ele>18.60000038147</ele>
        <time>2015-05-07T08:49:29Z</time>
      </trkpt>
      <trkpt lat="42.23985" lon="3.22443">
        <ele>17.39999961853</ele>
        <time>2015-05-07T08:49:32Z</time>
      </trkpt>
      <trkpt lat="42.23986" lon="3.22443">
        <ele>17</ele>
        <time>2015-05-07T08:49:33Z</time>
      </trkpt>
      <trkpt lat="42.23986" lon="3.22445">
        <ele>16.39999961853</ele>
        <time>2015-05-07T08:49:34Z</time>
      </trkpt>
      <trkpt lat="42.23986" lon="3.22448">
        <ele>15.39999961853</ele>
        <time>2015-05-07T08:49:36Z</time>
      </trkpt>
      <trkpt lat="42.23985" lon="3.22449">
        <ele>14.800000190735</ele>
        <time>2015-05-07T08:49:37Z</time>
      </trkpt>
      <trkpt lat="42.23985" lon="3.2245">
        <ele>14.199999809265</ele>
        <time>2015-05-07T08:49:38Z</time>
      </trkpt>
      <trkpt lat="42.23984" lon="3.22453">
        <ele>12.800000190735</ele>
        <time>2015-05-07T08:49:40Z</time>
      </trkpt>
      <trkpt lat="42.23984" lon="3.22454">
        <ele>12</ele>
        <time>2015-05-07T08:49:41Z</time>
      </trkpt>
      <trkpt lat="42.23983" lon="3.22455">
        <ele>11</ele>
        <time>2015-05-07T08:49:42Z</time>
      </trkpt>
      <trkpt lat="42.23981" lon="3.22457">
        <ele>9.6000003814697</ele>
        <time>2015-05-07T08:49:44Z</time>
      </trkpt>
      <trkpt lat="42.2398" lon="3.22458">
        <ele>8</ele>
        <time>2015-05-07T08:49:46Z</time>
      </trkpt>
      <trkpt lat="42.23978" lon="3.22461">
        <ele>6.8000001907349</ele>
        <time>2015-05-07T08:49:48Z</time>
      </trkpt>
      <trkpt lat="42.23979" lon="3.22463">
        <ele>5.8000001907349</ele>
        <time>2015-05-07T08:49:50Z</time>
      </trkpt>
      <trkpt lat="42.2398" lon="3.22464">
        <ele>5</ele>
        <time>2015-05-07T08:49:52Z</time>
      </trkpt>
      <trkpt lat="42.23981" lon="3.22467">
        <ele>4.8000001907349</ele>
        <time>2015-05-07T08:49:54Z</time>
      </trkpt>
      <trkpt lat="42.23981" lon="3.22468">
        <ele>4.4000000953674</ele>
        <time>2015-05-07T08:49:55Z</time>
      </trkpt>
      <trkpt lat="42.23981" lon="3.22468">
        <ele>4.1999998092651</ele>
        <time>2015-05-07T08:50:01Z</time>
      </trkpt>
      <trkpt lat="42.2398" lon="3.22472">
        <ele>4</ele>
        <time>2015-05-07T08:50:06Z</time>
      </trkpt>
      <trkpt lat="42.23978" lon="3.22472">
        <ele>4</ele>
        <time>2015-05-07T08:50:10Z</time>
      </trkpt>
      <trkpt lat="42.2398" lon="3.22471">
        <ele>4.4000000953674</ele>
        <time>2015-05-07T08:50:12Z</time>
      </trkpt>
      <trkpt lat="42.23979" lon="3.22471">
        <ele>4.1999998092651</ele>
        <time>2015-05-07T08:50:16Z</time>
      </trkpt>
      <trkpt lat="42.2398" lon="3.2247">
        <ele>4.1999998092651</ele>
        <time>2015-05-07T08:50:20Z</time>
      </trkpt>
      <trkpt lat="42.2398" lon="3.2247">
        <ele>4.4000000953674</ele>
        <time>2015-05-07T08:50:23Z</time>
      </trkpt>
      <trkpt lat="42.23979" lon="3.2247">
        <ele>4.4000000953674</ele>
        <time>2015-05-07T08:50:27Z</time>
      </trkpt>
      <trkpt lat="42.23979" lon="3.22469">
        <ele>4.1999998092651</ele>
        <time>2015-05-07T08:50:30Z</time>
      </trkpt>
      <trkpt lat="42.2398" lon="3.2247">
        <ele>4.1999998092651</ele>
        <time>2015-05-07T08:50:33Z</time>
      </trkpt>
      <trkpt lat="42.23986" lon="3.22469">
        <ele>4.1999998092651</ele>
        <time>2015-05-07T08:50:37Z</time>
      </trkpt>
      <trkpt lat="42.23989" lon="3.22466">
        <ele>4.4000000953674</ele>
        <time>2015-05-07T08:50:39Z</time>
      </trkpt>
      <trkpt lat="42.23993" lon="3.22465">
        <ele>4.5999999046326</ele>
        <time>2015-05-07T08:50:41Z</time>
      </trkpt>
      <trkpt lat="42.23996" lon="3.22472">
        <ele>6</ele>
        <time>2015-05-07T08:50:44Z</time>
      </trkpt>
      <trkpt lat="42.24" lon="3.22475">
        <ele>7.1999998092651</ele>
        <time>2015-05-07T08:50:46Z</time>
      </trkpt>
      <trkpt lat="42.24" lon="3.2248">
        <ele>8</ele>
        <time>2015-05-07T08:50:48Z</time>
      </trkpt>
      <trkpt lat="42.24" lon="3.22484">
        <ele>8.6000003814697</ele>
        <time>2015-05-07T08:50:49Z</time>
      </trkpt>
      <trkpt lat="42.24004" lon="3.22494">
        <ele>9.1999998092651</ele>
        <time>2015-05-07T08:50:53Z</time>
      </trkpt>
      <trkpt lat="42.24007" lon="3.22501">
        <ele>9</ele>
        <time>2015-05-07T08:50:56Z</time>
      </trkpt>
      <trkpt lat="42.24009" lon="3.22507">
        <ele>9</ele>
        <time>2015-05-07T08:50:58Z</time>
      </trkpt>
      <trkpt lat="42.24012" lon="3.22519">
        <ele>9.6000003814697</ele>
        <time>2015-05-07T08:51:02Z</time>
      </trkpt>
      <trkpt lat="42.24012" lon="3.22522">
        <ele>9.8000001907349</ele>
        <time>2015-05-07T08:51:03Z</time>
      </trkpt>
      <trkpt lat="42.24015" lon="3.2253">
        <ele>10.800000190735</ele>
        <time>2015-05-07T08:51:06Z</time>
      </trkpt>
      <trkpt lat="42.24016" lon="3.22535">
        <ele>11.39999961853</ele>
        <time>2015-05-07T08:51:08Z</time>
      </trkpt>
      <trkpt lat="42.24016" lon="3.22537">
        <ele>11.800000190735</ele>
        <time>2015-05-07T08:51:09Z</time>
      </trkpt>
      <trkpt lat="42.24018" lon="3.22545">
        <ele>12.60000038147</ele>
        <time>2015-05-07T08:51:12Z</time>
      </trkpt>
      <trkpt lat="42.24019" lon="3.22548">
        <ele>13</ele>
        <time>2015-05-07T08:51:13Z</time>
      </trkpt>
      <trkpt lat="42.24021" lon="3.22557">
        <ele>13.60000038147</ele>
        <time>2015-05-07T08:51:16Z</time>
      </trkpt>
      <trkpt lat="42.24022" lon="3.22561">
        <ele>14</ele>
        <time>2015-05-07T08:51:17Z</time>
      </trkpt>
      <trkpt lat="42.24023" lon="3.22575">
        <ele>15.39999961853</ele>
        <time>2015-05-07T08:51:21Z</time>
      </trkpt>
      <trkpt lat="42.24023" lon="3.22577">
        <ele>15.60000038147</ele>
        <time>2015-05-07T08:51:22Z</time>
      </trkpt>
      <trkpt lat="42.24022" lon="3.22583">
        <ele>16.200000762939</ele>
        <time>2015-05-07T08:51:24Z</time>
      </trkpt>
      <trkpt lat="42.24022" lon="3.22584">
        <ele>16.60000038147</ele>
        <time>2015-05-07T08:51:25Z</time>
      </trkpt>
      <trkpt lat="42.24022" lon="3.22589">
        <ele>17</ele>
        <time>2015-05-07T08:51:26Z</time>
      </trkpt>
      <trkpt lat="42.2402" lon="3.22593">
        <ele>17.60000038147</ele>
        <time>2015-05-07T08:51:28Z</time>
      </trkpt>
      <trkpt lat="42.24019" lon="3.22596">
        <ele>17.799999237061</ele>
        <time>2015-05-07T08:51:29Z</time>
      </trkpt>
      <trkpt lat="42.24019" lon="3.22599">
        <ele>18.39999961853</ele>
        <time>2015-05-07T08:51:30Z</time>
      </trkpt>
      <trkpt lat="42.24019" lon="3.22603">
        <ele>19.200000762939</ele>
        <time>2015-05-07T08:51:32Z</time>
      </trkpt>
      <trkpt lat="42.24018" lon="3.22605">
        <ele>19.799999237061</ele>
        <time>2015-05-07T08:51:33Z</time>
      </trkpt>
      <trkpt lat="42.24018" lon="3.22609">
        <ele>20.39999961853</ele>
        <time>2015-05-07T08:51:34Z</time>
      </trkpt>
      <trkpt lat="42.24018" lon="3.22611">
        <ele>20.799999237061</ele>
        <time>2015-05-07T08:51:35Z</time>
      </trkpt>
      <trkpt lat="42.24017" lon="3.22613">
        <ele>21.60000038147</ele>
        <time>2015-05-07T08:51:36Z</time>
      </trkpt>
      <trkpt lat="42.24016" lon="3.22615">
        <ele>22</ele>
        <time>2015-05-07T08:51:37Z</time>
      </trkpt>
      <trkpt lat="42.24015" lon="3.2262">
        <ele>22.799999237061</ele>
        <time>2015-05-07T08:51:39Z</time>
      </trkpt>
      <trkpt lat="42.24014" lon="3.22625">
        <ele>23.60000038147</ele>
        <time>2015-05-07T08:51:41Z</time>
      </trkpt>
      <trkpt lat="42.24014" lon="3.22628">
        <ele>24</ele>
        <time>2015-05-07T08:51:42Z</time>
      </trkpt>
      <trkpt lat="42.24015" lon="3.22631">
        <ele>24.200000762939</ele>
        <time>2015-05-07T08:51:43Z</time>
      </trkpt>
      <trkpt lat="42.24015" lon="3.22637">
        <ele>25</ele>
        <time>2015-05-07T08:51:46Z</time>
      </trkpt>
      <trkpt lat="42.24015" lon="3.22638">
        <ele>25.200000762939</ele>
        <time>2015-05-07T08:51:47Z</time>
      </trkpt>
      <trkpt lat="42.24015" lon="3.22643">
        <ele>26.200000762939</ele>
        <time>2015-05-07T08:51:50Z</time>
      </trkpt>
      <trkpt lat="42.24016" lon="3.22645">
        <ele>26.39999961853</ele>
        <time>2015-05-07T08:51:51Z</time>
      </trkpt>
      <trkpt lat="42.24017" lon="3.2265">
        <ele>27.799999237061</ele>
        <time>2015-05-07T08:51:54Z</time>
      </trkpt>
      <trkpt lat="42.24017" lon="3.22652">
        <ele>29</ele>
        <time>2015-05-07T08:51:56Z</time>
      </trkpt>
      <trkpt lat="42.24016" lon="3.22658">
        <ele>30</ele>
        <time>2015-05-07T08:51:59Z</time>
      </trkpt>
      <trkpt lat="42.24016" lon="3.22659">
        <ele>30.200000762939</ele>
        <time>2015-05-07T08:52:00Z</time>
      </trkpt>
      <trkpt lat="42.24017" lon="3.22663">
        <ele>31.39999961853</ele>
        <time>2015-05-07T08:52:03Z</time>
      </trkpt>
      <trkpt lat="42.24017" lon="3.22664">
        <ele>31.799999237061</ele>
        <time>2015-05-07T08:52:04Z</time>
      </trkpt>
      <trkpt lat="42.24017" lon="3.22666">
        <ele>32.400001525879</ele>
        <time>2015-05-07T08:52:05Z</time>
      </trkpt>
      <trkpt lat="42.24015" lon="3.22671">
        <ele>33.799999237061</ele>
        <time>2015-05-07T08:52:08Z</time>
      </trkpt>
      <trkpt lat="42.24016" lon="3.22673">
        <ele>34.200000762939</ele>
        <time>2015-05-07T08:52:09Z</time>
      </trkpt>
      <trkpt lat="42.24015" lon="3.22678">
        <ele>35</ele>
        <time>2015-05-07T08:52:11Z</time>
      </trkpt>
      <trkpt lat="42.24015" lon="3.2268">
        <ele>35.400001525879</ele>
        <time>2015-05-07T08:52:12Z</time>
      </trkpt>
      <trkpt lat="42.24014" lon="3.22682">
        <ele>36</ele>
        <time>2015-05-07T08:52:13Z</time>
      </trkpt>
      <trkpt lat="42.24014" lon="3.22691">
        <ele>37</ele>
        <time>2015-05-07T08:52:17Z</time>
      </trkpt>
      <trkpt lat="42.24015" lon="3.22692">
        <ele>37.200000762939</ele>
        <time>2015-05-07T08:52:18Z</time>
      </trkpt>
      <trkpt lat="42.24021" lon="3.22703">
        <ele>38.200000762939</ele>
        <time>2015-05-07T08:52:23Z</time>
      </trkpt>
      <trkpt lat="42.24024" lon="3.22712">
        <ele>39.200000762939</ele>
        <time>2015-05-07T08:52:27Z</time>
      </trkpt>
      <trkpt lat="42.24026" lon="3.22717">
        <ele>39.599998474121</ele>
        <time>2015-05-07T08:52:29Z</time>
      </trkpt>
      <trkpt lat="42.24035" lon="3.22732">
        <ele>38.799999237061</ele>
        <time>2015-05-07T08:52:37Z</time>
      </trkpt>
      <trkpt lat="42.24043" lon="3.22742">
        <ele>38</ele>
        <time>2015-05-07T08:52:43Z</time>
      </trkpt>
      <trkpt lat="42.24051" lon="3.22757">
        <ele>37.200000762939</ele>
        <time>2015-05-07T08:52:50Z</time>
      </trkpt>
      <trkpt lat="42.24055" lon="3.22764">
        <ele>36.799999237061</ele>
        <time>2015-05-07T08:52:53Z</time>
      </trkpt>
      <trkpt lat="42.24057" lon="3.22771">
        <ele>35.799999237061</ele>
        <time>2015-05-07T08:52:56Z</time>
      </trkpt>
      <trkpt lat="42.24058" lon="3.22773">
        <ele>35.599998474121</ele>
        <time>2015-05-07T08:52:57Z</time>
      </trkpt>
      <trkpt lat="42.24062" lon="3.22784">
        <ele>34.400001525879</ele>
        <time>2015-05-07T08:53:01Z</time>
      </trkpt>
      <trkpt lat="42.24063" lon="3.22787">
        <ele>34.599998474121</ele>
        <time>2015-05-07T08:53:02Z</time>
      </trkpt>
      <trkpt lat="42.24068" lon="3.22798">
        <ele>34.599998474121</ele>
        <time>2015-05-07T08:53:07Z</time>
      </trkpt>
      <trkpt lat="42.24071" lon="3.22803">
        <ele>34.799999237061</ele>
        <time>2015-05-07T08:53:10Z</time>
      </trkpt>
      <trkpt lat="42.24072" lon="3.22805">
        <ele>34.799999237061</ele>
        <time>2015-05-07T08:53:12Z</time>
      </trkpt>
      <trkpt lat="42.24073" lon="3.22805">
        <ele>34.799999237061</ele>
        <time>2015-05-07T08:53:13Z</time>
      </trkpt>
      <trkpt lat="42.24073" lon="3.22807">
        <ele>34.599998474121</ele>
        <time>2015-05-07T08:53:16Z</time>
      </trkpt>
      <trkpt lat="42.24073" lon="3.22807">
        <ele>34</ele>
        <time>2015-05-07T08:53:18Z</time>
      </trkpt>
      <trkpt lat="42.24073" lon="3.22807">
        <ele>33.400001525879</ele>
        <time>2015-05-07T08:53:21Z</time>
      </trkpt>
      <trkpt lat="42.24073" lon="3.22807">
        <ele>33</ele>
        <time>2015-05-07T08:53:25Z</time>
      </trkpt>
      <trkpt lat="42.24073" lon="3.22808">
        <ele>33.400001525879</ele>
        <time>2015-05-07T08:53:30Z</time>
      </trkpt>
      <trkpt lat="42.24073" lon="3.22808">
        <ele>33.200000762939</ele>
        <time>2015-05-07T08:53:34Z</time>
      </trkpt>
      <trkpt lat="42.24073" lon="3.22808">
        <ele>33.200000762939</ele>
        <time>2015-05-07T08:53:37Z</time>
      </trkpt>
      <trkpt lat="42.24077" lon="3.22808">
        <ele>33.200000762939</ele>
        <time>2015-05-07T08:53:39Z</time>
      </trkpt>
      <trkpt lat="42.24082" lon="3.22802">
        <ele>32.200000762939</ele>
        <time>2015-05-07T08:53:43Z</time>
      </trkpt>
      <trkpt lat="42.24083" lon="3.22801">
        <ele>32</ele>
        <time>2015-05-07T08:53:44Z</time>
      </trkpt>
      <trkpt lat="42.24083" lon="3.228">
        <ele>31.60000038147</ele>
        <time>2015-05-07T08:53:45Z</time>
      </trkpt>
      <trkpt lat="42.24084" lon="3.22799">
        <ele>31.39999961853</ele>
        <time>2015-05-07T08:53:46Z</time>
      </trkpt>
      <trkpt lat="42.24086" lon="3.22799">
        <ele>31</ele>
        <time>2015-05-07T08:53:47Z</time>
      </trkpt>
      <trkpt lat="42.2409" lon="3.22795">
        <ele>30.60000038147</ele>
        <time>2015-05-07T08:53:50Z</time>
      </trkpt>
      <trkpt lat="42.24094" lon="3.22793">
        <ele>30.39999961853</ele>
        <time>2015-05-07T08:53:52Z</time>
      </trkpt>
      <trkpt lat="42.24095" lon="3.22791">
        <ele>30</ele>
        <time>2015-05-07T08:53:53Z</time>
      </trkpt>
      <trkpt lat="42.24098" lon="3.22786">
        <ele>29.39999961853</ele>
        <time>2015-05-07T08:53:55Z</time>
      </trkpt>
      <trkpt lat="42.24103" lon="3.22778">
        <ele>29</ele>
        <time>2015-05-07T08:53:59Z</time>
      </trkpt>
      <trkpt lat="42.24109" lon="3.22768">
        <ele>29.799999237061</ele>
        <time>2015-05-07T08:54:04Z</time>
      </trkpt>
      <trkpt lat="42.24111" lon="3.22765">
        <ele>30</ele>
        <time>2015-05-07T08:54:05Z</time>
      </trkpt>
      <trkpt lat="42.24118" lon="3.22757">
        <ele>31</ele>
        <time>2015-05-07T08:54:09Z</time>
      </trkpt>
      <trkpt lat="42.24122" lon="3.22754">
        <ele>31</ele>
        <time>2015-05-07T08:54:11Z</time>
      </trkpt>
      <trkpt lat="42.24125" lon="3.22747">
        <ele>31.200000762939</ele>
        <time>2015-05-07T08:54:14Z</time>
      </trkpt>
      <trkpt lat="42.24125" lon="3.22742">
        <ele>31.39999961853</ele>
        <time>2015-05-07T08:54:16Z</time>
      </trkpt>
      <trkpt lat="42.24126" lon="3.2274">
        <ele>31.60000038147</ele>
        <time>2015-05-07T08:54:17Z</time>
      </trkpt>
      <trkpt lat="42.24128" lon="3.22736">
        <ele>32</ele>
        <time>2015-05-07T08:54:19Z</time>
      </trkpt>
      <trkpt lat="42.24128" lon="3.22734">
        <ele>32.400001525879</ele>
        <time>2015-05-07T08:54:20Z</time>
      </trkpt>
      <trkpt lat="42.24129" lon="3.22729">
        <ele>32.799999237061</ele>
        <time>2015-05-07T08:54:22Z</time>
      </trkpt>
      <trkpt lat="42.24131" lon="3.22727">
        <ele>33.400001525879</ele>
        <time>2015-05-07T08:54:23Z</time>
      </trkpt>
      <trkpt lat="42.24133" lon="3.22722">
        <ele>34.200000762939</ele>
        <time>2015-05-07T08:54:25Z</time>
      </trkpt>
      <trkpt lat="42.24134" lon="3.22719">
        <ele>34.599998474121</ele>
        <time>2015-05-07T08:54:26Z</time>
      </trkpt>
      <trkpt lat="42.24142" lon="3.22703">
        <ele>34.799999237061</ele>
        <time>2015-05-07T08:54:32Z</time>
      </trkpt>
      <trkpt lat="42.24145" lon="3.22692">
        <ele>35</ele>
        <time>2015-05-07T08:54:36Z</time>
      </trkpt>
      <trkpt lat="42.24149" lon="3.22677">
        <ele>35.400001525879</ele>
        <time>2015-05-07T08:54:41Z</time>
      </trkpt>
      <trkpt lat="42.24152" lon="3.22669">
        <ele>35.599998474121</ele>
        <time>2015-05-07T08:54:44Z</time>
      </trkpt>
      <trkpt lat="42.24153" lon="3.22664">
        <ele>35.799999237061</ele>
        <time>2015-05-07T08:54:46Z</time>
      </trkpt>
      <trkpt lat="42.24155" lon="3.22661">
        <ele>36</ele>
        <time>2015-05-07T08:54:47Z</time>
      </trkpt>
      <trkpt lat="42.24157" lon="3.22653">
        <ele>36.599998474121</ele>
        <time>2015-05-07T08:54:50Z</time>
      </trkpt>
      <trkpt lat="42.24158" lon="3.22648">
        <ele>36.799999237061</ele>
        <time>2015-05-07T08:54:52Z</time>
      </trkpt>
      <trkpt lat="42.24158" lon="3.22643">
        <ele>37</ele>
        <time>2015-05-07T08:54:54Z</time>
      </trkpt>
      <trkpt lat="42.24159" lon="3.2264">
        <ele>37.200000762939</ele>
        <time>2015-05-07T08:54:55Z</time>
      </trkpt>
      <trkpt lat="42.24161" lon="3.22635">
        <ele>37.599998474121</ele>
        <time>2015-05-07T08:54:57Z</time>
      </trkpt>
      <trkpt lat="42.24165" lon="3.22628">
        <ele>38</ele>
        <time>2015-05-07T08:55:00Z</time>
      </trkpt>
      <trkpt lat="42.2417" lon="3.22625">
        <ele>38.200000762939</ele>
        <time>2015-05-07T08:55:02Z</time>
      </trkpt>
      <trkpt lat="42.24181" lon="3.22614">
        <ele>38</ele>
        <time>2015-05-07T08:55:08Z</time>
      </trkpt>
      <trkpt lat="42.24195" lon="3.22606">
        <ele>37.400001525879</ele>
        <time>2015-05-07T08:55:15Z</time>
      </trkpt>
      <trkpt lat="42.242" lon="3.22604">
        <ele>37.200000762939</ele>
        <time>2015-05-07T08:55:18Z</time>
      </trkpt>
      <trkpt lat="42.24204" lon="3.22602">
        <ele>37.200000762939</ele>
        <time>2015-05-07T08:55:20Z</time>
      </trkpt>
      <trkpt lat="42.24213" lon="3.22602">
        <ele>36.799999237061</ele>
        <time>2015-05-07T08:55:25Z</time>
      </trkpt>
      <trkpt lat="42.24216" lon="3.22607">
        <ele>36.400001525879</ele>
        <time>2015-05-07T08:55:28Z</time>
      </trkpt>
      <trkpt lat="42.24219" lon="3.2261">
        <ele>35.799999237061</ele>
        <time>2015-05-07T08:55:30Z</time>
      </trkpt>
      <trkpt lat="42.2422" lon="3.22612">
        <ele>35.400001525879</ele>
        <time>2015-05-07T08:55:31Z</time>
      </trkpt>
      <trkpt lat="42.24223" lon="3.22614">
        <ele>34.200000762939</ele>
        <time>2015-05-07T08:55:33Z</time>
      </trkpt>
      <trkpt lat="42.24226" lon="3.22617">
        <ele>32.799999237061</ele>
        <time>2015-05-07T08:55:35Z</time>
      </trkpt>
      <trkpt lat="42.24227" lon="3.22619">
        <ele>32.200000762939</ele>
        <time>2015-05-07T08:55:36Z</time>
      </trkpt>
      <trkpt lat="42.24228" lon="3.22621">
        <ele>31.39999961853</ele>
        <time>2015-05-07T08:55:37Z</time>
      </trkpt>
      <trkpt lat="42.24232" lon="3.22625">
        <ele>30.39999961853</ele>
        <time>2015-05-07T08:55:39Z</time>
      </trkpt>
      <trkpt lat="42.24234" lon="3.22627">
        <ele>29.799999237061</ele>
        <time>2015-05-07T08:55:40Z</time>
      </trkpt>
      <trkpt lat="42.24237" lon="3.22629">
        <ele>29.200000762939</ele>
        <time>2015-05-07T08:55:41Z</time>
      </trkpt>
      <trkpt lat="42.24239" lon="3.2263">
        <ele>28.39999961853</ele>
        <time>2015-05-07T08:55:42Z</time>
      </trkpt>
      <trkpt lat="42.24241" lon="3.2263">
        <ele>27.60000038147</ele>
        <time>2015-05-07T08:55:43Z</time>
      </trkpt>
      <trkpt lat="42.24243" lon="3.2263">
        <ele>27</ele>
        <time>2015-05-07T08:55:44Z</time>
      </trkpt>
      <trkpt lat="42.24247" lon="3.22628">
        <ele>26.39999961853</ele>
        <time>2015-05-07T08:55:46Z</time>
      </trkpt>
      <trkpt lat="42.24254" lon="3.22625">
        <ele>27</ele>
        <time>2015-05-07T08:55:50Z</time>
      </trkpt>
      <trkpt lat="42.24259" lon="3.22625">
        <ele>27.39999961853</ele>
        <time>2015-05-07T08:55:53Z</time>
      </trkpt>
      <trkpt lat="42.24262" lon="3.22623">
        <ele>28.200000762939</ele>
        <time>2015-05-07T08:55:55Z</time>
      </trkpt>
      <trkpt lat="42.24263" lon="3.22622">
        <ele>28.60000038147</ele>
        <time>2015-05-07T08:55:56Z</time>
      </trkpt>
      <trkpt lat="42.24267" lon="3.22619">
        <ele>29.60000038147</ele>
        <time>2015-05-07T08:55:59Z</time>
      </trkpt>
      <trkpt lat="42.24268" lon="3.22617">
        <ele>30</ele>
        <time>2015-05-07T08:56:00Z</time>
      </trkpt>
      <trkpt lat="42.24271" lon="3.22615">
        <ele>30.60000038147</ele>
        <time>2015-05-07T08:56:02Z</time>
      </trkpt>
      <trkpt lat="42.24274" lon="3.22611">
        <ele>31.60000038147</ele>
        <time>2015-05-07T08:56:05Z</time>
      </trkpt>
      <trkpt lat="42.24275" lon="3.2261">
        <ele>31.799999237061</ele>
        <time>2015-05-07T08:56:06Z</time>
      </trkpt>
      <trkpt lat="42.24281" lon="3.22603">
        <ele>33.200000762939</ele>
        <time>2015-05-07T08:56:10Z</time>
      </trkpt>
      <trkpt lat="42.24287" lon="3.22596">
        <ele>34.400001525879</ele>
        <time>2015-05-07T08:56:14Z</time>
      </trkpt>
      <trkpt lat="42.24288" lon="3.22594">
        <ele>34.400001525879</ele>
        <time>2015-05-07T08:56:15Z</time>
      </trkpt>
      <trkpt lat="42.2429" lon="3.2259">
        <ele>34.400001525879</ele>
        <time>2015-05-07T08:56:17Z</time>
      </trkpt>
      <trkpt lat="42.24294" lon="3.22586">
        <ele>35</ele>
        <time>2015-05-07T08:56:19Z</time>
      </trkpt>
      <trkpt lat="42.24297" lon="3.22583">
        <ele>35.599998474121</ele>
        <time>2015-05-07T08:56:21Z</time>
      </trkpt>
      <trkpt lat="42.243" lon="3.22577">
        <ele>36.400001525879</ele>
        <time>2015-05-07T08:56:24Z</time>
      </trkpt>
      <trkpt lat="42.24305" lon="3.22573">
        <ele>36.599998474121</ele>
        <time>2015-05-07T08:56:27Z</time>
      </trkpt>
      <trkpt lat="42.24311" lon="3.22566">
        <ele>36.799999237061</ele>
        <time>2015-05-07T08:56:31Z</time>
      </trkpt>
      <trkpt lat="42.24313" lon="3.22564">
        <ele>36.799999237061</ele>
        <time>2015-05-07T08:56:32Z</time>
      </trkpt>
      <trkpt lat="42.24314" lon="3.22563">
        <ele>36.799999237061</ele>
        <time>2015-05-07T08:56:33Z</time>
      </trkpt>
      <trkpt lat="42.24321" lon="3.22561">
        <ele>36.400001525879</ele>
        <time>2015-05-07T08:56:36Z</time>
      </trkpt>
      <trkpt lat="42.24328" lon="3.22561">
        <ele>35.200000762939</ele>
        <time>2015-05-07T08:56:40Z</time>
      </trkpt>
      <trkpt lat="42.2433" lon="3.2256">
        <ele>34.799999237061</ele>
        <time>2015-05-07T08:56:41Z</time>
      </trkpt>
      <trkpt lat="42.24334" lon="3.22559">
        <ele>33.799999237061</ele>
        <time>2015-05-07T08:56:43Z</time>
      </trkpt>
      <trkpt lat="42.24341" lon="3.22556">
        <ele>32.799999237061</ele>
        <time>2015-05-07T08:56:46Z</time>
      </trkpt>
      <trkpt lat="42.24343" lon="3.22554">
        <ele>32.400001525879</ele>
        <time>2015-05-07T08:56:47Z</time>
      </trkpt>
      <trkpt lat="42.24348" lon="3.22551">
        <ele>31.200000762939</ele>
        <time>2015-05-07T08:56:49Z</time>
      </trkpt>
      <trkpt lat="42.24357" lon="3.22546">
        <ele>29.799999237061</ele>
        <time>2015-05-07T08:56:53Z</time>
      </trkpt>
      <trkpt lat="42.24364" lon="3.22538">
        <ele>28.60000038147</ele>
        <time>2015-05-07T08:56:57Z</time>
      </trkpt>
      <trkpt lat="42.24369" lon="3.22535">
        <ele>27.799999237061</ele>
        <time>2015-05-07T08:56:59Z</time>
      </trkpt>
      <trkpt lat="42.24371" lon="3.22534">
        <ele>27.39999961853</ele>
        <time>2015-05-07T08:57:00Z</time>
      </trkpt>
      <trkpt lat="42.24373" lon="3.22534">
        <ele>27.39999961853</ele>
        <time>2015-05-07T08:57:01Z</time>
      </trkpt>
      <trkpt lat="42.24377" lon="3.22532">
        <ele>27.39999961853</ele>
        <time>2015-05-07T08:57:04Z</time>
      </trkpt>
      <trkpt lat="42.2438" lon="3.22533">
        <ele>28</ele>
        <time>2015-05-07T08:57:06Z</time>
      </trkpt>
      <trkpt lat="42.24386" lon="3.22538">
        <ele>28</ele>
        <time>2015-05-07T08:57:10Z</time>
      </trkpt>
      <trkpt lat="42.24392" lon="3.22547">
        <ele>26.60000038147</ele>
        <time>2015-05-07T08:57:14Z</time>
      </trkpt>
      <trkpt lat="42.24393" lon="3.22549">
        <ele>26</ele>
        <time>2015-05-07T08:57:15Z</time>
      </trkpt>
      <trkpt lat="42.24394" lon="3.22556">
        <ele>24.799999237061</ele>
        <time>2015-05-07T08:57:18Z</time>
      </trkpt>
      <trkpt lat="42.24396" lon="3.2256">
        <ele>24</ele>
        <time>2015-05-07T08:57:20Z</time>
      </trkpt>
      <trkpt lat="42.24397" lon="3.22561">
        <ele>23.60000038147</ele>
        <time>2015-05-07T08:57:21Z</time>
      </trkpt>
      <trkpt lat="42.24398" lon="3.22562">
        <ele>23.39999961853</ele>
        <time>2015-05-07T08:57:22Z</time>
      </trkpt>
      <trkpt lat="42.24401" lon="3.22565">
        <ele>22.200000762939</ele>
        <time>2015-05-07T08:57:24Z</time>
      </trkpt>
      <trkpt lat="42.24402" lon="3.22565">
        <ele>21.799999237061</ele>
        <time>2015-05-07T08:57:25Z</time>
      </trkpt>
      <trkpt lat="42.24404" lon="3.22568">
        <ele>20.799999237061</ele>
        <time>2015-05-07T08:57:27Z</time>
      </trkpt>
      <trkpt lat="42.24405" lon="3.2257">
        <ele>20</ele>
        <time>2015-05-07T08:57:29Z</time>
      </trkpt>
      <trkpt lat="42.24406" lon="3.22572">
        <ele>19.39999961853</ele>
        <time>2015-05-07T08:57:30Z</time>
      </trkpt>
      <trkpt lat="42.24408" lon="3.22574">
        <ele>18.60000038147</ele>
        <time>2015-05-07T08:57:32Z</time>
      </trkpt>
      <trkpt lat="42.24409" lon="3.22576">
        <ele>18</ele>
        <time>2015-05-07T08:57:33Z</time>
      </trkpt>
      <trkpt lat="42.24412" lon="3.22582">
        <ele>16.799999237061</ele>
        <time>2015-05-07T08:57:36Z</time>
      </trkpt>
      <trkpt lat="42.24411" lon="3.22584">
        <ele>16.39999961853</ele>
        <time>2015-05-07T08:57:37Z</time>
      </trkpt>
      <trkpt lat="42.24411" lon="3.22586">
        <ele>15.800000190735</ele>
        <time>2015-05-07T08:57:38Z</time>
      </trkpt>
      <trkpt lat="42.24413" lon="3.22587">
        <ele>15.199999809265</ele>
        <time>2015-05-07T08:57:39Z</time>
      </trkpt>
      <trkpt lat="42.24413" lon="3.22591">
        <ele>14</ele>
        <time>2015-05-07T08:57:41Z</time>
      </trkpt>
      <trkpt lat="42.24414" lon="3.22594">
        <ele>12.60000038147</ele>
        <time>2015-05-07T08:57:43Z</time>
      </trkpt>
      <trkpt lat="42.24413" lon="3.22595">
        <ele>11.199999809265</ele>
        <time>2015-05-07T08:57:46Z</time>
      </trkpt>
      <trkpt lat="42.24416" lon="3.22597">
        <ele>10.199999809265</ele>
        <time>2015-05-07T08:57:49Z</time>
      </trkpt>
      <trkpt lat="42.24415" lon="3.22599">
        <ele>9.1999998092651</ele>
        <time>2015-05-07T08:57:51Z</time>
      </trkpt>
      <trkpt lat="42.24415" lon="3.22599">
        <ele>9</ele>
        <time>2015-05-07T08:57:52Z</time>
      </trkpt>
      <trkpt lat="42.24416" lon="3.22603">
        <ele>8</ele>
        <time>2015-05-07T08:57:55Z</time>
      </trkpt>
      <trkpt lat="42.24416" lon="3.22603">
        <ele>7.5999999046326</ele>
        <time>2015-05-07T08:57:56Z</time>
      </trkpt>
      <trkpt lat="42.24416" lon="3.22603">
        <ele>8</ele>
        <time>2015-05-07T08:58:01Z</time>
      </trkpt>
      <trkpt lat="42.24416" lon="3.22602">
        <ele>8.1999998092651</ele>
        <time>2015-05-07T08:58:11Z</time>
      </trkpt>
      <trkpt lat="42.24418" lon="3.22603">
        <ele>8.3999996185303</ele>
        <time>2015-05-07T08:58:17Z</time>
      </trkpt>
      <trkpt lat="42.24419" lon="3.22602">
        <ele>9</ele>
        <time>2015-05-07T08:58:20Z</time>
      </trkpt>
      <trkpt lat="42.2442" lon="3.22602">
        <ele>10.199999809265</ele>
        <time>2015-05-07T08:58:25Z</time>
      </trkpt>
      <trkpt lat="42.2442" lon="3.22602">
        <ele>10.39999961853</ele>
        <time>2015-05-07T08:58:26Z</time>
      </trkpt>
      <trkpt lat="42.2442" lon="3.22602">
        <ele>10.800000190735</ele>
        <time>2015-05-07T08:58:39Z</time>
      </trkpt>
      <trkpt lat="42.24419" lon="3.22601">
        <ele>10.60000038147</ele>
        <time>2015-05-07T08:58:50Z</time>
      </trkpt>
      <trkpt lat="42.24419" lon="3.226">
        <ele>10.60000038147</ele>
        <time>2015-05-07T08:58:54Z</time>
      </trkpt>
      <trkpt lat="42.2442" lon="3.22601">
        <ele>10.800000190735</ele>
        <time>2015-05-07T08:58:58Z</time>
      </trkpt>
      <trkpt lat="42.2442" lon="3.22601">
        <ele>11</ele>
        <time>2015-05-07T08:59:00Z</time>
      </trkpt>
      <trkpt lat="42.24421" lon="3.22601">
        <ele>10.800000190735</ele>
        <time>2015-05-07T08:59:04Z</time>
      </trkpt>
      <trkpt lat="42.24423" lon="3.22602">
        <ele>11</ele>
        <time>2015-05-07T08:59:08Z</time>
      </trkpt>
      <trkpt lat="42.24423" lon="3.22604">
        <ele>11.39999961853</ele>
        <time>2015-05-07T08:59:09Z</time>
      </trkpt>
      <trkpt lat="42.24426" lon="3.22608">
        <ele>12.800000190735</ele>
        <time>2015-05-07T08:59:12Z</time>
      </trkpt>
      <trkpt lat="42.24427" lon="3.22609">
        <ele>13.39999961853</ele>
        <time>2015-05-07T08:59:13Z</time>
      </trkpt>
      <trkpt lat="42.24427" lon="3.22611">
        <ele>13.800000190735</ele>
        <time>2015-05-07T08:59:14Z</time>
      </trkpt>
      <trkpt lat="42.24428" lon="3.22613">
        <ele>14.39999961853</ele>
        <time>2015-05-07T08:59:15Z</time>
      </trkpt>
      <trkpt lat="42.24429" lon="3.22616">
        <ele>15</ele>
        <time>2015-05-07T08:59:17Z</time>
      </trkpt>
      <trkpt lat="42.2443" lon="3.22619">
        <ele>15.800000190735</ele>
        <time>2015-05-07T08:59:19Z</time>
      </trkpt>
      <trkpt lat="42.24431" lon="3.22622">
        <ele>16</ele>
        <time>2015-05-07T08:59:20Z</time>
      </trkpt>
      <trkpt lat="42.24433" lon="3.22626">
        <ele>16.39999961853</ele>
        <time>2015-05-07T08:59:22Z</time>
      </trkpt>
      <trkpt lat="42.24437" lon="3.22634">
        <ele>16.60000038147</ele>
        <time>2015-05-07T08:59:26Z</time>
      </trkpt>
      <trkpt lat="42.24439" lon="3.22638">
        <ele>17.39999961853</ele>
        <time>2015-05-07T08:59:29Z</time>
      </trkpt>
      <trkpt lat="42.2444" lon="3.22639">
        <ele>17.799999237061</ele>
        <time>2015-05-07T08:59:30Z</time>
      </trkpt>
      <trkpt lat="42.24442" lon="3.22641">
        <ele>18.799999237061</ele>
        <time>2015-05-07T08:59:32Z</time>
      </trkpt>
      <trkpt lat="42.24442" lon="3.22642">
        <ele>19.799999237061</ele>
        <time>2015-05-07T08:59:34Z</time>
      </trkpt>
      <trkpt lat="42.24442" lon="3.22645">
        <ele>20.200000762939</ele>
        <time>2015-05-07T08:59:35Z</time>
      </trkpt>
      <trkpt lat="42.24442" lon="3.22652">
        <ele>21.200000762939</ele>
        <time>2015-05-07T08:59:38Z</time>
      </trkpt>
      <trkpt lat="42.24442" lon="3.22654">
        <ele>21.39999961853</ele>
        <time>2015-05-07T08:59:39Z</time>
      </trkpt>
      <trkpt lat="42.24443" lon="3.22659">
        <ele>21.60000038147</ele>
        <time>2015-05-07T08:59:41Z</time>
      </trkpt>
      <trkpt lat="42.24443" lon="3.22661">
        <ele>21.799999237061</ele>
        <time>2015-05-07T08:59:42Z</time>
      </trkpt>
      <trkpt lat="42.24444" lon="3.22665">
        <ele>22.200000762939</ele>
        <time>2015-05-07T08:59:44Z</time>
      </trkpt>
      <trkpt lat="42.24444" lon="3.22667">
        <ele>22.39999961853</ele>
        <time>2015-05-07T08:59:45Z</time>
      </trkpt>
      <trkpt lat="42.24445" lon="3.22669">
        <ele>22.60000038147</ele>
        <time>2015-05-07T08:59:46Z</time>
      </trkpt>
      <trkpt lat="42.24446" lon="3.22674">
        <ele>23.200000762939</ele>
        <time>2015-05-07T08:59:48Z</time>
      </trkpt>
      <trkpt lat="42.24447" lon="3.22676">
        <ele>23.39999961853</ele>
        <time>2015-05-07T08:59:49Z</time>
      </trkpt>
      <trkpt lat="42.24447" lon="3.22677">
        <ele>23.799999237061</ele>
        <time>2015-05-07T08:59:50Z</time>
      </trkpt>
      <trkpt lat="42.24448" lon="3.22679">
        <ele>24.39999961853</ele>
        <time>2015-05-07T08:59:52Z</time>
      </trkpt>
      <trkpt lat="42.24448" lon="3.2268">
        <ele>24.799999237061</ele>
        <time>2015-05-07T08:59:53Z</time>
      </trkpt>
      <trkpt lat="42.24449" lon="3.22683">
        <ele>25.39999961853</ele>
        <time>2015-05-07T08:59:56Z</time>
      </trkpt>
      <trkpt lat="42.2445" lon="3.22684">
        <ele>25.799999237061</ele>
        <time>2015-05-07T08:59:58Z</time>
      </trkpt>
      <trkpt lat="42.2445" lon="3.22685">
        <ele>26</ele>
        <time>2015-05-07T08:59:59Z</time>
      </trkpt>
      <trkpt lat="42.24451" lon="3.22689">
        <ele>27.200000762939</ele>
        <time>2015-05-07T09:00:03Z</time>
      </trkpt>
      <trkpt lat="42.24451" lon="3.2269">
        <ele>27.39999961853</ele>
        <time>2015-05-07T09:00:04Z</time>
      </trkpt>
      <trkpt lat="42.24451" lon="3.22695">
        <ele>28.200000762939</ele>
        <time>2015-05-07T09:00:08Z</time>
      </trkpt>
      <trkpt lat="42.24451" lon="3.22696">
        <ele>28.60000038147</ele>
        <time>2015-05-07T09:00:09Z</time>
      </trkpt>
      <trkpt lat="42.24451" lon="3.22698">
        <ele>29</ele>
        <time>2015-05-07T09:00:10Z</time>
      </trkpt>
      <trkpt lat="42.24451" lon="3.227">
        <ele>29.39999961853</ele>
        <time>2015-05-07T09:00:12Z</time>
      </trkpt>
      <trkpt lat="42.24449" lon="3.22705">
        <ele>29.799999237061</ele>
        <time>2015-05-07T09:00:15Z</time>
      </trkpt>
      <trkpt lat="42.24448" lon="3.22706">
        <ele>30</ele>
        <time>2015-05-07T09:00:16Z</time>
      </trkpt>
      <trkpt lat="42.24448" lon="3.22708">
        <ele>30.39999961853</ele>
        <time>2015-05-07T09:00:18Z</time>
      </trkpt>
      <trkpt lat="42.24446" lon="3.22712">
        <ele>30.799999237061</ele>
        <time>2015-05-07T09:00:21Z</time>
      </trkpt>
      <trkpt lat="42.24445" lon="3.22716">
        <ele>31.60000038147</ele>
        <time>2015-05-07T09:00:24Z</time>
      </trkpt>
      <trkpt lat="42.24444" lon="3.22717">
        <ele>31.799999237061</ele>
        <time>2015-05-07T09:00:25Z</time>
      </trkpt>
      <trkpt lat="42.24443" lon="3.22719">
        <ele>32.200000762939</ele>
        <time>2015-05-07T09:00:26Z</time>
      </trkpt>
      <trkpt lat="42.24443" lon="3.22721">
        <ele>32.200000762939</ele>
        <time>2015-05-07T09:00:27Z</time>
      </trkpt>
      <trkpt lat="42.24442" lon="3.22724">
        <ele>32.599998474121</ele>
        <time>2015-05-07T09:00:29Z</time>
      </trkpt>
      <trkpt lat="42.24439" lon="3.22729">
        <ele>32.799999237061</ele>
        <time>2015-05-07T09:00:33Z</time>
      </trkpt>
      <trkpt lat="42.24439" lon="3.22729">
        <ele>32.799999237061</ele>
        <time>2015-05-07T09:00:34Z</time>
      </trkpt>
      <trkpt lat="42.24438" lon="3.2273">
        <ele>32.799999237061</ele>
        <time>2015-05-07T09:00:35Z</time>
      </trkpt>
      <trkpt lat="42.24438" lon="3.22731">
        <ele>32.799999237061</ele>
        <time>2015-05-07T09:00:36Z</time>
      </trkpt>
      <trkpt lat="42.24438" lon="3.2273">
        <ele>33</ele>
        <time>2015-05-07T09:00:37Z</time>
      </trkpt>
      <trkpt lat="42.24438" lon="3.22731">
        <ele>33</ele>
        <time>2015-05-07T09:00:38Z</time>
      </trkpt>
      <trkpt lat="42.24438" lon="3.22731">
        <ele>33</ele>
        <time>2015-05-07T09:00:39Z</time>
      </trkpt>
      <trkpt lat="42.24438" lon="3.22731">
        <ele>33</ele>
        <time>2015-05-07T09:00:41Z</time>
      </trkpt>
      <trkpt lat="42.24438" lon="3.22731">
        <ele>33</ele>
        <time>2015-05-07T09:00:42Z</time>
      </trkpt>
      <trkpt lat="42.24438" lon="3.22733">
        <ele>33</ele>
        <time>2015-05-07T09:00:47Z</time>
      </trkpt>
      <trkpt lat="42.24438" lon="3.22733">
        <ele>33</ele>
        <time>2015-05-07T09:00:48Z</time>
      </trkpt>
      <trkpt lat="42.24437" lon="3.22735">
        <ele>33.400001525879</ele>
        <time>2015-05-07T09:00:56Z</time>
      </trkpt>
      <trkpt lat="42.24435" lon="3.22742">
        <ele>33.200000762939</ele>
        <time>2015-05-07T09:01:02Z</time>
      </trkpt>
      <trkpt lat="42.24434" lon="3.22747">
        <ele>32.799999237061</ele>
        <time>2015-05-07T09:01:07Z</time>
      </trkpt>
      <trkpt lat="42.24432" lon="3.22751">
        <ele>32.799999237061</ele>
        <time>2015-05-07T09:01:10Z</time>
      </trkpt>
      <trkpt lat="42.2443" lon="3.22752">
        <ele>32.799999237061</ele>
        <time>2015-05-07T09:01:11Z</time>
      </trkpt>
      <trkpt lat="42.24429" lon="3.22753">
        <ele>32.599998474121</ele>
        <time>2015-05-07T09:01:12Z</time>
      </trkpt>
      <trkpt lat="42.24427" lon="3.22761">
        <ele>32</ele>
        <time>2015-05-07T09:01:15Z</time>
      </trkpt>
      <trkpt lat="42.24426" lon="3.22763">
        <ele>31.60000038147</ele>
        <time>2015-05-07T09:01:16Z</time>
      </trkpt>
      <trkpt lat="42.24425" lon="3.22765">
        <ele>31.39999961853</ele>
        <time>2015-05-07T09:01:17Z</time>
      </trkpt>
      <trkpt lat="42.24422" lon="3.22767">
        <ele>31</ele>
        <time>2015-05-07T09:01:18Z</time>
      </trkpt>
      <trkpt lat="42.24421" lon="3.2277">
        <ele>30.799999237061</ele>
        <time>2015-05-07T09:01:19Z</time>
      </trkpt>
      <trkpt lat="42.24421" lon="3.22773">
        <ele>30.39999961853</ele>
        <time>2015-05-07T09:01:20Z</time>
      </trkpt>
      <trkpt lat="42.24421" lon="3.22776">
        <ele>30.200000762939</ele>
        <time>2015-05-07T09:01:21Z</time>
      </trkpt>
      <trkpt lat="42.2442" lon="3.22778">
        <ele>30</ele>
        <time>2015-05-07T09:01:22Z</time>
      </trkpt>
      <trkpt lat="42.24422" lon="3.22782">
        <ele>29.60000038147</ele>
        <time>2015-05-07T09:01:23Z</time>
      </trkpt>
      <trkpt lat="42.24422" lon="3.22785">
        <ele>29.39999961853</ele>
        <time>2015-05-07T09:01:24Z</time>
      </trkpt>
      <trkpt lat="42.24427" lon="3.22791">
        <ele>30.200000762939</ele>
        <time>2015-05-07T09:01:28Z</time>
      </trkpt>
      <trkpt lat="42.24427" lon="3.22791">
        <ele>30.39999961853</ele>
        <time>2015-05-07T09:01:29Z</time>
      </trkpt>
      <trkpt lat="42.24428" lon="3.22791">
        <ele>30.60000038147</ele>
        <time>2015-05-07T09:01:30Z</time>
      </trkpt>
      <trkpt lat="42.24429" lon="3.22793">
        <ele>31.39999961853</ele>
        <time>2015-05-07T09:01:32Z</time>
      </trkpt>
      <trkpt lat="42.24429" lon="3.22796">
        <ele>32</ele>
        <time>2015-05-07T09:01:33Z</time>
      </trkpt>
      <trkpt lat="42.24429" lon="3.22798">
        <ele>32.599998474121</ele>
        <time>2015-05-07T09:01:34Z</time>
      </trkpt>
      <trkpt lat="42.24429" lon="3.228">
        <ele>33.200000762939</ele>
        <time>2015-05-07T09:01:35Z</time>
      </trkpt>
      <trkpt lat="42.24431" lon="3.22806">
        <ele>34.799999237061</ele>
        <time>2015-05-07T09:01:38Z</time>
      </trkpt>
      <trkpt lat="42.24431" lon="3.2281">
        <ele>35.799999237061</ele>
        <time>2015-05-07T09:01:40Z</time>
      </trkpt>
      <trkpt lat="42.24432" lon="3.22812">
        <ele>36.200000762939</ele>
        <time>2015-05-07T09:01:41Z</time>
      </trkpt>
      <trkpt lat="42.24434" lon="3.22815">
        <ele>37.200000762939</ele>
        <time>2015-05-07T09:01:43Z</time>
      </trkpt>
      <trkpt lat="42.24436" lon="3.22816">
        <ele>37.799999237061</ele>
        <time>2015-05-07T09:01:44Z</time>
      </trkpt>
      <trkpt lat="42.24436" lon="3.22818">
        <ele>38.599998474121</ele>
        <time>2015-05-07T09:01:45Z</time>
      </trkpt>
      <trkpt lat="42.24437" lon="3.22823">
        <ele>40</ele>
        <time>2015-05-07T09:01:47Z</time>
      </trkpt>
      <trkpt lat="42.24436" lon="3.22829">
        <ele>41.599998474121</ele>
        <time>2015-05-07T09:01:49Z</time>
      </trkpt>
      <trkpt lat="42.24436" lon="3.22834">
        <ele>43</ele>
        <time>2015-05-07T09:01:51Z</time>
      </trkpt>
      <trkpt lat="42.24435" lon="3.2284">
        <ele>44.200000762939</ele>
        <time>2015-05-07T09:01:53Z</time>
      </trkpt>
      <trkpt lat="42.24434" lon="3.22849">
        <ele>45.200000762939</ele>
        <time>2015-05-07T09:01:56Z</time>
      </trkpt>
      <trkpt lat="42.24433" lon="3.22851">
        <ele>45.200000762939</ele>
        <time>2015-05-07T09:01:57Z</time>
      </trkpt>
      <trkpt lat="42.24433" lon="3.22853">
        <ele>45.400001525879</ele>
        <time>2015-05-07T09:01:58Z</time>
      </trkpt>
      <trkpt lat="42.24435" lon="3.22867">
        <ele>46.400001525879</ele>
        <time>2015-05-07T09:02:03Z</time>
      </trkpt>
      <trkpt lat="42.24434" lon="3.22873">
        <ele>47</ele>
        <time>2015-05-07T09:02:05Z</time>
      </trkpt>
      <trkpt lat="42.24434" lon="3.22876">
        <ele>47.200000762939</ele>
        <time>2015-05-07T09:02:06Z</time>
      </trkpt>
      <trkpt lat="42.24434" lon="3.22879">
        <ele>47.400001525879</ele>
        <time>2015-05-07T09:02:07Z</time>
      </trkpt>
      <trkpt lat="42.24434" lon="3.22882">
        <ele>47.599998474121</ele>
        <time>2015-05-07T09:02:08Z</time>
      </trkpt>
      <trkpt lat="42.24434" lon="3.22885">
        <ele>47.799999237061</ele>
        <time>2015-05-07T09:02:09Z</time>
      </trkpt>
      <trkpt lat="42.24435" lon="3.22888">
        <ele>47.799999237061</ele>
        <time>2015-05-07T09:02:10Z</time>
      </trkpt>
      <trkpt lat="42.24435" lon="3.2289">
        <ele>48</ele>
        <time>2015-05-07T09:02:11Z</time>
      </trkpt>
      <trkpt lat="42.24436" lon="3.22894">
        <ele>48</ele>
        <time>2015-05-07T09:02:13Z</time>
      </trkpt>
      <trkpt lat="42.24437" lon="3.22896">
        <ele>48.200000762939</ele>
        <time>2015-05-07T09:02:17Z</time>
      </trkpt>
      <trkpt lat="42.24437" lon="3.22897">
        <ele>48.400001525879</ele>
        <time>2015-05-07T09:02:18Z</time>
      </trkpt>
      <trkpt lat="42.24443" lon="3.22907">
        <ele>48</ele>
        <time>2015-05-07T09:02:24Z</time>
      </trkpt>
      <trkpt lat="42.24446" lon="3.22911">
        <ele>48</ele>
        <time>2015-05-07T09:02:26Z</time>
      </trkpt>
      <trkpt lat="42.24448" lon="3.22912">
        <ele>47.799999237061</ele>
        <time>2015-05-07T09:02:27Z</time>
      </trkpt>
      <trkpt lat="42.24453" lon="3.22915">
        <ele>47.200000762939</ele>
        <time>2015-05-07T09:02:30Z</time>
      </trkpt>
      <trkpt lat="42.24456" lon="3.22917">
        <ele>46.799999237061</ele>
        <time>2015-05-07T09:02:32Z</time>
      </trkpt>
      <trkpt lat="42.24457" lon="3.22917">
        <ele>46.799999237061</ele>
        <time>2015-05-07T09:02:34Z</time>
      </trkpt>
      <trkpt lat="42.24456" lon="3.22915">
        <ele>47.599998474121</ele>
        <time>2015-05-07T09:02:41Z</time>
      </trkpt>
      <trkpt lat="42.24456" lon="3.22916">
        <ele>47.799999237061</ele>
        <time>2015-05-07T09:02:43Z</time>
      </trkpt>
      <trkpt lat="42.24456" lon="3.22916">
        <ele>47.799999237061</ele>
        <time>2015-05-07T09:02:44Z</time>
      </trkpt>
      <trkpt lat="42.24456" lon="3.22916">
        <ele>47.599998474121</ele>
        <time>2015-05-07T09:02:51Z</time>
      </trkpt>
      <trkpt lat="42.24456" lon="3.22916">
        <ele>47.599998474121</ele>
        <time>2015-05-07T09:02:52Z</time>
      </trkpt>
      <trkpt lat="42.24456" lon="3.22916">
        <ele>47.599998474121</ele>
        <time>2015-05-07T09:02:59Z</time>
      </trkpt>
      <trkpt lat="42.24456" lon="3.22916">
        <ele>47.599998474121</ele>
        <time>2015-05-07T09:03:00Z</time>
      </trkpt>
      <trkpt lat="42.24456" lon="3.22917">
        <ele>47.599998474121</ele>
        <time>2015-05-07T09:03:06Z</time>
      </trkpt>
      <trkpt lat="42.24457" lon="3.22919">
        <ele>47.599998474121</ele>
        <time>2015-05-07T09:03:07Z</time>
      </trkpt>
      <trkpt lat="42.2446" lon="3.22922">
        <ele>47.200000762939</ele>
        <time>2015-05-07T09:03:10Z</time>
      </trkpt>
      <trkpt lat="42.2446" lon="3.22927">
        <ele>47</ele>
        <time>2015-05-07T09:03:12Z</time>
      </trkpt>
      <trkpt lat="42.2446" lon="3.2293">
        <ele>47</ele>
        <time>2015-05-07T09:03:13Z</time>
      </trkpt>
      <trkpt lat="42.24461" lon="3.22933">
        <ele>47.200000762939</ele>
        <time>2015-05-07T09:03:14Z</time>
      </trkpt>
      <trkpt lat="42.24462" lon="3.22938">
        <ele>46.799999237061</ele>
        <time>2015-05-07T09:03:16Z</time>
      </trkpt>
      <trkpt lat="42.24463" lon="3.22941">
        <ele>46.599998474121</ele>
        <time>2015-05-07T09:03:17Z</time>
      </trkpt>
      <trkpt lat="42.24463" lon="3.22944">
        <ele>46.400001525879</ele>
        <time>2015-05-07T09:03:18Z</time>
      </trkpt>
      <trkpt lat="42.24464" lon="3.22946">
        <ele>46.200000762939</ele>
        <time>2015-05-07T09:03:19Z</time>
      </trkpt>
      <trkpt lat="42.24465" lon="3.22947">
        <ele>46</ele>
        <time>2015-05-07T09:03:20Z</time>
      </trkpt>
      <trkpt lat="42.24466" lon="3.22949">
        <ele>45.799999237061</ele>
        <time>2015-05-07T09:03:21Z</time>
      </trkpt>
      <trkpt lat="42.24466" lon="3.22953">
        <ele>45.400001525879</ele>
        <time>2015-05-07T09:03:24Z</time>
      </trkpt>
      <trkpt lat="42.24465" lon="3.22954">
        <ele>45.200000762939</ele>
        <time>2015-05-07T09:03:25Z</time>
      </trkpt>
      <trkpt lat="42.24466" lon="3.22955">
        <ele>44.200000762939</ele>
        <time>2015-05-07T09:03:29Z</time>
      </trkpt>
      <trkpt lat="42.24469" lon="3.22955">
        <ele>43.799999237061</ele>
        <time>2015-05-07T09:03:31Z</time>
      </trkpt>
      <trkpt lat="42.24469" lon="3.22954">
        <ele>43.400001525879</ele>
        <time>2015-05-07T09:03:32Z</time>
      </trkpt>
      <trkpt lat="42.24471" lon="3.22953">
        <ele>43</ele>
        <time>2015-05-07T09:03:33Z</time>
      </trkpt>
      <trkpt lat="42.24474" lon="3.22954">
        <ele>42</ele>
        <time>2015-05-07T09:03:36Z</time>
      </trkpt>
      <trkpt lat="42.24477" lon="3.22957">
        <ele>40.599998474121</ele>
        <time>2015-05-07T09:03:39Z</time>
      </trkpt>
      <trkpt lat="42.24481" lon="3.2296">
        <ele>40</ele>
        <time>2015-05-07T09:03:42Z</time>
      </trkpt>
      <trkpt lat="42.24485" lon="3.22963">
        <ele>39.599998474121</ele>
        <time>2015-05-07T09:03:45Z</time>
      </trkpt>
      <trkpt lat="42.24488" lon="3.22964">
        <ele>39.400001525879</ele>
        <time>2015-05-07T09:03:47Z</time>
      </trkpt>
      <trkpt lat="42.2449" lon="3.22965">
        <ele>39.400001525879</ele>
        <time>2015-05-07T09:03:48Z</time>
      </trkpt>
      <trkpt lat="42.24492" lon="3.22967">
        <ele>40.200000762939</ele>
        <time>2015-05-07T09:03:51Z</time>
      </trkpt>
      <trkpt lat="42.24492" lon="3.22968">
        <ele>40.400001525879</ele>
        <time>2015-05-07T09:03:52Z</time>
      </trkpt>
      <trkpt lat="42.24495" lon="3.22974">
        <ele>39.799999237061</ele>
        <time>2015-05-07T09:03:56Z</time>
      </trkpt>
      <trkpt lat="42.24495" lon="3.22975">
        <ele>39.400001525879</ele>
        <time>2015-05-07T09:03:57Z</time>
      </trkpt>
      <trkpt lat="42.24496" lon="3.22976">
        <ele>38.400001525879</ele>
        <time>2015-05-07T09:03:59Z</time>
      </trkpt>
      <trkpt lat="42.24499" lon="3.22977">
        <ele>37.400001525879</ele>
        <time>2015-05-07T09:04:01Z</time>
      </trkpt>
      <trkpt lat="42.245" lon="3.22978">
        <ele>37</ele>
        <time>2015-05-07T09:04:02Z</time>
      </trkpt>
      <trkpt lat="42.24501" lon="3.22979">
        <ele>36.599998474121</ele>
        <time>2015-05-07T09:04:03Z</time>
      </trkpt>
      <trkpt lat="42.24503" lon="3.2298">
        <ele>36.200000762939</ele>
        <time>2015-05-07T09:04:04Z</time>
      </trkpt>
      <trkpt lat="42.24504" lon="3.22982">
        <ele>35.799999237061</ele>
        <time>2015-05-07T09:04:05Z</time>
      </trkpt>
      <trkpt lat="42.24505" lon="3.22984">
        <ele>35.200000762939</ele>
        <time>2015-05-07T09:04:06Z</time>
      </trkpt>
      <trkpt lat="42.24507" lon="3.22987">
        <ele>34.599998474121</ele>
        <time>2015-05-07T09:04:08Z</time>
      </trkpt>
      <trkpt lat="42.24509" lon="3.22991">
        <ele>33.400001525879</ele>
        <time>2015-05-07T09:04:10Z</time>
      </trkpt>
      <trkpt lat="42.24509" lon="3.22992">
        <ele>33.400001525879</ele>
        <time>2015-05-07T09:04:11Z</time>
      </trkpt>
      <trkpt lat="42.24511" lon="3.22995">
        <ele>31.799999237061</ele>
        <time>2015-05-07T09:04:13Z</time>
      </trkpt>
      <trkpt lat="42.24514" lon="3.22996">
        <ele>30.39999961853</ele>
        <time>2015-05-07T09:04:15Z</time>
      </trkpt>
      <trkpt lat="42.24519" lon="3.22995">
        <ele>29.200000762939</ele>
        <time>2015-05-07T09:04:17Z</time>
      </trkpt>
      <trkpt lat="42.24522" lon="3.22995">
        <ele>28</ele>
        <time>2015-05-07T09:04:19Z</time>
      </trkpt>
      <trkpt lat="42.24524" lon="3.22995">
        <ele>27</ele>
        <time>2015-05-07T09:04:21Z</time>
      </trkpt>
      <trkpt lat="42.24525" lon="3.22996">
        <ele>26.799999237061</ele>
        <time>2015-05-07T09:04:22Z</time>
      </trkpt>
      <trkpt lat="42.24524" lon="3.22998">
        <ele>26.200000762939</ele>
        <time>2015-05-07T09:04:23Z</time>
      </trkpt>
      <trkpt lat="42.24523" lon="3.23">
        <ele>25.200000762939</ele>
        <time>2015-05-07T09:04:25Z</time>
      </trkpt>
      <trkpt lat="42.24524" lon="3.23001">
        <ele>24</ele>
        <time>2015-05-07T09:04:27Z</time>
      </trkpt>
      <trkpt lat="42.24525" lon="3.22999">
        <ele>23.39999961853</ele>
        <time>2015-05-07T09:04:28Z</time>
      </trkpt>
      <trkpt lat="42.24527" lon="3.22998">
        <ele>22.60000038147</ele>
        <time>2015-05-07T09:04:29Z</time>
      </trkpt>
      <trkpt lat="42.2453" lon="3.22995">
        <ele>22</ele>
        <time>2015-05-07T09:04:31Z</time>
      </trkpt>
      <trkpt lat="42.24535" lon="3.22992">
        <ele>21.39999961853</ele>
        <time>2015-05-07T09:04:33Z</time>
      </trkpt>
      <trkpt lat="42.24537" lon="3.22992">
        <ele>21</ele>
        <time>2015-05-07T09:04:34Z</time>
      </trkpt>
      <trkpt lat="42.24541" lon="3.22991">
        <ele>20.200000762939</ele>
        <time>2015-05-07T09:04:36Z</time>
      </trkpt>
      <trkpt lat="42.24543" lon="3.22991">
        <ele>19.799999237061</ele>
        <time>2015-05-07T09:04:37Z</time>
      </trkpt>
      <trkpt lat="42.24548" lon="3.2299">
        <ele>18.799999237061</ele>
        <time>2015-05-07T09:04:39Z</time>
      </trkpt>
      <trkpt lat="42.24549" lon="3.22991">
        <ele>18.39999961853</ele>
        <time>2015-05-07T09:04:40Z</time>
      </trkpt>
      <trkpt lat="42.24551" lon="3.22991">
        <ele>18</ele>
        <time>2015-05-07T09:04:41Z</time>
      </trkpt>
      <trkpt lat="42.24553" lon="3.22991">
        <ele>17.39999961853</ele>
        <time>2015-05-07T09:04:42Z</time>
      </trkpt>
      <trkpt lat="42.24556" lon="3.2299">
        <ele>16.60000038147</ele>
        <time>2015-05-07T09:04:44Z</time>
      </trkpt>
      <trkpt lat="42.24556" lon="3.2299">
        <ele>16</ele>
        <time>2015-05-07T09:04:45Z</time>
      </trkpt>
      <trkpt lat="42.2456" lon="3.22988">
        <ele>14.800000190735</ele>
        <time>2015-05-07T09:04:47Z</time>
      </trkpt>
      <trkpt lat="42.24562" lon="3.22986">
        <ele>14.39999961853</ele>
        <time>2015-05-07T09:04:48Z</time>
      </trkpt>
      <trkpt lat="42.24566" lon="3.22979">
        <ele>14</ele>
        <time>2015-05-07T09:04:51Z</time>
      </trkpt>
      <trkpt lat="42.24567" lon="3.22977">
        <ele>14</ele>
        <time>2015-05-07T09:04:52Z</time>
      </trkpt>
      <trkpt lat="42.24573" lon="3.2297">
        <ele>15.199999809265</ele>
        <time>2015-05-07T09:04:56Z</time>
      </trkpt>
      <trkpt lat="42.24578" lon="3.22965">
        <ele>16</ele>
        <time>2015-05-07T09:04:59Z</time>
      </trkpt>
      <trkpt lat="42.2458" lon="3.22962">
        <ele>16</ele>
        <time>2015-05-07T09:05:00Z</time>
      </trkpt>
      <trkpt lat="42.24587" lon="3.22957">
        <ele>17</ele>
        <time>2015-05-07T09:05:03Z</time>
      </trkpt>
      <trkpt lat="42.24591" lon="3.22952">
        <ele>18</ele>
        <time>2015-05-07T09:05:05Z</time>
      </trkpt>
      <trkpt lat="42.24593" lon="3.22951">
        <ele>18.39999961853</ele>
        <time>2015-05-07T09:05:06Z</time>
      </trkpt>
      <trkpt lat="42.24596" lon="3.22948">
        <ele>19.200000762939</ele>
        <time>2015-05-07T09:05:08Z</time>
      </trkpt>
      <trkpt lat="42.24599" lon="3.22947">
        <ele>19.39999961853</ele>
        <time>2015-05-07T09:05:09Z</time>
      </trkpt>
      <trkpt lat="42.24601" lon="3.22946">
        <ele>19.799999237061</ele>
        <time>2015-05-07T09:05:10Z</time>
      </trkpt>
      <trkpt lat="42.24613" lon="3.22941">
        <ele>20.200000762939</ele>
        <time>2015-05-07T09:05:15Z</time>
      </trkpt>
      <trkpt lat="42.24619" lon="3.22938">
        <ele>19.799999237061</ele>
        <time>2015-05-07T09:05:18Z</time>
      </trkpt>
      <trkpt lat="42.24622" lon="3.22936">
        <ele>19.60000038147</ele>
        <time>2015-05-07T09:05:19Z</time>
      </trkpt>
      <trkpt lat="42.24626" lon="3.22933">
        <ele>19.60000038147</ele>
        <time>2015-05-07T09:05:21Z</time>
      </trkpt>
      <trkpt lat="42.24628" lon="3.22932">
        <ele>19.799999237061</ele>
        <time>2015-05-07T09:05:22Z</time>
      </trkpt>
      <trkpt lat="42.24638" lon="3.22927">
        <ele>20</ele>
        <time>2015-05-07T09:05:26Z</time>
      </trkpt>
      <trkpt lat="42.24641" lon="3.22922">
        <ele>19.799999237061</ele>
        <time>2015-05-07T09:05:28Z</time>
      </trkpt>
      <trkpt lat="42.24643" lon="3.22915">
        <ele>20.200000762939</ele>
        <time>2015-05-07T09:05:30Z</time>
      </trkpt>
      <trkpt lat="42.24644" lon="3.22912">
        <ele>20.60000038147</ele>
        <time>2015-05-07T09:05:31Z</time>
      </trkpt>
      <trkpt lat="42.24648" lon="3.22906">
        <ele>21.60000038147</ele>
        <time>2015-05-07T09:05:34Z</time>
      </trkpt>
      <trkpt lat="42.24653" lon="3.22898">
        <ele>23.200000762939</ele>
        <time>2015-05-07T09:05:38Z</time>
      </trkpt>
      <trkpt lat="42.24654" lon="3.22897">
        <ele>23.39999961853</ele>
        <time>2015-05-07T09:05:39Z</time>
      </trkpt>
      <trkpt lat="42.24654" lon="3.22893">
        <ele>24</ele>
        <time>2015-05-07T09:05:41Z</time>
      </trkpt>
      <trkpt lat="42.24653" lon="3.22892">
        <ele>24.39999961853</ele>
        <time>2015-05-07T09:05:42Z</time>
      </trkpt>
      <trkpt lat="42.24653" lon="3.2289">
        <ele>24.60000038147</ele>
        <time>2015-05-07T09:05:43Z</time>
      </trkpt>
      <trkpt lat="42.24653" lon="3.22885">
        <ele>25.39999961853</ele>
        <time>2015-05-07T09:05:45Z</time>
      </trkpt>
      <trkpt lat="42.24654" lon="3.22881">
        <ele>26.200000762939</ele>
        <time>2015-05-07T09:05:47Z</time>
      </trkpt>
      <trkpt lat="42.24655" lon="3.22879">
        <ele>26.60000038147</ele>
        <time>2015-05-07T09:05:48Z</time>
      </trkpt>
      <trkpt lat="42.24661" lon="3.22872">
        <ele>27.39999961853</ele>
        <time>2015-05-07T09:05:54Z</time>
      </trkpt>
      <trkpt lat="42.24662" lon="3.22871">
        <ele>27.200000762939</ele>
        <time>2015-05-07T09:05:55Z</time>
      </trkpt>
      <trkpt lat="42.24663" lon="3.22871">
        <ele>26.60000038147</ele>
        <time>2015-05-07T09:05:56Z</time>
      </trkpt>
      <trkpt lat="42.24665" lon="3.2287">
        <ele>26</ele>
        <time>2015-05-07T09:05:58Z</time>
      </trkpt>
      <trkpt lat="42.24666" lon="3.22869">
        <ele>25.60000038147</ele>
        <time>2015-05-07T09:05:59Z</time>
      </trkpt>
      <trkpt lat="42.24669" lon="3.22867">
        <ele>24.200000762939</ele>
        <time>2015-05-07T09:06:02Z</time>
      </trkpt>
      <trkpt lat="42.2467" lon="3.22866">
        <ele>23.799999237061</ele>
        <time>2015-05-07T09:06:03Z</time>
      </trkpt>
      <trkpt lat="42.24671" lon="3.22865">
        <ele>23.200000762939</ele>
        <time>2015-05-07T09:06:05Z</time>
      </trkpt>
      <trkpt lat="42.24671" lon="3.22864">
        <ele>23</ele>
        <time>2015-05-07T09:06:06Z</time>
      </trkpt>
      <trkpt lat="42.24672" lon="3.22863">
        <ele>22.39999961853</ele>
        <time>2015-05-07T09:06:08Z</time>
      </trkpt>
      <trkpt lat="42.24673" lon="3.22861">
        <ele>22</ele>
        <time>2015-05-07T09:06:09Z</time>
      </trkpt>
      <trkpt lat="42.24677" lon="3.22855">
        <ele>20.60000038147</ele>
        <time>2015-05-07T09:06:13Z</time>
      </trkpt>
      <trkpt lat="42.24678" lon="3.22854">
        <ele>20.39999961853</ele>
        <time>2015-05-07T09:06:14Z</time>
      </trkpt>
      <trkpt lat="42.2468" lon="3.22849">
        <ele>19.39999961853</ele>
        <time>2015-05-07T09:06:17Z</time>
      </trkpt>
      <trkpt lat="42.24682" lon="3.22849">
        <ele>19</ele>
        <time>2015-05-07T09:06:18Z</time>
      </trkpt>
      <trkpt lat="42.24683" lon="3.22849">
        <ele>18.799999237061</ele>
        <time>2015-05-07T09:06:19Z</time>
      </trkpt>
      <trkpt lat="42.24685" lon="3.22848">
        <ele>18.60000038147</ele>
        <time>2015-05-07T09:06:20Z</time>
      </trkpt>
      <trkpt lat="42.24686" lon="3.22847">
        <ele>18.200000762939</ele>
        <time>2015-05-07T09:06:21Z</time>
      </trkpt>
      <trkpt lat="42.2469" lon="3.22846">
        <ele>17.799999237061</ele>
        <time>2015-05-07T09:06:23Z</time>
      </trkpt>
      <trkpt lat="42.24697" lon="3.22838">
        <ele>17.39999961853</ele>
        <time>2015-05-07T09:06:28Z</time>
      </trkpt>
      <trkpt lat="42.24702" lon="3.22832">
        <ele>19</ele>
        <time>2015-05-07T09:06:32Z</time>
      </trkpt>
      <trkpt lat="42.24704" lon="3.2283">
        <ele>19.39999961853</ele>
        <time>2015-05-07T09:06:33Z</time>
      </trkpt>
      <trkpt lat="42.24709" lon="3.22829">
        <ele>20</ele>
        <time>2015-05-07T09:06:35Z</time>
      </trkpt>
      <trkpt lat="42.24714" lon="3.22828">
        <ele>20</ele>
        <time>2015-05-07T09:06:38Z</time>
      </trkpt>
      <trkpt lat="42.24719" lon="3.22828">
        <ele>18.60000038147</ele>
        <time>2015-05-07T09:06:42Z</time>
      </trkpt>
      <trkpt lat="42.2472" lon="3.22828">
        <ele>18</ele>
        <time>2015-05-07T09:06:43Z</time>
      </trkpt>
      <trkpt lat="42.24722" lon="3.22828">
        <ele>17.60000038147</ele>
        <time>2015-05-07T09:06:44Z</time>
      </trkpt>
      <trkpt lat="42.24724" lon="3.22829">
        <ele>17.200000762939</ele>
        <time>2015-05-07T09:06:45Z</time>
      </trkpt>
      <trkpt lat="42.24726" lon="3.22829">
        <ele>16.799999237061</ele>
        <time>2015-05-07T09:06:46Z</time>
      </trkpt>
      <trkpt lat="42.2473" lon="3.22829">
        <ele>16</ele>
        <time>2015-05-07T09:06:48Z</time>
      </trkpt>
      <trkpt lat="42.24732" lon="3.22828">
        <ele>15.60000038147</ele>
        <time>2015-05-07T09:06:49Z</time>
      </trkpt>
      <trkpt lat="42.24734" lon="3.22827">
        <ele>15.199999809265</ele>
        <time>2015-05-07T09:06:50Z</time>
      </trkpt>
      <trkpt lat="42.24736" lon="3.22825">
        <ele>14.60000038147</ele>
        <time>2015-05-07T09:06:51Z</time>
      </trkpt>
      <trkpt lat="42.24741" lon="3.22821">
        <ele>13.60000038147</ele>
        <time>2015-05-07T09:06:54Z</time>
      </trkpt>
      <trkpt lat="42.24746" lon="3.22815">
        <ele>12.39999961853</ele>
        <time>2015-05-07T09:06:57Z</time>
      </trkpt>
      <trkpt lat="42.24749" lon="3.22812">
        <ele>11.60000038147</ele>
        <time>2015-05-07T09:06:59Z</time>
      </trkpt>
      <trkpt lat="42.24751" lon="3.22811">
        <ele>11.39999961853</ele>
        <time>2015-05-07T09:07:00Z</time>
      </trkpt>
      <trkpt lat="42.24758" lon="3.22803">
        <ele>11.199999809265</ele>
        <time>2015-05-07T09:07:05Z</time>
      </trkpt>
      <trkpt lat="42.24765" lon="3.22802">
        <ele>12.39999961853</ele>
        <time>2015-05-07T09:07:08Z</time>
      </trkpt>
      <trkpt lat="42.24769" lon="3.22804">
        <ele>13.199999809265</ele>
        <time>2015-05-07T09:07:10Z</time>
      </trkpt>
      <trkpt lat="42.24771" lon="3.22805">
        <ele>13.60000038147</ele>
        <time>2015-05-07T09:07:11Z</time>
      </trkpt>
      <trkpt lat="42.24781" lon="3.22804">
        <ele>14</ele>
        <time>2015-05-07T09:07:15Z</time>
      </trkpt>
      <trkpt lat="42.24789" lon="3.22799">
        <ele>13.800000190735</ele>
        <time>2015-05-07T09:07:18Z</time>
      </trkpt>
      <trkpt lat="42.2479" lon="3.22797">
        <ele>13.60000038147</ele>
        <time>2015-05-07T09:07:19Z</time>
      </trkpt>
      <trkpt lat="42.24801" lon="3.22789">
        <ele>14.199999809265</ele>
        <time>2015-05-07T09:07:24Z</time>
      </trkpt>
      <trkpt lat="42.24803" lon="3.22789">
        <ele>14.39999961853</ele>
        <time>2015-05-07T09:07:25Z</time>
      </trkpt>
      <trkpt lat="42.24809" lon="3.22786">
        <ele>14.39999961853</ele>
        <time>2015-05-07T09:07:28Z</time>
      </trkpt>
      <trkpt lat="42.24814" lon="3.22784">
        <ele>14</ele>
        <time>2015-05-07T09:07:30Z</time>
      </trkpt>
      <trkpt lat="42.24816" lon="3.22781">
        <ele>14</ele>
        <time>2015-05-07T09:07:31Z</time>
      </trkpt>
      <trkpt lat="42.24818" lon="3.22779">
        <ele>13.800000190735</ele>
        <time>2015-05-07T09:07:32Z</time>
      </trkpt>
      <trkpt lat="42.24829" lon="3.22771">
        <ele>13.800000190735</ele>
        <time>2015-05-07T09:07:37Z</time>
      </trkpt>
      <trkpt lat="42.24833" lon="3.22768">
        <ele>13.800000190735</ele>
        <time>2015-05-07T09:07:39Z</time>
      </trkpt>
      <trkpt lat="42.24835" lon="3.22763">
        <ele>13</ele>
        <time>2015-05-07T09:07:41Z</time>
      </trkpt>
      <trkpt lat="42.24837" lon="3.22759">
        <ele>12.60000038147</ele>
        <time>2015-05-07T09:07:43Z</time>
      </trkpt>
      <trkpt lat="42.2484" lon="3.22755">
        <ele>12.39999961853</ele>
        <time>2015-05-07T09:07:45Z</time>
      </trkpt>
      <trkpt lat="42.24842" lon="3.2275">
        <ele>12.60000038147</ele>
        <time>2015-05-07T09:07:47Z</time>
      </trkpt>
      <trkpt lat="42.24846" lon="3.22743">
        <ele>13.60000038147</ele>
        <time>2015-05-07T09:07:50Z</time>
      </trkpt>
      <trkpt lat="42.24848" lon="3.22739">
        <ele>14.39999961853</ele>
        <time>2015-05-07T09:07:52Z</time>
      </trkpt>
      <trkpt lat="42.24849" lon="3.22737">
        <ele>14.800000190735</ele>
        <time>2015-05-07T09:07:53Z</time>
      </trkpt>
      <trkpt lat="42.24855" lon="3.22728">
        <ele>15.60000038147</ele>
        <time>2015-05-07T09:07:57Z</time>
      </trkpt>
      <trkpt lat="42.24859" lon="3.22724">
        <ele>14.800000190735</ele>
        <time>2015-05-07T09:08:00Z</time>
      </trkpt>
      <trkpt lat="42.2486" lon="3.22723">
        <ele>14.60000038147</ele>
        <time>2015-05-07T09:08:01Z</time>
      </trkpt>
      <trkpt lat="42.24862" lon="3.22721">
        <ele>14.39999961853</ele>
        <time>2015-05-07T09:08:02Z</time>
      </trkpt>
      <trkpt lat="42.24867" lon="3.22716">
        <ele>14.199999809265</ele>
        <time>2015-05-07T09:08:05Z</time>
      </trkpt>
      <trkpt lat="42.24868" lon="3.22714">
        <ele>14</ele>
        <time>2015-05-07T09:08:06Z</time>
      </trkpt>
      <trkpt lat="42.2487" lon="3.22712">
        <ele>13.60000038147</ele>
        <time>2015-05-07T09:08:07Z</time>
      </trkpt>
      <trkpt lat="42.24871" lon="3.2271">
        <ele>13.39999961853</ele>
        <time>2015-05-07T09:08:08Z</time>
      </trkpt>
      <trkpt lat="42.24874" lon="3.22705">
        <ele>13</ele>
        <time>2015-05-07T09:08:10Z</time>
      </trkpt>
      <trkpt lat="42.24874" lon="3.22703">
        <ele>12.60000038147</ele>
        <time>2015-05-07T09:08:11Z</time>
      </trkpt>
      <trkpt lat="42.24874" lon="3.227">
        <ele>12.39999961853</ele>
        <time>2015-05-07T09:08:12Z</time>
      </trkpt>
      <trkpt lat="42.24874" lon="3.22695">
        <ele>11.800000190735</ele>
        <time>2015-05-07T09:08:14Z</time>
      </trkpt>
      <trkpt lat="42.24876" lon="3.22693">
        <ele>11.60000038147</ele>
        <time>2015-05-07T09:08:15Z</time>
      </trkpt>
      <trkpt lat="42.24878" lon="3.22693">
        <ele>11.39999961853</ele>
        <time>2015-05-07T09:08:16Z</time>
      </trkpt>
      <trkpt lat="42.24882" lon="3.22693">
        <ele>11.39999961853</ele>
        <time>2015-05-07T09:08:18Z</time>
      </trkpt>
      <trkpt lat="42.24883" lon="3.22692">
        <ele>11.60000038147</ele>
        <time>2015-05-07T09:08:19Z</time>
      </trkpt>
      <trkpt lat="42.24886" lon="3.22691">
        <ele>11.39999961853</ele>
        <time>2015-05-07T09:08:20Z</time>
      </trkpt>
      <trkpt lat="42.24887" lon="3.22689">
        <ele>11.39999961853</ele>
        <time>2015-05-07T09:08:21Z</time>
      </trkpt>
      <trkpt lat="42.24894" lon="3.22682">
        <ele>10.199999809265</ele>
        <time>2015-05-07T09:08:24Z</time>
      </trkpt>
      <trkpt lat="42.24895" lon="3.2268">
        <ele>9.8000001907349</ele>
        <time>2015-05-07T09:08:25Z</time>
      </trkpt>
      <trkpt lat="42.249" lon="3.22675">
        <ele>9</ele>
        <time>2015-05-07T09:08:28Z</time>
      </trkpt>
      <trkpt lat="42.24902" lon="3.22674">
        <ele>9</ele>
        <time>2015-05-07T09:08:29Z</time>
      </trkpt>
      <trkpt lat="42.24903" lon="3.22672">
        <ele>8.8000001907349</ele>
        <time>2015-05-07T09:08:30Z</time>
      </trkpt>
      <trkpt lat="42.24905" lon="3.22669">
        <ele>8.6000003814697</ele>
        <time>2015-05-07T09:08:31Z</time>
      </trkpt>
      <trkpt lat="42.24907" lon="3.22666">
        <ele>8</ele>
        <time>2015-05-07T09:08:33Z</time>
      </trkpt>
      <trkpt lat="42.24908" lon="3.22664">
        <ele>7.5999999046326</ele>
        <time>2015-05-07T09:08:34Z</time>
      </trkpt>
      <trkpt lat="42.24914" lon="3.22659">
        <ele>6.8000001907349</ele>
        <time>2015-05-07T09:08:37Z</time>
      </trkpt>
      <trkpt lat="42.24916" lon="3.22659">
        <ele>6.4000000953674</ele>
        <time>2015-05-07T09:08:38Z</time>
      </trkpt>
      <trkpt lat="42.2492" lon="3.22659">
        <ele>5.5999999046326</ele>
        <time>2015-05-07T09:08:40Z</time>
      </trkpt>
      <trkpt lat="42.24929" lon="3.22661">
        <ele>5.1999998092651</ele>
        <time>2015-05-07T09:08:44Z</time>
      </trkpt>
      <trkpt lat="42.24934" lon="3.22661">
        <ele>4.8000001907349</ele>
        <time>2015-05-07T09:08:46Z</time>
      </trkpt>
      <trkpt lat="42.24936" lon="3.22661">
        <ele>4.5999999046326</ele>
        <time>2015-05-07T09:08:47Z</time>
      </trkpt>
      <trkpt lat="42.2494" lon="3.22659">
        <ele>4.8000001907349</ele>
        <time>2015-05-07T09:08:49Z</time>
      </trkpt>
      <trkpt lat="42.24941" lon="3.22659">
        <ele>4.8000001907349</ele>
        <time>2015-05-07T09:08:50Z</time>
      </trkpt>
      <trkpt lat="42.24942" lon="3.22658">
        <ele>5</ele>
        <time>2015-05-07T09:08:51Z</time>
      </trkpt>
      <trkpt lat="42.24943" lon="3.22656">
        <ele>5</ele>
        <time>2015-05-07T09:08:52Z</time>
      </trkpt>
      <trkpt lat="42.24948" lon="3.22655">
        <ele>6</ele>
        <time>2015-05-07T09:08:55Z</time>
      </trkpt>
      <trkpt lat="42.2495" lon="3.22656">
        <ele>6.4000000953674</ele>
        <time>2015-05-07T09:08:56Z</time>
      </trkpt>
      <trkpt lat="42.24951" lon="3.22658">
        <ele>7</ele>
        <time>2015-05-07T09:08:57Z</time>
      </trkpt>
      <trkpt lat="42.24953" lon="3.22659">
        <ele>7.4000000953674</ele>
        <time>2015-05-07T09:08:58Z</time>
      </trkpt>
      <trkpt lat="42.24954" lon="3.22662">
        <ele>7.5999999046326</ele>
        <time>2015-05-07T09:08:59Z</time>
      </trkpt>
      <trkpt lat="42.24955" lon="3.22665">
        <ele>8.1999998092651</ele>
        <time>2015-05-07T09:09:00Z</time>
      </trkpt>
      <trkpt lat="42.24958" lon="3.22675">
        <ele>8.8000001907349</ele>
        <time>2015-05-07T09:09:03Z</time>
      </trkpt>
      <trkpt lat="42.2496" lon="3.2268">
        <ele>9.1999998092651</ele>
        <time>2015-05-07T09:09:05Z</time>
      </trkpt>
      <trkpt lat="42.24962" lon="3.22681">
        <ele>9.3999996185303</ele>
        <time>2015-05-07T09:09:06Z</time>
      </trkpt>
      <trkpt lat="42.24964" lon="3.22682">
        <ele>9.1999998092651</ele>
        <time>2015-05-07T09:09:07Z</time>
      </trkpt>
      <trkpt lat="42.24968" lon="3.22685">
        <ele>9.6000003814697</ele>
        <time>2015-05-07T09:09:09Z</time>
      </trkpt>
      <trkpt lat="42.24973" lon="3.22688">
        <ele>10.199999809265</ele>
        <time>2015-05-07T09:09:12Z</time>
      </trkpt>
      <trkpt lat="42.24976" lon="3.22689">
        <ele>10.39999961853</ele>
        <time>2015-05-07T09:09:13Z</time>
      </trkpt>
      <trkpt lat="42.24982" lon="3.2269">
        <ele>9.8000001907349</ele>
        <time>2015-05-07T09:09:16Z</time>
      </trkpt>
      <trkpt lat="42.24989" lon="3.22695">
        <ele>10.199999809265</ele>
        <time>2015-05-07T09:09:20Z</time>
      </trkpt>
      <trkpt lat="42.2499" lon="3.22695">
        <ele>10.199999809265</ele>
        <time>2015-05-07T09:09:21Z</time>
      </trkpt>
      <trkpt lat="42.25" lon="3.22691">
        <ele>10.199999809265</ele>
        <time>2015-05-07T09:09:26Z</time>
      </trkpt>
      <trkpt lat="42.25009" lon="3.22682">
        <ele>9.6000003814697</ele>
        <time>2015-05-07T09:09:31Z</time>
      </trkpt>
      <trkpt lat="42.25011" lon="3.22682">
        <ele>9.6000003814697</ele>
        <time>2015-05-07T09:09:32Z</time>
      </trkpt>
      <trkpt lat="42.25014" lon="3.22677">
        <ele>9.1999998092651</ele>
        <time>2015-05-07T09:09:34Z</time>
      </trkpt>
      <trkpt lat="42.25017" lon="3.22675">
        <ele>8.8000001907349</ele>
        <time>2015-05-07T09:09:35Z</time>
      </trkpt>
      <trkpt lat="42.25019" lon="3.22675">
        <ele>8.8000001907349</ele>
        <time>2015-05-07T09:09:36Z</time>
      </trkpt>
      <trkpt lat="42.25023" lon="3.22675">
        <ele>8.3999996185303</ele>
        <time>2015-05-07T09:09:38Z</time>
      </trkpt>
      <trkpt lat="42.25028" lon="3.22672">
        <ele>8.1999998092651</ele>
        <time>2015-05-07T09:09:40Z</time>
      </trkpt>
      <trkpt lat="42.25033" lon="3.2267">
        <ele>7.5999999046326</ele>
        <time>2015-05-07T09:09:42Z</time>
      </trkpt>
      <trkpt lat="42.25036" lon="3.22669">
        <ele>7.1999998092651</ele>
        <time>2015-05-07T09:09:43Z</time>
      </trkpt>
      <trkpt lat="42.25039" lon="3.22669">
        <ele>6.1999998092651</ele>
        <time>2015-05-07T09:09:45Z</time>
      </trkpt>
      <trkpt lat="42.25039" lon="3.22671">
        <ele>5.8000001907349</ele>
        <time>2015-05-07T09:09:46Z</time>
      </trkpt>
      <trkpt lat="42.2504" lon="3.22671">
        <ele>5.1999998092651</ele>
        <time>2015-05-07T09:09:47Z</time>
      </trkpt>
      <trkpt lat="42.2504" lon="3.22672">
        <ele>5</ele>
        <time>2015-05-07T09:09:48Z</time>
      </trkpt>
      <trkpt lat="42.2504" lon="3.22673">
        <ele>4.5999999046326</ele>
        <time>2015-05-07T09:09:49Z</time>
      </trkpt>
      <trkpt lat="42.25042" lon="3.22674">
        <ele>4.5999999046326</ele>
        <time>2015-05-07T09:09:51Z</time>
      </trkpt>
      <trkpt lat="42.25042" lon="3.22674">
        <ele>4.8000001907349</ele>
        <time>2015-05-07T09:09:52Z</time>
      </trkpt>
      <trkpt lat="42.25042" lon="3.22675">
        <ele>4.5999999046326</ele>
        <time>2015-05-07T09:09:53Z</time>
      </trkpt>
      <trkpt lat="42.25041" lon="3.22671">
        <ele>4.5999999046326</ele>
        <time>2015-05-07T09:09:58Z</time>
      </trkpt>
      <trkpt lat="42.25041" lon="3.22671">
        <ele>4.5999999046326</ele>
        <time>2015-05-07T09:10:08Z</time>
      </trkpt>
      <trkpt lat="42.25041" lon="3.22672">
        <ele>4.4000000953674</ele>
        <time>2015-05-07T09:10:15Z</time>
      </trkpt>
      <trkpt lat="42.25041" lon="3.22672">
        <ele>4</ele>
        <time>2015-05-07T09:10:20Z</time>
      </trkpt>
      <trkpt lat="42.25041" lon="3.22672">
        <ele>4</ele>
        <time>2015-05-07T09:10:22Z</time>
      </trkpt>
      <trkpt lat="42.25041" lon="3.22672">
        <ele>4</ele>
        <time>2015-05-07T09:10:23Z</time>
      </trkpt>
      <trkpt lat="42.25041" lon="3.22672">
        <ele>4</ele>
        <time>2015-05-07T09:10:25Z</time>
      </trkpt>
      <trkpt lat="42.25042" lon="3.22673">
        <ele>4</ele>
        <time>2015-05-07T09:10:30Z</time>
      </trkpt>
      <trkpt lat="42.25042" lon="3.22673">
        <ele>4</ele>
        <time>2015-05-07T09:10:34Z</time>
      </trkpt>
      <trkpt lat="42.25043" lon="3.22672">
        <ele>4</ele>
        <time>2015-05-07T09:10:37Z</time>
      </trkpt>
      <trkpt lat="42.25043" lon="3.22673">
        <ele>4</ele>
        <time>2015-05-07T09:10:43Z</time>
      </trkpt>
      <trkpt lat="42.25044" lon="3.22673">
        <ele>4</ele>
        <time>2015-05-07T09:10:54Z</time>
      </trkpt>
      <trkpt lat="42.25044" lon="3.22673">
        <ele>4</ele>
        <time>2015-05-07T09:11:05Z</time>
      </trkpt>
      <trkpt lat="42.25044" lon="3.22673">
        <ele>3.7999999523163</ele>
        <time>2015-05-07T09:11:15Z</time>
      </trkpt>
      <trkpt lat="42.25045" lon="3.22672">
        <ele>4.1999998092651</ele>
        <time>2015-05-07T09:11:25Z</time>
      </trkpt>
      <trkpt lat="42.25045" lon="3.22673">
        <ele>4.4000000953674</ele>
        <time>2015-05-07T09:11:28Z</time>
      </trkpt>
      <trkpt lat="42.25044" lon="3.22673">
        <ele>4.1999998092651</ele>
        <time>2015-05-07T09:11:32Z</time>
      </trkpt>
      <trkpt lat="42.25044" lon="3.22673">
        <ele>4.1999998092651</ele>
        <time>2015-05-07T09:11:40Z</time>
      </trkpt>
      <trkpt lat="42.25043" lon="3.22673">
        <ele>4.1999998092651</ele>
        <time>2015-05-07T09:11:52Z</time>
      </trkpt>
      <trkpt lat="42.25044" lon="3.22675">
        <ele>5.1999998092651</ele>
        <time>2015-05-07T09:11:59Z</time>
      </trkpt>
      <trkpt lat="42.25044" lon="3.22675">
        <ele>5.1999998092651</ele>
        <time>2015-05-07T09:12:01Z</time>
      </trkpt>
      <trkpt lat="42.25043" lon="3.22675">
        <ele>5.1999998092651</ele>
        <time>2015-05-07T09:12:03Z</time>
      </trkpt>
      <trkpt lat="42.25043" lon="3.22674">
        <ele>5.1999998092651</ele>
        <time>2015-05-07T09:12:05Z</time>
      </trkpt>
      <trkpt lat="42.25043" lon="3.22674">
        <ele>5.5999999046326</ele>
        <time>2015-05-07T09:12:13Z</time>
      </trkpt>
      <trkpt lat="42.25043" lon="3.22674">
        <ele>5.8000001907349</ele>
        <time>2015-05-07T09:12:18Z</time>
      </trkpt>
      <trkpt lat="42.25042" lon="3.22674">
        <ele>5.8000001907349</ele>
        <time>2015-05-07T09:12:28Z</time>
      </trkpt>
      <trkpt lat="42.25042" lon="3.22674">
        <ele>5</ele>
        <time>2015-05-07T09:12:35Z</time>
      </trkpt>
      <trkpt lat="42.25042" lon="3.22674">
        <ele>4.5999999046326</ele>
        <time>2015-05-07T09:12:37Z</time>
      </trkpt>
      <trkpt lat="42.25042" lon="3.22674">
        <ele>5</ele>
        <time>2015-05-07T09:12:47Z</time>
      </trkpt>
      <trkpt lat="42.25041" lon="3.22674">
        <ele>4.5999999046326</ele>
        <time>2015-05-07T09:13:03Z</time>
      </trkpt>
      <trkpt lat="42.25041" lon="3.22675">
        <ele>4.8000001907349</ele>
        <time>2015-05-07T09:13:13Z</time>
      </trkpt>
      <trkpt lat="42.25041" lon="3.22675">
        <ele>4.8000001907349</ele>
        <time>2015-05-07T09:13:17Z</time>
      </trkpt>
      <trkpt lat="42.2504" lon="3.22676">
        <ele>4.8000001907349</ele>
        <time>2015-05-07T09:13:32Z</time>
      </trkpt>
      <trkpt lat="42.25042" lon="3.22676">
        <ele>4.8000001907349</ele>
        <time>2015-05-07T09:13:46Z</time>
      </trkpt>
      <trkpt lat="42.25042" lon="3.22676">
        <ele>4.8000001907349</ele>
        <time>2015-05-07T09:13:47Z</time>
      </trkpt>
      <trkpt lat="42.25042" lon="3.22676">
        <ele>4.8000001907349</ele>
        <time>2015-05-07T09:13:55Z</time>
      </trkpt>
      <trkpt lat="42.25042" lon="3.22675">
        <ele>4.8000001907349</ele>
        <time>2015-05-07T09:14:00Z</time>
      </trkpt>
      <trkpt lat="42.25042" lon="3.22675">
        <ele>4.8000001907349</ele>
        <time>2015-05-07T09:14:03Z</time>
      </trkpt>
      <trkpt lat="42.25043" lon="3.22674">
        <ele>4.8000001907349</ele>
        <time>2015-05-07T09:14:15Z</time>
      </trkpt>
      <trkpt lat="42.25042" lon="3.22675">
        <ele>4.5999999046326</ele>
        <time>2015-05-07T09:14:29Z</time>
      </trkpt>
      <trkpt lat="42.25045" lon="3.22676">
        <ele>4.8000001907349</ele>
        <time>2015-05-07T09:14:43Z</time>
      </trkpt>
      <trkpt lat="42.25045" lon="3.22676">
        <ele>4.8000001907349</ele>
        <time>2015-05-07T09:14:44Z</time>
      </trkpt>
      <trkpt lat="42.25045" lon="3.22675">
        <ele>4.8000001907349</ele>
        <time>2015-05-07T09:14:45Z</time>
      </trkpt>
      <trkpt lat="42.25045" lon="3.22676">
        <ele>4.8000001907349</ele>
        <time>2015-05-07T09:14:46Z</time>
      </trkpt>
      <trkpt lat="42.25045" lon="3.22676">
        <ele>4.8000001907349</ele>
        <time>2015-05-07T09:14:48Z</time>
      </trkpt>
      <trkpt lat="42.25046" lon="3.22676">
        <ele>4.8000001907349</ele>
        <time>2015-05-07T09:14:58Z</time>
      </trkpt>
      <trkpt lat="42.25044" lon="3.22676">
        <ele>4.8000001907349</ele>
        <time>2015-05-07T09:15:10Z</time>
      </trkpt>
      <trkpt lat="42.25044" lon="3.22676">
        <ele>4.8000001907349</ele>
        <time>2015-05-07T09:15:13Z</time>
      </trkpt>
      <trkpt lat="42.25044" lon="3.22676">
        <ele>5</ele>
        <time>2015-05-07T09:15:14Z</time>
      </trkpt>
      <trkpt lat="42.25043" lon="3.22677">
        <ele>5</ele>
        <time>2015-05-07T09:15:18Z</time>
      </trkpt>
      <trkpt lat="42.25042" lon="3.22677">
        <ele>5</ele>
        <time>2015-05-07T09:15:25Z</time>
      </trkpt>
      <trkpt lat="42.25042" lon="3.22677">
        <ele>5</ele>
        <time>2015-05-07T09:15:26Z</time>
      </trkpt>
      <trkpt lat="42.25043" lon="3.22674">
        <ele>5</ele>
        <time>2015-05-07T09:15:32Z</time>
      </trkpt>
      <trkpt lat="42.2504" lon="3.22671">
        <ele>5</ele>
        <time>2015-05-07T09:15:39Z</time>
      </trkpt>
      <trkpt lat="42.25036" lon="3.22671">
        <ele>4.8000001907349</ele>
        <time>2015-05-07T09:15:46Z</time>
      </trkpt>
      <trkpt lat="42.2503" lon="3.22674">
        <ele>5.5999999046326</ele>
        <time>2015-05-07T09:15:51Z</time>
      </trkpt>
      <trkpt lat="42.25028" lon="3.22674">
        <ele>5.8000001907349</ele>
        <time>2015-05-07T09:15:52Z</time>
      </trkpt>
      <trkpt lat="42.2502" lon="3.22676">
        <ele>6.8000001907349</ele>
        <time>2015-05-07T09:15:56Z</time>
      </trkpt>
      <trkpt lat="42.25018" lon="3.22678">
        <ele>7.5999999046326</ele>
        <time>2015-05-07T09:15:58Z</time>
      </trkpt>
      <trkpt lat="42.25016" lon="3.2268">
        <ele>8</ele>
        <time>2015-05-07T09:15:59Z</time>
      </trkpt>
      <trkpt lat="42.25011" lon="3.22688">
        <ele>8.6000003814697</ele>
        <time>2015-05-07T09:16:04Z</time>
      </trkpt>
      <trkpt lat="42.2501" lon="3.22689">
        <ele>8.8000001907349</ele>
        <time>2015-05-07T09:16:05Z</time>
      </trkpt>
      <trkpt lat="42.25005" lon="3.22692">
        <ele>9</ele>
        <time>2015-05-07T09:16:08Z</time>
      </trkpt>
      <trkpt lat="42.25003" lon="3.22693">
        <ele>9.1999998092651</ele>
        <time>2015-05-07T09:16:09Z</time>
      </trkpt>
      <trkpt lat="42.24994" lon="3.22694">
        <ele>9.8000001907349</ele>
        <time>2015-05-07T09:16:14Z</time>
      </trkpt>
      <trkpt lat="42.2499" lon="3.22692">
        <ele>10.199999809265</ele>
        <time>2015-05-07T09:16:16Z</time>
      </trkpt>
      <trkpt lat="42.24989" lon="3.2269">
        <ele>10.199999809265</ele>
        <time>2015-05-07T09:16:17Z</time>
      </trkpt>
      <trkpt lat="42.24982" lon="3.22688">
        <ele>10.39999961853</ele>
        <time>2015-05-07T09:16:20Z</time>
      </trkpt>
      <trkpt lat="42.24976" lon="3.22686">
        <ele>10</ele>
        <time>2015-05-07T09:16:23Z</time>
      </trkpt>
      <trkpt lat="42.24972" lon="3.22686">
        <ele>9.8000001907349</ele>
        <time>2015-05-07T09:16:25Z</time>
      </trkpt>
      <trkpt lat="42.24963" lon="3.22682">
        <ele>10.199999809265</ele>
        <time>2015-05-07T09:16:29Z</time>
      </trkpt>
      <trkpt lat="42.24961" lon="3.22681">
        <ele>10.199999809265</ele>
        <time>2015-05-07T09:16:30Z</time>
      </trkpt>
      <trkpt lat="42.24957" lon="3.22673">
        <ele>10.39999961853</ele>
        <time>2015-05-07T09:16:33Z</time>
      </trkpt>
      <trkpt lat="42.24952" lon="3.22657">
        <ele>9.6000003814697</ele>
        <time>2015-05-07T09:16:38Z</time>
      </trkpt>
      <trkpt lat="42.24947" lon="3.22653">
        <ele>9.1999998092651</ele>
        <time>2015-05-07T09:16:41Z</time>
      </trkpt>
      <trkpt lat="42.24947" lon="3.22654">
        <ele>9</ele>
        <time>2015-05-07T09:16:42Z</time>
      </trkpt>
      <trkpt lat="42.24943" lon="3.22662">
        <ele>7.8000001907349</ele>
        <time>2015-05-07T09:16:45Z</time>
      </trkpt>
      <trkpt lat="42.2494" lon="3.22663">
        <ele>7.4000000953674</ele>
        <time>2015-05-07T09:16:46Z</time>
      </trkpt>
      <trkpt lat="42.24936" lon="3.22662">
        <ele>6.4000000953674</ele>
        <time>2015-05-07T09:16:48Z</time>
      </trkpt>
      <trkpt lat="42.24934" lon="3.22662">
        <ele>5.8000001907349</ele>
        <time>2015-05-07T09:16:49Z</time>
      </trkpt>
      <trkpt lat="42.24929" lon="3.22662">
        <ele>5.4000000953674</ele>
        <time>2015-05-07T09:16:51Z</time>
      </trkpt>
      <trkpt lat="42.24916" lon="3.2266">
        <ele>5</ele>
        <time>2015-05-07T09:16:56Z</time>
      </trkpt>
      <trkpt lat="42.24915" lon="3.2266">
        <ele>5</ele>
        <time>2015-05-07T09:16:57Z</time>
      </trkpt>
      <trkpt lat="42.24911" lon="3.22662">
        <ele>5</ele>
        <time>2015-05-07T09:16:59Z</time>
      </trkpt>
      <trkpt lat="42.2491" lon="3.22666">
        <ele>5</ele>
        <time>2015-05-07T09:17:00Z</time>
      </trkpt>
      <trkpt lat="42.24909" lon="3.22668">
        <ele>5.1999998092651</ele>
        <time>2015-05-07T09:17:01Z</time>
      </trkpt>
      <trkpt lat="42.24904" lon="3.22676">
        <ele>6.4000000953674</ele>
        <time>2015-05-07T09:17:05Z</time>
      </trkpt>
      <trkpt lat="42.24903" lon="3.22677">
        <ele>7</ele>
        <time>2015-05-07T09:17:06Z</time>
      </trkpt>
      <trkpt lat="42.24902" lon="3.22678">
        <ele>7.4000000953674</ele>
        <time>2015-05-07T09:17:07Z</time>
      </trkpt>
      <trkpt lat="42.24898" lon="3.22685">
        <ele>8.3999996185303</ele>
        <time>2015-05-07T09:17:10Z</time>
      </trkpt>
      <trkpt lat="42.24897" lon="3.22687">
        <ele>8.8000001907349</ele>
        <time>2015-05-07T09:17:11Z</time>
      </trkpt>
      <trkpt lat="42.24891" lon="3.22691">
        <ele>9</ele>
        <time>2015-05-07T09:17:14Z</time>
      </trkpt>
      <trkpt lat="42.24884" lon="3.22691">
        <ele>9.8000001907349</ele>
        <time>2015-05-07T09:17:18Z</time>
      </trkpt>
      <trkpt lat="42.24883" lon="3.22692">
        <ele>10</ele>
        <time>2015-05-07T09:17:19Z</time>
      </trkpt>
      <trkpt lat="42.24881" lon="3.22698">
        <ele>10.800000190735</ele>
        <time>2015-05-07T09:17:22Z</time>
      </trkpt>
      <trkpt lat="42.24881" lon="3.22702">
        <ele>11</ele>
        <time>2015-05-07T09:17:23Z</time>
      </trkpt>
      <trkpt lat="42.24879" lon="3.22708">
        <ele>11.39999961853</ele>
        <time>2015-05-07T09:17:26Z</time>
      </trkpt>
      <trkpt lat="42.24878" lon="3.2271">
        <ele>11.60000038147</ele>
        <time>2015-05-07T09:17:27Z</time>
      </trkpt>
      <trkpt lat="42.24874" lon="3.22714">
        <ele>12</ele>
        <time>2015-05-07T09:17:29Z</time>
      </trkpt>
      <trkpt lat="42.24869" lon="3.2272">
        <ele>12.60000038147</ele>
        <time>2015-05-07T09:17:32Z</time>
      </trkpt>
      <trkpt lat="42.24864" lon="3.22725">
        <ele>13.39999961853</ele>
        <time>2015-05-07T09:17:35Z</time>
      </trkpt>
      <trkpt lat="42.24861" lon="3.22729">
        <ele>14</ele>
        <time>2015-05-07T09:17:37Z</time>
      </trkpt>
      <trkpt lat="42.24858" lon="3.22734">
        <ele>14.60000038147</ele>
        <time>2015-05-07T09:17:39Z</time>
      </trkpt>
      <trkpt lat="42.24854" lon="3.22737">
        <ele>15</ele>
        <time>2015-05-07T09:17:41Z</time>
      </trkpt>
      <trkpt lat="42.24853" lon="3.22739">
        <ele>15</ele>
        <time>2015-05-07T09:17:42Z</time>
      </trkpt>
      <trkpt lat="42.2485" lon="3.22744">
        <ele>15.60000038147</ele>
        <time>2015-05-07T09:17:46Z</time>
      </trkpt>
      <trkpt lat="42.24846" lon="3.22755">
        <ele>15.39999961853</ele>
        <time>2015-05-07T09:17:51Z</time>
      </trkpt>
      <trkpt lat="42.24842" lon="3.22763">
        <ele>14.60000038147</ele>
        <time>2015-05-07T09:17:54Z</time>
      </trkpt>
      <trkpt lat="42.24841" lon="3.22765">
        <ele>14</ele>
        <time>2015-05-07T09:17:55Z</time>
      </trkpt>
      <trkpt lat="42.24837" lon="3.22773">
        <ele>13.199999809265</ele>
        <time>2015-05-07T09:17:58Z</time>
      </trkpt>
      <trkpt lat="42.24827" lon="3.22781">
        <ele>12.800000190735</ele>
        <time>2015-05-07T09:18:03Z</time>
      </trkpt>
      <trkpt lat="42.24819" lon="3.2279">
        <ele>14</ele>
        <time>2015-05-07T09:18:08Z</time>
      </trkpt>
      <trkpt lat="42.24818" lon="3.2279">
        <ele>14.199999809265</ele>
        <time>2015-05-07T09:18:09Z</time>
      </trkpt>
      <trkpt lat="42.24818" lon="3.22789">
        <ele>14.199999809265</ele>
        <time>2015-05-07T09:18:11Z</time>
      </trkpt>
      <trkpt lat="42.24817" lon="3.22787">
        <ele>14</ele>
        <time>2015-05-07T09:18:14Z</time>
      </trkpt>
      <trkpt lat="42.24814" lon="3.22789">
        <ele>13.800000190735</ele>
        <time>2015-05-07T09:18:16Z</time>
      </trkpt>
      <trkpt lat="42.24807" lon="3.22793">
        <ele>13.800000190735</ele>
        <time>2015-05-07T09:18:19Z</time>
      </trkpt>
      <trkpt lat="42.24805" lon="3.22794">
        <ele>14</ele>
        <time>2015-05-07T09:18:20Z</time>
      </trkpt>
      <trkpt lat="42.24799" lon="3.22804">
        <ele>14.800000190735</ele>
        <time>2015-05-07T09:18:25Z</time>
      </trkpt>
      <trkpt lat="42.24796" lon="3.22806">
        <ele>14.800000190735</ele>
        <time>2015-05-07T09:18:26Z</time>
      </trkpt>
      <trkpt lat="42.2479" lon="3.22808">
        <ele>13.800000190735</ele>
        <time>2015-05-07T09:18:29Z</time>
      </trkpt>
      <trkpt lat="42.24788" lon="3.22808">
        <ele>13.60000038147</ele>
        <time>2015-05-07T09:18:30Z</time>
      </trkpt>
      <trkpt lat="42.24781" lon="3.22806">
        <ele>13.60000038147</ele>
        <time>2015-05-07T09:18:33Z</time>
      </trkpt>
      <trkpt lat="42.24779" lon="3.22805">
        <ele>13.800000190735</ele>
        <time>2015-05-07T09:18:34Z</time>
      </trkpt>
      <trkpt lat="42.2477" lon="3.22804">
        <ele>13.60000038147</ele>
        <time>2015-05-07T09:18:38Z</time>
      </trkpt>
      <trkpt lat="42.24765" lon="3.22809">
        <ele>13.39999961853</ele>
        <time>2015-05-07T09:18:41Z</time>
      </trkpt>
      <trkpt lat="42.24764" lon="3.22811">
        <ele>13.199999809265</ele>
        <time>2015-05-07T09:18:42Z</time>
      </trkpt>
      <trkpt lat="42.24759" lon="3.22816">
        <ele>12.199999809265</ele>
        <time>2015-05-07T09:18:45Z</time>
      </trkpt>
      <trkpt lat="42.24757" lon="3.22818">
        <ele>11.800000190735</ele>
        <time>2015-05-07T09:18:46Z</time>
      </trkpt>
      <trkpt lat="42.24751" lon="3.22821">
        <ele>10.800000190735</ele>
        <time>2015-05-07T09:18:49Z</time>
      </trkpt>
      <trkpt lat="42.24748" lon="3.22823">
        <ele>10.800000190735</ele>
        <time>2015-05-07T09:18:51Z</time>
      </trkpt>
      <trkpt lat="42.24742" lon="3.22829">
        <ele>12</ele>
        <time>2015-05-07T09:18:55Z</time>
      </trkpt>
      <trkpt lat="42.2474" lon="3.22829">
        <ele>12.39999961853</ele>
        <time>2015-05-07T09:18:56Z</time>
      </trkpt>
      <trkpt lat="42.24737" lon="3.22828">
        <ele>13.60000038147</ele>
        <time>2015-05-07T09:18:58Z</time>
      </trkpt>
      <trkpt lat="42.24735" lon="3.22827">
        <ele>14</ele>
        <time>2015-05-07T09:18:59Z</time>
      </trkpt>
      <trkpt lat="42.24733" lon="3.22828">
        <ele>14.199999809265</ele>
        <time>2015-05-07T09:19:00Z</time>
      </trkpt>
      <trkpt lat="42.24731" lon="3.22827">
        <ele>14.60000038147</ele>
        <time>2015-05-07T09:19:01Z</time>
      </trkpt>
      <trkpt lat="42.2473" lon="3.22827">
        <ele>15.199999809265</ele>
        <time>2015-05-07T09:19:02Z</time>
      </trkpt>
      <trkpt lat="42.24729" lon="3.22827">
        <ele>15.800000190735</ele>
        <time>2015-05-07T09:19:03Z</time>
      </trkpt>
      <trkpt lat="42.24726" lon="3.22827">
        <ele>16.799999237061</ele>
        <time>2015-05-07T09:19:05Z</time>
      </trkpt>
      <trkpt lat="42.24725" lon="3.22827">
        <ele>17.200000762939</ele>
        <time>2015-05-07T09:19:06Z</time>
      </trkpt>
      <trkpt lat="42.2472" lon="3.22828">
        <ele>18</ele>
        <time>2015-05-07T09:19:08Z</time>
      </trkpt>
      <trkpt lat="42.24717" lon="3.22829">
        <ele>18.200000762939</ele>
        <time>2015-05-07T09:19:09Z</time>
      </trkpt>
      <trkpt lat="42.24713" lon="3.22831">
        <ele>19</ele>
        <time>2015-05-07T09:19:11Z</time>
      </trkpt>
      <trkpt lat="42.24711" lon="3.22832">
        <ele>19.39999961853</ele>
        <time>2015-05-07T09:19:12Z</time>
      </trkpt>
      <trkpt lat="42.24706" lon="3.2284">
        <ele>20</ele>
        <time>2015-05-07T09:19:15Z</time>
      </trkpt>
      <trkpt lat="42.24705" lon="3.22842">
        <ele>20</ele>
        <time>2015-05-07T09:19:16Z</time>
      </trkpt>
      <trkpt lat="42.24702" lon="3.22845">
        <ele>19.799999237061</ele>
        <time>2015-05-07T09:19:17Z</time>
      </trkpt>
      <trkpt lat="42.24698" lon="3.22847">
        <ele>18.799999237061</ele>
        <time>2015-05-07T09:19:19Z</time>
      </trkpt>
      <trkpt lat="42.24696" lon="3.22847">
        <ele>18.39999961853</ele>
        <time>2015-05-07T09:19:20Z</time>
      </trkpt>
      <trkpt lat="42.24696" lon="3.22847">
        <ele>18.39999961853</ele>
        <time>2015-05-07T09:19:20Z</time>
      </trkpt>
      <trkpt lat="42.24693" lon="3.22847">
        <ele>18.200000762939</ele>
        <time>2015-05-07T09:19:21Z</time>
      </trkpt>
      <trkpt lat="42.24692" lon="3.22847">
        <ele>17.60000038147</ele>
        <time>2015-05-07T09:19:22Z</time>
      </trkpt>
      <trkpt lat="42.24691" lon="3.22846">
        <ele>17.60000038147</ele>
        <time>2015-05-07T09:19:23Z</time>
      </trkpt>
      <trkpt lat="42.24687" lon="3.2285">
        <ele>18</ele>
        <time>2015-05-07T09:19:26Z</time>
      </trkpt>
      <trkpt lat="42.24686" lon="3.22852">
        <ele>18.200000762939</ele>
        <time>2015-05-07T09:19:27Z</time>
      </trkpt>
      <trkpt lat="42.24683" lon="3.22856">
        <ele>19.60000038147</ele>
        <time>2015-05-07T09:19:30Z</time>
      </trkpt>
      <trkpt lat="42.24681" lon="3.22859">
        <ele>20.200000762939</ele>
        <time>2015-05-07T09:19:32Z</time>
      </trkpt>
      <trkpt lat="42.24679" lon="3.2286">
        <ele>20.60000038147</ele>
        <time>2015-05-07T09:19:33Z</time>
      </trkpt>
      <trkpt lat="42.24675" lon="3.22862">
        <ele>21.799999237061</ele>
        <time>2015-05-07T09:19:36Z</time>
      </trkpt>
      <trkpt lat="42.24674" lon="3.22863">
        <ele>22.200000762939</ele>
        <time>2015-05-07T09:19:37Z</time>
      </trkpt>
      <trkpt lat="42.24672" lon="3.22866">
        <ele>23.200000762939</ele>
        <time>2015-05-07T09:19:39Z</time>
      </trkpt>
      <trkpt lat="42.24669" lon="3.22868">
        <ele>24.200000762939</ele>
        <time>2015-05-07T09:19:41Z</time>
      </trkpt>
      <trkpt lat="42.24666" lon="3.22869">
        <ele>25.39999961853</ele>
        <time>2015-05-07T09:19:43Z</time>
      </trkpt>
      <trkpt lat="42.24663" lon="3.22871">
        <ele>26.200000762939</ele>
        <time>2015-05-07T09:19:45Z</time>
      </trkpt>
      <trkpt lat="42.24662" lon="3.22872">
        <ele>26.60000038147</ele>
        <time>2015-05-07T09:19:46Z</time>
      </trkpt>
      <trkpt lat="42.24661" lon="3.22874">
        <ele>27</ele>
        <time>2015-05-07T09:19:47Z</time>
      </trkpt>
      <trkpt lat="42.24659" lon="3.22882">
        <ele>27.60000038147</ele>
        <time>2015-05-07T09:19:51Z</time>
      </trkpt>
      <trkpt lat="42.2466" lon="3.22892">
        <ele>27.200000762939</ele>
        <time>2015-05-07T09:19:55Z</time>
      </trkpt>
      <trkpt lat="42.24654" lon="3.22903">
        <ele>25.39999961853</ele>
        <time>2015-05-07T09:20:00Z</time>
      </trkpt>
      <trkpt lat="42.2465" lon="3.2291">
        <ele>24.200000762939</ele>
        <time>2015-05-07T09:20:03Z</time>
      </trkpt>
      <trkpt lat="42.24647" lon="3.22916">
        <ele>23.799999237061</ele>
        <time>2015-05-07T09:20:06Z</time>
      </trkpt>
      <trkpt lat="42.24644" lon="3.22923">
        <ele>23</ele>
        <time>2015-05-07T09:20:09Z</time>
      </trkpt>
      <trkpt lat="42.24641" lon="3.22927">
        <ele>22.200000762939</ele>
        <time>2015-05-07T09:20:11Z</time>
      </trkpt>
      <trkpt lat="42.2464" lon="3.2293">
        <ele>21.799999237061</ele>
        <time>2015-05-07T09:20:12Z</time>
      </trkpt>
      <trkpt lat="42.24633" lon="3.22933">
        <ele>20.799999237061</ele>
        <time>2015-05-07T09:20:15Z</time>
      </trkpt>
      <trkpt lat="42.24632" lon="3.22934">
        <ele>20.60000038147</ele>
        <time>2015-05-07T09:20:16Z</time>
      </trkpt>
      <trkpt lat="42.24622" lon="3.2294">
        <ele>20</ele>
        <time>2015-05-07T09:20:21Z</time>
      </trkpt>
      <trkpt lat="42.24618" lon="3.22942">
        <ele>20.200000762939</ele>
        <time>2015-05-07T09:20:23Z</time>
      </trkpt>
      <trkpt lat="42.2461" lon="3.22945">
        <ele>20</ele>
        <time>2015-05-07T09:20:27Z</time>
      </trkpt>
      <trkpt lat="42.246" lon="3.2295">
        <ele>20.39999961853</ele>
        <time>2015-05-07T09:20:32Z</time>
      </trkpt>
      <trkpt lat="42.24595" lon="3.22953">
        <ele>20.39999961853</ele>
        <time>2015-05-07T09:20:35Z</time>
      </trkpt>
      <trkpt lat="42.24592" lon="3.22957">
        <ele>20.39999961853</ele>
        <time>2015-05-07T09:20:37Z</time>
      </trkpt>
      <trkpt lat="42.24587" lon="3.22963">
        <ele>19.799999237061</ele>
        <time>2015-05-07T09:20:40Z</time>
      </trkpt>
      <trkpt lat="42.24583" lon="3.22967">
        <ele>19</ele>
        <time>2015-05-07T09:20:42Z</time>
      </trkpt>
      <trkpt lat="42.24581" lon="3.22968">
        <ele>18.60000038147</ele>
        <time>2015-05-07T09:20:43Z</time>
      </trkpt>
      <trkpt lat="42.24577" lon="3.22973">
        <ele>17.200000762939</ele>
        <time>2015-05-07T09:20:46Z</time>
      </trkpt>
      <trkpt lat="42.24575" lon="3.22975">
        <ele>16.799999237061</ele>
        <time>2015-05-07T09:20:47Z</time>
      </trkpt>
      <trkpt lat="42.24575" lon="3.22978">
        <ele>16.39999961853</ele>
        <time>2015-05-07T09:20:48Z</time>
      </trkpt>
      <trkpt lat="42.24571" lon="3.22984">
        <ele>16</ele>
        <time>2015-05-07T09:20:51Z</time>
      </trkpt>
      <trkpt lat="42.24567" lon="3.2299">
        <ele>15.199999809265</ele>
        <time>2015-05-07T09:20:54Z</time>
      </trkpt>
      <trkpt lat="42.24564" lon="3.22991">
        <ele>14.800000190735</ele>
        <time>2015-05-07T09:20:55Z</time>
      </trkpt>
      <trkpt lat="42.24562" lon="3.22991">
        <ele>14.39999961853</ele>
        <time>2015-05-07T09:20:56Z</time>
      </trkpt>
      <trkpt lat="42.24553" lon="3.22993">
        <ele>14.800000190735</ele>
        <time>2015-05-07T09:21:01Z</time>
      </trkpt>
      <trkpt lat="42.24548" lon="3.22993">
        <ele>16.200000762939</ele>
        <time>2015-05-07T09:21:04Z</time>
      </trkpt>
      <trkpt lat="42.24546" lon="3.22994">
        <ele>16.60000038147</ele>
        <time>2015-05-07T09:21:05Z</time>
      </trkpt>
      <trkpt lat="42.24543" lon="3.22994">
        <ele>17.39999961853</ele>
        <time>2015-05-07T09:21:07Z</time>
      </trkpt>
      <trkpt lat="42.2454" lon="3.22995">
        <ele>18.39999961853</ele>
        <time>2015-05-07T09:21:09Z</time>
      </trkpt>
      <trkpt lat="42.24539" lon="3.22996">
        <ele>18.799999237061</ele>
        <time>2015-05-07T09:21:10Z</time>
      </trkpt>
      <trkpt lat="42.24535" lon="3.22999">
        <ele>19.60000038147</ele>
        <time>2015-05-07T09:21:12Z</time>
      </trkpt>
      <trkpt lat="42.24534" lon="3.23">
        <ele>20</ele>
        <time>2015-05-07T09:21:13Z</time>
      </trkpt>
      <trkpt lat="42.24532" lon="3.23001">
        <ele>20.39999961853</ele>
        <time>2015-05-07T09:21:14Z</time>
      </trkpt>
      <trkpt lat="42.2453" lon="3.23001">
        <ele>21</ele>
        <time>2015-05-07T09:21:15Z</time>
      </trkpt>
      <trkpt lat="42.2453" lon="3.23">
        <ele>21.39999961853</ele>
        <time>2015-05-07T09:21:16Z</time>
      </trkpt>
      <trkpt lat="42.2453" lon="3.22998">
        <ele>21.60000038147</ele>
        <time>2015-05-07T09:21:17Z</time>
      </trkpt>
      <trkpt lat="42.2453" lon="3.22997">
        <ele>22.200000762939</ele>
        <time>2015-05-07T09:21:18Z</time>
      </trkpt>
      <trkpt lat="42.2453" lon="3.22995">
        <ele>22.799999237061</ele>
        <time>2015-05-07T09:21:19Z</time>
      </trkpt>
      <trkpt lat="42.2453" lon="3.22994">
        <ele>23</ele>
        <time>2015-05-07T09:21:20Z</time>
      </trkpt>
      <trkpt lat="42.24527" lon="3.22993">
        <ele>24</ele>
        <time>2015-05-07T09:21:22Z</time>
      </trkpt>
      <trkpt lat="42.24522" lon="3.22993">
        <ele>25.200000762939</ele>
        <time>2015-05-07T09:21:25Z</time>
      </trkpt>
      <trkpt lat="42.24518" lon="3.22994">
        <ele>26.39999961853</ele>
        <time>2015-05-07T09:21:28Z</time>
      </trkpt>
      <trkpt lat="42.24517" lon="3.22994">
        <ele>27.799999237061</ele>
        <time>2015-05-07T09:21:31Z</time>
      </trkpt>
      <trkpt lat="42.24516" lon="3.22994">
        <ele>28</ele>
        <time>2015-05-07T09:21:32Z</time>
      </trkpt>
      <trkpt lat="42.24513" lon="3.22993">
        <ele>28.39999961853</ele>
        <time>2015-05-07T09:21:37Z</time>
      </trkpt>
      <trkpt lat="42.24511" lon="3.22992">
        <ele>28.799999237061</ele>
        <time>2015-05-07T09:21:39Z</time>
      </trkpt>
      <trkpt lat="42.24511" lon="3.22987">
        <ele>29.39999961853</ele>
        <time>2015-05-07T09:21:42Z</time>
      </trkpt>
      <trkpt lat="42.24511" lon="3.22986">
        <ele>29.60000038147</ele>
        <time>2015-05-07T09:21:43Z</time>
      </trkpt>
      <trkpt lat="42.24509" lon="3.22985">
        <ele>30</ele>
        <time>2015-05-07T09:21:44Z</time>
      </trkpt>
      <trkpt lat="42.24509" lon="3.22984">
        <ele>30.200000762939</ele>
        <time>2015-05-07T09:21:45Z</time>
      </trkpt>
      <trkpt lat="42.24508" lon="3.22983">
        <ele>30.60000038147</ele>
        <time>2015-05-07T09:21:46Z</time>
      </trkpt>
      <trkpt lat="42.24507" lon="3.22982">
        <ele>31.200000762939</ele>
        <time>2015-05-07T09:21:47Z</time>
      </trkpt>
      <trkpt lat="42.24506" lon="3.22981">
        <ele>31.799999237061</ele>
        <time>2015-05-07T09:21:48Z</time>
      </trkpt>
      <trkpt lat="42.24505" lon="3.22979">
        <ele>32.200000762939</ele>
        <time>2015-05-07T09:21:49Z</time>
      </trkpt>
      <trkpt lat="42.24503" lon="3.22978">
        <ele>33.400001525879</ele>
        <time>2015-05-07T09:21:51Z</time>
      </trkpt>
      <trkpt lat="42.245" lon="3.22976">
        <ele>34.200000762939</ele>
        <time>2015-05-07T09:21:53Z</time>
      </trkpt>
      <trkpt lat="42.24499" lon="3.22975">
        <ele>34.799999237061</ele>
        <time>2015-05-07T09:21:54Z</time>
      </trkpt>
      <trkpt lat="42.24498" lon="3.22975">
        <ele>35.400001525879</ele>
        <time>2015-05-07T09:21:55Z</time>
      </trkpt>
      <trkpt lat="42.24496" lon="3.22973">
        <ele>36</ele>
        <time>2015-05-07T09:21:57Z</time>
      </trkpt>
      <trkpt lat="42.24496" lon="3.22972">
        <ele>36.400001525879</ele>
        <time>2015-05-07T09:21:58Z</time>
      </trkpt>
      <trkpt lat="42.24495" lon="3.2297">
        <ele>37</ele>
        <time>2015-05-07T09:22:00Z</time>
      </trkpt>
      <trkpt lat="42.24493" lon="3.2297">
        <ele>37.799999237061</ele>
        <time>2015-05-07T09:22:02Z</time>
      </trkpt>
      <trkpt lat="42.24493" lon="3.2297">
        <ele>38.200000762939</ele>
        <time>2015-05-07T09:22:03Z</time>
      </trkpt>
      <trkpt lat="42.24491" lon="3.22967">
        <ele>39.200000762939</ele>
        <time>2015-05-07T09:22:08Z</time>
      </trkpt>
      <trkpt lat="42.2449" lon="3.22965">
        <ele>39.400001525879</ele>
        <time>2015-05-07T09:22:09Z</time>
      </trkpt>
      <trkpt lat="42.24488" lon="3.22964">
        <ele>39.599998474121</ele>
        <time>2015-05-07T09:22:10Z</time>
      </trkpt>
      <trkpt lat="42.24485" lon="3.2296">
        <ele>39.799999237061</ele>
        <time>2015-05-07T09:22:12Z</time>
      </trkpt>
      <trkpt lat="42.24485" lon="3.22959">
        <ele>39.799999237061</ele>
        <time>2015-05-07T09:22:13Z</time>
      </trkpt>
      <trkpt lat="42.2448" lon="3.22957">
        <ele>39.400001525879</ele>
        <time>2015-05-07T09:22:19Z</time>
      </trkpt>
      <trkpt lat="42.24481" lon="3.22958">
        <ele>39.200000762939</ele>
        <time>2015-05-07T09:22:20Z</time>
      </trkpt>
      <trkpt lat="42.24482" lon="3.22958">
        <ele>38.599998474121</ele>
        <time>2015-05-07T09:22:27Z</time>
      </trkpt>
      <trkpt lat="42.24485" lon="3.2296">
        <ele>39.200000762939</ele>
        <time>2015-05-07T09:22:34Z</time>
      </trkpt>
      <trkpt lat="42.24485" lon="3.2296">
        <ele>39</ele>
        <time>2015-05-07T09:22:36Z</time>
      </trkpt>
      <trkpt lat="42.24485" lon="3.22961">
        <ele>38.799999237061</ele>
        <time>2015-05-07T09:22:37Z</time>
      </trkpt>
      <trkpt lat="42.24485" lon="3.22961">
        <ele>38.599998474121</ele>
        <time>2015-05-07T09:22:38Z</time>
      </trkpt>
      <trkpt lat="42.24486" lon="3.2296">
        <ele>39</ele>
        <time>2015-05-07T09:22:43Z</time>
      </trkpt>
      <trkpt lat="42.24486" lon="3.22961">
        <ele>39.200000762939</ele>
        <time>2015-05-07T09:22:49Z</time>
      </trkpt>
      <trkpt lat="42.24486" lon="3.22961">
        <ele>39.599998474121</ele>
        <time>2015-05-07T09:22:58Z</time>
      </trkpt>
      <trkpt lat="42.24486" lon="3.22963">
        <ele>39.200000762939</ele>
        <time>2015-05-07T09:23:06Z</time>
      </trkpt>
      <trkpt lat="42.24487" lon="3.22962">
        <ele>39.200000762939</ele>
        <time>2015-05-07T09:23:12Z</time>
      </trkpt>
      <trkpt lat="42.24487" lon="3.22962">
        <ele>40.200000762939</ele>
        <time>2015-05-07T09:23:19Z</time>
      </trkpt>
      <trkpt lat="42.24487" lon="3.22962">
        <ele>40.200000762939</ele>
        <time>2015-05-07T09:23:20Z</time>
      </trkpt>
      <trkpt lat="42.24487" lon="3.22962">
        <ele>39.400001525879</ele>
        <time>2015-05-07T09:23:32Z</time>
      </trkpt>
      <trkpt lat="42.24484" lon="3.2296">
        <ele>39.400001525879</ele>
        <time>2015-05-07T09:23:35Z</time>
      </trkpt>
      <trkpt lat="42.24476" lon="3.22952">
        <ele>39.200000762939</ele>
        <time>2015-05-07T09:23:39Z</time>
      </trkpt>
      <trkpt lat="42.24474" lon="3.22952">
        <ele>39.200000762939</ele>
        <time>2015-05-07T09:23:40Z</time>
      </trkpt>
      <trkpt lat="42.24469" lon="3.22954">
        <ele>40</ele>
        <time>2015-05-07T09:23:43Z</time>
      </trkpt>
      <trkpt lat="42.24469" lon="3.22954">
        <ele>40.599998474121</ele>
        <time>2015-05-07T09:23:44Z</time>
      </trkpt>
      <trkpt lat="42.24468" lon="3.22954">
        <ele>41.599998474121</ele>
        <time>2015-05-07T09:23:46Z</time>
      </trkpt>
      <trkpt lat="42.24467" lon="3.22953">
        <ele>42</ele>
        <time>2015-05-07T09:23:47Z</time>
      </trkpt>
      <trkpt lat="42.24467" lon="3.22951">
        <ele>42.599998474121</ele>
        <time>2015-05-07T09:23:48Z</time>
      </trkpt>
      <trkpt lat="42.24467" lon="3.22949">
        <ele>43</ele>
        <time>2015-05-07T09:23:49Z</time>
      </trkpt>
      <trkpt lat="42.24466" lon="3.22945">
        <ele>44.400001525879</ele>
        <time>2015-05-07T09:23:52Z</time>
      </trkpt>
      <trkpt lat="42.24464" lon="3.22943">
        <ele>45</ele>
        <time>2015-05-07T09:23:53Z</time>
      </trkpt>
      <trkpt lat="42.24464" lon="3.22941">
        <ele>45.200000762939</ele>
        <time>2015-05-07T09:23:54Z</time>
      </trkpt>
      <trkpt lat="42.24463" lon="3.2294">
        <ele>45.400001525879</ele>
        <time>2015-05-07T09:23:55Z</time>
      </trkpt>
      <trkpt lat="42.24462" lon="3.22935">
        <ele>45.200000762939</ele>
        <time>2015-05-07T09:23:58Z</time>
      </trkpt>
      <trkpt lat="42.24461" lon="3.22929">
        <ele>45.599998474121</ele>
        <time>2015-05-07T09:24:02Z</time>
      </trkpt>
      <trkpt lat="42.24461" lon="3.22927">
        <ele>45.599998474121</ele>
        <time>2015-05-07T09:24:03Z</time>
      </trkpt>
      <trkpt lat="42.24461" lon="3.22926">
        <ele>45.799999237061</ele>
        <time>2015-05-07T09:24:04Z</time>
      </trkpt>
      <trkpt lat="42.24461" lon="3.22921">
        <ele>46</ele>
        <time>2015-05-07T09:24:07Z</time>
      </trkpt>
      <trkpt lat="42.24459" lon="3.22918">
        <ele>46.599998474121</ele>
        <time>2015-05-07T09:24:10Z</time>
      </trkpt>
      <trkpt lat="42.24455" lon="3.22916">
        <ele>46.799999237061</ele>
        <time>2015-05-07T09:24:12Z</time>
      </trkpt>
      <trkpt lat="42.24453" lon="3.22915">
        <ele>47</ele>
        <time>2015-05-07T09:24:13Z</time>
      </trkpt>
      <trkpt lat="42.2445" lon="3.22914">
        <ele>47</ele>
        <time>2015-05-07T09:24:14Z</time>
      </trkpt>
      <trkpt lat="42.2444" lon="3.22908">
        <ele>47</ele>
        <time>2015-05-07T09:24:18Z</time>
      </trkpt>
      <trkpt lat="42.24433" lon="3.22894">
        <ele>47.599998474121</ele>
        <time>2015-05-07T09:24:23Z</time>
      </trkpt>
      <trkpt lat="42.2443" lon="3.22888">
        <ele>48</ele>
        <time>2015-05-07T09:24:25Z</time>
      </trkpt>
      <trkpt lat="42.24429" lon="3.22882">
        <ele>48.200000762939</ele>
        <time>2015-05-07T09:24:27Z</time>
      </trkpt>
      <trkpt lat="42.24429" lon="3.22878">
        <ele>48</ele>
        <time>2015-05-07T09:24:28Z</time>
      </trkpt>
      <trkpt lat="42.24429" lon="3.22869">
        <ele>48</ele>
        <time>2015-05-07T09:24:30Z</time>
      </trkpt>
      <trkpt lat="42.2443" lon="3.22866">
        <ele>48</ele>
        <time>2015-05-07T09:24:31Z</time>
      </trkpt>
      <trkpt lat="42.2443" lon="3.22863">
        <ele>48</ele>
        <time>2015-05-07T09:24:32Z</time>
      </trkpt>
      <trkpt lat="42.24431" lon="3.2286">
        <ele>47.799999237061</ele>
        <time>2015-05-07T09:24:33Z</time>
      </trkpt>
      <trkpt lat="42.24431" lon="3.22854">
        <ele>47.599998474121</ele>
        <time>2015-05-07T09:24:35Z</time>
      </trkpt>
      <trkpt lat="42.24432" lon="3.22841">
        <ele>46.400001525879</ele>
        <time>2015-05-07T09:24:39Z</time>
      </trkpt>
      <trkpt lat="42.24432" lon="3.22839">
        <ele>46.200000762939</ele>
        <time>2015-05-07T09:24:40Z</time>
      </trkpt>
      <trkpt lat="42.24434" lon="3.22832">
        <ele>45.599998474121</ele>
        <time>2015-05-07T09:24:43Z</time>
      </trkpt>
      <trkpt lat="42.24435" lon="3.22831">
        <ele>45.400001525879</ele>
        <time>2015-05-07T09:24:44Z</time>
      </trkpt>
      <trkpt lat="42.24433" lon="3.22825">
        <ele>44</ele>
        <time>2015-05-07T09:24:48Z</time>
      </trkpt>
      <trkpt lat="42.24432" lon="3.22824">
        <ele>43.200000762939</ele>
        <time>2015-05-07T09:24:49Z</time>
      </trkpt>
      <trkpt lat="42.24432" lon="3.22823">
        <ele>42.799999237061</ele>
        <time>2015-05-07T09:24:50Z</time>
      </trkpt>
      <trkpt lat="42.24431" lon="3.22822">
        <ele>42.200000762939</ele>
        <time>2015-05-07T09:24:51Z</time>
      </trkpt>
      <trkpt lat="42.24431" lon="3.22821">
        <ele>42</ele>
        <time>2015-05-07T09:24:52Z</time>
      </trkpt>
      <trkpt lat="42.2443" lon="3.22818">
        <ele>41.200000762939</ele>
        <time>2015-05-07T09:24:53Z</time>
      </trkpt>
      <trkpt lat="42.2443" lon="3.22816">
        <ele>40.599998474121</ele>
        <time>2015-05-07T09:24:54Z</time>
      </trkpt>
      <trkpt lat="42.2443" lon="3.22814">
        <ele>40</ele>
        <time>2015-05-07T09:24:55Z</time>
      </trkpt>
      <trkpt lat="42.24429" lon="3.22811">
        <ele>38.799999237061</ele>
        <time>2015-05-07T09:24:57Z</time>
      </trkpt>
      <trkpt lat="42.24427" lon="3.22808">
        <ele>38</ele>
        <time>2015-05-07T09:24:58Z</time>
      </trkpt>
      <trkpt lat="42.24426" lon="3.22805">
        <ele>37.400001525879</ele>
        <time>2015-05-07T09:24:59Z</time>
      </trkpt>
      <trkpt lat="42.24425" lon="3.22801">
        <ele>36</ele>
        <time>2015-05-07T09:25:01Z</time>
      </trkpt>
      <trkpt lat="42.24421" lon="3.228">
        <ele>34.799999237061</ele>
        <time>2015-05-07T09:25:03Z</time>
      </trkpt>
      <trkpt lat="42.24418" lon="3.22794">
        <ele>33.400001525879</ele>
        <time>2015-05-07T09:25:05Z</time>
      </trkpt>
      <trkpt lat="42.24416" lon="3.2279">
        <ele>32.599998474121</ele>
        <time>2015-05-07T09:25:06Z</time>
      </trkpt>
      <trkpt lat="42.24415" lon="3.22787">
        <ele>31.799999237061</ele>
        <time>2015-05-07T09:25:07Z</time>
      </trkpt>
      <trkpt lat="42.24416" lon="3.2278">
        <ele>30.799999237061</ele>
        <time>2015-05-07T09:25:09Z</time>
      </trkpt>
      <trkpt lat="42.24417" lon="3.22777">
        <ele>30.200000762939</ele>
        <time>2015-05-07T09:25:10Z</time>
      </trkpt>
      <trkpt lat="42.24419" lon="3.22775">
        <ele>29.799999237061</ele>
        <time>2015-05-07T09:25:11Z</time>
      </trkpt>
      <trkpt lat="42.24421" lon="3.22773">
        <ele>29.799999237061</ele>
        <time>2015-05-07T09:25:12Z</time>
      </trkpt>
      <trkpt lat="42.24422" lon="3.22771">
        <ele>29.799999237061</ele>
        <time>2015-05-07T09:25:13Z</time>
      </trkpt>
      <trkpt lat="42.24424" lon="3.22766">
        <ele>30.200000762939</ele>
        <time>2015-05-07T09:25:15Z</time>
      </trkpt>
      <trkpt lat="42.24426" lon="3.22765">
        <ele>30.60000038147</ele>
        <time>2015-05-07T09:25:16Z</time>
      </trkpt>
      <trkpt lat="42.2443" lon="3.22758">
        <ele>31.60000038147</ele>
        <time>2015-05-07T09:25:20Z</time>
      </trkpt>
      <trkpt lat="42.24431" lon="3.22755">
        <ele>32</ele>
        <time>2015-05-07T09:25:21Z</time>
      </trkpt>
      <trkpt lat="42.24432" lon="3.22753">
        <ele>32.400001525879</ele>
        <time>2015-05-07T09:25:22Z</time>
      </trkpt>
      <trkpt lat="42.24434" lon="3.22751">
        <ele>32.599998474121</ele>
        <time>2015-05-07T09:25:23Z</time>
      </trkpt>
      <trkpt lat="42.24435" lon="3.22747">
        <ele>33</ele>
        <time>2015-05-07T09:25:24Z</time>
      </trkpt>
      <trkpt lat="42.24437" lon="3.22744">
        <ele>33.200000762939</ele>
        <time>2015-05-07T09:25:25Z</time>
      </trkpt>
      <trkpt lat="42.24444" lon="3.22735">
        <ele>33.400001525879</ele>
        <time>2015-05-07T09:25:29Z</time>
      </trkpt>
      <trkpt lat="42.24444" lon="3.22732">
        <ele>33.599998474121</ele>
        <time>2015-05-07T09:25:30Z</time>
      </trkpt>
      <trkpt lat="42.24446" lon="3.22724">
        <ele>33</ele>
        <time>2015-05-07T09:25:33Z</time>
      </trkpt>
      <trkpt lat="42.24447" lon="3.22722">
        <ele>32.799999237061</ele>
        <time>2015-05-07T09:25:34Z</time>
      </trkpt>
      <trkpt lat="42.24448" lon="3.22716">
        <ele>32.200000762939</ele>
        <time>2015-05-07T09:25:36Z</time>
      </trkpt>
      <trkpt lat="42.24448" lon="3.22713">
        <ele>31.799999237061</ele>
        <time>2015-05-07T09:25:37Z</time>
      </trkpt>
      <trkpt lat="42.24446" lon="3.22706">
        <ele>31</ele>
        <time>2015-05-07T09:25:39Z</time>
      </trkpt>
      <trkpt lat="42.24446" lon="3.22699">
        <ele>29.60000038147</ele>
        <time>2015-05-07T09:25:42Z</time>
      </trkpt>
      <trkpt lat="42.24444" lon="3.22692">
        <ele>28.60000038147</ele>
        <time>2015-05-07T09:25:44Z</time>
      </trkpt>
      <trkpt lat="42.24443" lon="3.22686">
        <ele>27.200000762939</ele>
        <time>2015-05-07T09:25:46Z</time>
      </trkpt>
      <trkpt lat="42.24442" lon="3.2268">
        <ele>26.200000762939</ele>
        <time>2015-05-07T09:25:48Z</time>
      </trkpt>
      <trkpt lat="42.24442" lon="3.2267">
        <ele>24.60000038147</ele>
        <time>2015-05-07T09:25:51Z</time>
      </trkpt>
      <trkpt lat="42.24441" lon="3.22665">
        <ele>23.60000038147</ele>
        <time>2015-05-07T09:25:53Z</time>
      </trkpt>
      <trkpt lat="42.24441" lon="3.22659">
        <ele>22.60000038147</ele>
        <time>2015-05-07T09:25:55Z</time>
      </trkpt>
      <trkpt lat="42.2444" lon="3.22657">
        <ele>22.39999961853</ele>
        <time>2015-05-07T09:25:56Z</time>
      </trkpt>
      <trkpt lat="42.24438" lon="3.22655">
        <ele>22</ele>
        <time>2015-05-07T09:25:58Z</time>
      </trkpt>
      <trkpt lat="42.24436" lon="3.22649">
        <ele>21.39999961853</ele>
        <time>2015-05-07T09:26:01Z</time>
      </trkpt>
      <trkpt lat="42.24435" lon="3.22646">
        <ele>21.200000762939</ele>
        <time>2015-05-07T09:26:02Z</time>
      </trkpt>
      <trkpt lat="42.24433" lon="3.22642">
        <ele>20.200000762939</ele>
        <time>2015-05-07T09:26:04Z</time>
      </trkpt>
      <trkpt lat="42.2443" lon="3.22637">
        <ele>19.200000762939</ele>
        <time>2015-05-07T09:26:06Z</time>
      </trkpt>
      <trkpt lat="42.2443" lon="3.22634">
        <ele>18.60000038147</ele>
        <time>2015-05-07T09:26:07Z</time>
      </trkpt>
      <trkpt lat="42.2443" lon="3.22631">
        <ele>17.799999237061</ele>
        <time>2015-05-07T09:26:08Z</time>
      </trkpt>
      <trkpt lat="42.24429" lon="3.22627">
        <ele>17</ele>
        <time>2015-05-07T09:26:10Z</time>
      </trkpt>
      <trkpt lat="42.24427" lon="3.22625">
        <ele>16.799999237061</ele>
        <time>2015-05-07T09:26:11Z</time>
      </trkpt>
      <trkpt lat="42.24425" lon="3.22623">
        <ele>16.39999961853</ele>
        <time>2015-05-07T09:26:14Z</time>
      </trkpt>
      <trkpt lat="42.24423" lon="3.22619">
        <ele>15.39999961853</ele>
        <time>2015-05-07T09:26:17Z</time>
      </trkpt>
      <trkpt lat="42.24422" lon="3.22615">
        <ele>14.199999809265</ele>
        <time>2015-05-07T09:26:20Z</time>
      </trkpt>
      <trkpt lat="42.2442" lon="3.22615">
        <ele>13.60000038147</ele>
        <time>2015-05-07T09:26:21Z</time>
      </trkpt>
      <trkpt lat="42.24419" lon="3.22616">
        <ele>12.800000190735</ele>
        <time>2015-05-07T09:26:23Z</time>
      </trkpt>
      <trkpt lat="42.24417" lon="3.22616">
        <ele>12</ele>
        <time>2015-05-07T09:26:25Z</time>
      </trkpt>
      <trkpt lat="42.24417" lon="3.22617">
        <ele>11.60000038147</ele>
        <time>2015-05-07T09:26:26Z</time>
      </trkpt>
      <trkpt lat="42.24416" lon="3.22616">
        <ele>11</ele>
        <time>2015-05-07T09:26:27Z</time>
      </trkpt>
      <trkpt lat="42.24416" lon="3.22615">
        <ele>10.60000038147</ele>
        <time>2015-05-07T09:26:28Z</time>
      </trkpt>
      <trkpt lat="42.24416" lon="3.22614">
        <ele>9.6000003814697</ele>
        <time>2015-05-07T09:26:30Z</time>
      </trkpt>
      <trkpt lat="42.24415" lon="3.22613">
        <ele>9.3999996185303</ele>
        <time>2015-05-07T09:26:31Z</time>
      </trkpt>
      <trkpt lat="42.24414" lon="3.22612">
        <ele>8.1999998092651</ele>
        <time>2015-05-07T09:26:35Z</time>
      </trkpt>
      <trkpt lat="42.24414" lon="3.22613">
        <ele>7.8000001907349</ele>
        <time>2015-05-07T09:26:36Z</time>
      </trkpt>
      <trkpt lat="42.24413" lon="3.22613">
        <ele>7.5999999046326</ele>
        <time>2015-05-07T09:26:37Z</time>
      </trkpt>
      <trkpt lat="42.24414" lon="3.22613">
        <ele>7</ele>
        <time>2015-05-07T09:26:39Z</time>
      </trkpt>
      <trkpt lat="42.24414" lon="3.22613">
        <ele>6.8000001907349</ele>
        <time>2015-05-07T09:26:45Z</time>
      </trkpt>
      <trkpt lat="42.24414" lon="3.22613">
        <ele>6.8000001907349</ele>
        <time>2015-05-07T09:26:48Z</time>
      </trkpt>
      <trkpt lat="42.24414" lon="3.22612">
        <ele>6.5999999046326</ele>
        <time>2015-05-07T09:26:56Z</time>
      </trkpt>
      <trkpt lat="42.24414" lon="3.22612">
        <ele>6.8000001907349</ele>
        <time>2015-05-07T09:26:57Z</time>
      </trkpt>
      <trkpt lat="42.24414" lon="3.22612">
        <ele>6.8000001907349</ele>
        <time>2015-05-07T09:27:01Z</time>
      </trkpt>
      <trkpt lat="42.24414" lon="3.22612">
        <ele>6.8000001907349</ele>
        <time>2015-05-07T09:27:06Z</time>
      </trkpt>
      <trkpt lat="42.24414" lon="3.22611">
        <ele>6.8000001907349</ele>
        <time>2015-05-07T09:27:13Z</time>
      </trkpt>
      <trkpt lat="42.24413" lon="3.22611">
        <ele>6.8000001907349</ele>
        <time>2015-05-07T09:27:16Z</time>
      </trkpt>
      <trkpt lat="42.24413" lon="3.22611">
        <ele>6.8000001907349</ele>
        <time>2015-05-07T09:27:18Z</time>
      </trkpt>
      <trkpt lat="42.24414" lon="3.2261">
        <ele>6.8000001907349</ele>
        <time>2015-05-07T09:27:26Z</time>
      </trkpt>
      <trkpt lat="42.24414" lon="3.2261">
        <ele>6.8000001907349</ele>
        <time>2015-05-07T09:27:29Z</time>
      </trkpt>
      <trkpt lat="42.24414" lon="3.22609">
        <ele>6.8000001907349</ele>
        <time>2015-05-07T09:27:35Z</time>
      </trkpt>
      <trkpt lat="42.24415" lon="3.22606">
        <ele>7.1999998092651</ele>
        <time>2015-05-07T09:27:48Z</time>
      </trkpt>
      <trkpt lat="42.24415" lon="3.226">
        <ele>7.8000001907349</ele>
        <time>2015-05-07T09:27:53Z</time>
      </trkpt>
      <trkpt lat="42.24415" lon="3.22598">
        <ele>8.3999996185303</ele>
        <time>2015-05-07T09:27:54Z</time>
      </trkpt>
      <trkpt lat="42.24415" lon="3.22596">
        <ele>8.8000001907349</ele>
        <time>2015-05-07T09:27:55Z</time>
      </trkpt>
      <trkpt lat="42.24415" lon="3.22593">
        <ele>9.3999996185303</ele>
        <time>2015-05-07T09:27:56Z</time>
      </trkpt>
      <trkpt lat="42.24414" lon="3.22593">
        <ele>10</ele>
        <time>2015-05-07T09:27:57Z</time>
      </trkpt>
      <trkpt lat="42.24414" lon="3.22589">
        <ele>10.800000190735</ele>
        <time>2015-05-07T09:27:59Z</time>
      </trkpt>
      <trkpt lat="42.24415" lon="3.22585">
        <ele>11.800000190735</ele>
        <time>2015-05-07T09:28:01Z</time>
      </trkpt>
      <trkpt lat="42.24415" lon="3.22584">
        <ele>12.39999961853</ele>
        <time>2015-05-07T09:28:02Z</time>
      </trkpt>
      <trkpt lat="42.24415" lon="3.22582">
        <ele>13</ele>
        <time>2015-05-07T09:28:03Z</time>
      </trkpt>
      <trkpt lat="42.24413" lon="3.22579">
        <ele>14.199999809265</ele>
        <time>2015-05-07T09:28:05Z</time>
      </trkpt>
      <trkpt lat="42.24412" lon="3.22578">
        <ele>14.60000038147</ele>
        <time>2015-05-07T09:28:06Z</time>
      </trkpt>
      <trkpt lat="42.24411" lon="3.22577">
        <ele>15</ele>
        <time>2015-05-07T09:28:07Z</time>
      </trkpt>
      <trkpt lat="42.2441" lon="3.22576">
        <ele>15.800000190735</ele>
        <time>2015-05-07T09:28:08Z</time>
      </trkpt>
      <trkpt lat="42.24408" lon="3.22571">
        <ele>17</ele>
        <time>2015-05-07T09:28:11Z</time>
      </trkpt>
      <trkpt lat="42.24408" lon="3.22571">
        <ele>17.60000038147</ele>
        <time>2015-05-07T09:28:12Z</time>
      </trkpt>
      <trkpt lat="42.24407" lon="3.2257">
        <ele>18.200000762939</ele>
        <time>2015-05-07T09:28:13Z</time>
      </trkpt>
      <trkpt lat="42.24406" lon="3.22568">
        <ele>18.799999237061</ele>
        <time>2015-05-07T09:28:14Z</time>
      </trkpt>
      <trkpt lat="42.24405" lon="3.22567">
        <ele>19.200000762939</ele>
        <time>2015-05-07T09:28:15Z</time>
      </trkpt>
      <trkpt lat="42.24405" lon="3.22565">
        <ele>19.799999237061</ele>
        <time>2015-05-07T09:28:16Z</time>
      </trkpt>
      <trkpt lat="42.24403" lon="3.22564">
        <ele>20.200000762939</ele>
        <time>2015-05-07T09:28:17Z</time>
      </trkpt>
      <trkpt lat="42.24403" lon="3.22563">
        <ele>20.60000038147</ele>
        <time>2015-05-07T09:28:18Z</time>
      </trkpt>
      <trkpt lat="42.244" lon="3.22558">
        <ele>21.60000038147</ele>
        <time>2015-05-07T09:28:21Z</time>
      </trkpt>
      <trkpt lat="42.24399" lon="3.22554">
        <ele>22.39999961853</ele>
        <time>2015-05-07T09:28:23Z</time>
      </trkpt>
      <trkpt lat="42.24398" lon="3.22552">
        <ele>22.799999237061</ele>
        <time>2015-05-07T09:28:24Z</time>
      </trkpt>
      <trkpt lat="42.24395" lon="3.22548">
        <ele>24</ele>
        <time>2015-05-07T09:28:27Z</time>
      </trkpt>
      <trkpt lat="42.24394" lon="3.22546">
        <ele>24.60000038147</ele>
        <time>2015-05-07T09:28:28Z</time>
      </trkpt>
      <trkpt lat="42.24393" lon="3.22545">
        <ele>25</ele>
        <time>2015-05-07T09:28:29Z</time>
      </trkpt>
      <trkpt lat="42.24391" lon="3.22544">
        <ele>25.60000038147</ele>
        <time>2015-05-07T09:28:30Z</time>
      </trkpt>
      <trkpt lat="42.24388" lon="3.2254">
        <ele>26.60000038147</ele>
        <time>2015-05-07T09:28:33Z</time>
      </trkpt>
      <trkpt lat="42.24387" lon="3.22538">
        <ele>26.799999237061</ele>
        <time>2015-05-07T09:28:34Z</time>
      </trkpt>
      <trkpt lat="42.24382" lon="3.22536">
        <ele>27.799999237061</ele>
        <time>2015-05-07T09:28:37Z</time>
      </trkpt>
      <trkpt lat="42.2438" lon="3.22537">
        <ele>28</ele>
        <time>2015-05-07T09:28:38Z</time>
      </trkpt>
      <trkpt lat="42.24376" lon="3.22539">
        <ele>28.799999237061</ele>
        <time>2015-05-07T09:28:41Z</time>
      </trkpt>
      <trkpt lat="42.24374" lon="3.2254">
        <ele>28.799999237061</ele>
        <time>2015-05-07T09:28:42Z</time>
      </trkpt>
      <trkpt lat="42.24372" lon="3.22541">
        <ele>29</ele>
        <time>2015-05-07T09:28:43Z</time>
      </trkpt>
      <trkpt lat="42.24371" lon="3.22543">
        <ele>29</ele>
        <time>2015-05-07T09:28:44Z</time>
      </trkpt>
      <trkpt lat="42.24367" lon="3.22546">
        <ele>28.60000038147</ele>
        <time>2015-05-07T09:28:46Z</time>
      </trkpt>
      <trkpt lat="42.24364" lon="3.2255">
        <ele>28.39999961853</ele>
        <time>2015-05-07T09:28:48Z</time>
      </trkpt>
      <trkpt lat="42.24362" lon="3.22551">
        <ele>28.200000762939</ele>
        <time>2015-05-07T09:28:49Z</time>
      </trkpt>
      <trkpt lat="42.24358" lon="3.22553">
        <ele>28.60000038147</ele>
        <time>2015-05-07T09:28:51Z</time>
      </trkpt>
      <trkpt lat="42.2435" lon="3.2256">
        <ele>29.799999237061</ele>
        <time>2015-05-07T09:28:56Z</time>
      </trkpt>
      <trkpt lat="42.24347" lon="3.22563">
        <ele>30</ele>
        <time>2015-05-07T09:28:58Z</time>
      </trkpt>
      <trkpt lat="42.24346" lon="3.22564">
        <ele>30.39999961853</ele>
        <time>2015-05-07T09:28:59Z</time>
      </trkpt>
      <trkpt lat="42.24344" lon="3.22565">
        <ele>30.60000038147</ele>
        <time>2015-05-07T09:29:00Z</time>
      </trkpt>
      <trkpt lat="42.24342" lon="3.22566">
        <ele>30.799999237061</ele>
        <time>2015-05-07T09:29:01Z</time>
      </trkpt>
      <trkpt lat="42.24341" lon="3.22566">
        <ele>31</ele>
        <time>2015-05-07T09:29:02Z</time>
      </trkpt>
      <trkpt lat="42.24339" lon="3.22566">
        <ele>31.39999961853</ele>
        <time>2015-05-07T09:29:03Z</time>
      </trkpt>
      <trkpt lat="42.24334" lon="3.22567">
        <ele>32.400001525879</ele>
        <time>2015-05-07T09:29:07Z</time>
      </trkpt>
      <trkpt lat="42.24332" lon="3.22567">
        <ele>32.799999237061</ele>
        <time>2015-05-07T09:29:08Z</time>
      </trkpt>
      <trkpt lat="42.24328" lon="3.22567">
        <ele>33.799999237061</ele>
        <time>2015-05-07T09:29:11Z</time>
      </trkpt>
      <trkpt lat="42.24327" lon="3.22567">
        <ele>34.200000762939</ele>
        <time>2015-05-07T09:29:12Z</time>
      </trkpt>
      <trkpt lat="42.24324" lon="3.22568">
        <ele>35</ele>
        <time>2015-05-07T09:29:14Z</time>
      </trkpt>
      <trkpt lat="42.24323" lon="3.22568">
        <ele>35.400001525879</ele>
        <time>2015-05-07T09:29:15Z</time>
      </trkpt>
      <trkpt lat="42.24319" lon="3.2257">
        <ele>36</ele>
        <time>2015-05-07T09:29:17Z</time>
      </trkpt>
      <trkpt lat="42.24315" lon="3.22575">
        <ele>37.200000762939</ele>
        <time>2015-05-07T09:29:20Z</time>
      </trkpt>
      <trkpt lat="42.24312" lon="3.22578">
        <ele>37.599998474121</ele>
        <time>2015-05-07T09:29:22Z</time>
      </trkpt>
      <trkpt lat="42.24303" lon="3.22583">
        <ele>37.799999237061</ele>
        <time>2015-05-07T09:29:27Z</time>
      </trkpt>
      <trkpt lat="42.24302" lon="3.22585">
        <ele>37.799999237061</ele>
        <time>2015-05-07T09:29:28Z</time>
      </trkpt>
      <trkpt lat="42.24298" lon="3.22591">
        <ele>37.799999237061</ele>
        <time>2015-05-07T09:29:31Z</time>
      </trkpt>
      <trkpt lat="42.24297" lon="3.22595">
        <ele>37.599998474121</ele>
        <time>2015-05-07T09:29:33Z</time>
      </trkpt>
      <trkpt lat="42.24295" lon="3.22599">
        <ele>36.799999237061</ele>
        <time>2015-05-07T09:29:35Z</time>
      </trkpt>
      <trkpt lat="42.24294" lon="3.22601">
        <ele>36.599998474121</ele>
        <time>2015-05-07T09:29:36Z</time>
      </trkpt>
      <trkpt lat="42.24292" lon="3.22603">
        <ele>36.200000762939</ele>
        <time>2015-05-07T09:29:37Z</time>
      </trkpt>
      <trkpt lat="42.2429" lon="3.22605">
        <ele>35.799999237061</ele>
        <time>2015-05-07T09:29:38Z</time>
      </trkpt>
      <trkpt lat="42.24285" lon="3.22612">
        <ele>35</ele>
        <time>2015-05-07T09:29:42Z</time>
      </trkpt>
      <trkpt lat="42.24283" lon="3.22613">
        <ele>34.799999237061</ele>
        <time>2015-05-07T09:29:43Z</time>
      </trkpt>
      <trkpt lat="42.24281" lon="3.22615">
        <ele>34.599998474121</ele>
        <time>2015-05-07T09:29:44Z</time>
      </trkpt>
      <trkpt lat="42.24279" lon="3.22617">
        <ele>34.400001525879</ele>
        <time>2015-05-07T09:29:45Z</time>
      </trkpt>
      <trkpt lat="42.24277" lon="3.22619">
        <ele>34</ele>
        <time>2015-05-07T09:29:46Z</time>
      </trkpt>
      <trkpt lat="42.24274" lon="3.22621">
        <ele>33.599998474121</ele>
        <time>2015-05-07T09:29:48Z</time>
      </trkpt>
      <trkpt lat="42.24269" lon="3.22621">
        <ele>33</ele>
        <time>2015-05-07T09:29:50Z</time>
      </trkpt>
      <trkpt lat="42.24268" lon="3.22622">
        <ele>32.799999237061</ele>
        <time>2015-05-07T09:29:51Z</time>
      </trkpt>
      <trkpt lat="42.24266" lon="3.22622">
        <ele>32.400001525879</ele>
        <time>2015-05-07T09:29:52Z</time>
      </trkpt>
      <trkpt lat="42.24261" lon="3.22625">
        <ele>31.200000762939</ele>
        <time>2015-05-07T09:29:54Z</time>
      </trkpt>
      <trkpt lat="42.24256" lon="3.22628">
        <ele>30</ele>
        <time>2015-05-07T09:29:56Z</time>
      </trkpt>
      <trkpt lat="42.24252" lon="3.22629">
        <ele>28.799999237061</ele>
        <time>2015-05-07T09:29:58Z</time>
      </trkpt>
      <trkpt lat="42.24249" lon="3.2263">
        <ele>28.39999961853</ele>
        <time>2015-05-07T09:29:59Z</time>
      </trkpt>
      <trkpt lat="42.24247" lon="3.2263">
        <ele>28</ele>
        <time>2015-05-07T09:30:00Z</time>
      </trkpt>
      <trkpt lat="42.24245" lon="3.2263">
        <ele>27.799999237061</ele>
        <time>2015-05-07T09:30:01Z</time>
      </trkpt>
      <trkpt lat="42.24236" lon="3.22627">
        <ele>27</ele>
        <time>2015-05-07T09:30:05Z</time>
      </trkpt>
      <trkpt lat="42.24226" lon="3.22616">
        <ele>29.200000762939</ele>
        <time>2015-05-07T09:30:12Z</time>
      </trkpt>
      <trkpt lat="42.24223" lon="3.22613">
        <ele>30.60000038147</ele>
        <time>2015-05-07T09:30:14Z</time>
      </trkpt>
      <trkpt lat="42.2422" lon="3.2261">
        <ele>31.799999237061</ele>
        <time>2015-05-07T09:30:16Z</time>
      </trkpt>
      <trkpt lat="42.24217" lon="3.22607">
        <ele>33.200000762939</ele>
        <time>2015-05-07T09:30:18Z</time>
      </trkpt>
      <trkpt lat="42.24215" lon="3.22604">
        <ele>34.599998474121</ele>
        <time>2015-05-07T09:30:20Z</time>
      </trkpt>
      <trkpt lat="42.24212" lon="3.22604">
        <ele>35.400001525879</ele>
        <time>2015-05-07T09:30:22Z</time>
      </trkpt>
      <trkpt lat="42.2421" lon="3.22605">
        <ele>36</ele>
        <time>2015-05-07T09:30:23Z</time>
      </trkpt>
      <trkpt lat="42.24208" lon="3.22605">
        <ele>36.400001525879</ele>
        <time>2015-05-07T09:30:24Z</time>
      </trkpt>
      <trkpt lat="42.24205" lon="3.22607">
        <ele>37</ele>
        <time>2015-05-07T09:30:26Z</time>
      </trkpt>
      <trkpt lat="42.24204" lon="3.22607">
        <ele>37.200000762939</ele>
        <time>2015-05-07T09:30:27Z</time>
      </trkpt>
      <trkpt lat="42.24202" lon="3.22609">
        <ele>37.200000762939</ele>
        <time>2015-05-07T09:30:28Z</time>
      </trkpt>
      <trkpt lat="42.24202" lon="3.22609">
        <ele>37.200000762939</ele>
        <time>2015-05-07T09:30:28Z</time>
      </trkpt>
      <trkpt lat="42.24193" lon="3.22611">
        <ele>37.799999237061</ele>
        <time>2015-05-07T09:30:33Z</time>
      </trkpt>
      <trkpt lat="42.24181" lon="3.22616">
        <ele>38</ele>
        <time>2015-05-07T09:30:39Z</time>
      </trkpt>
      <trkpt lat="42.2418" lon="3.22616">
        <ele>38.200000762939</ele>
        <time>2015-05-07T09:30:40Z</time>
      </trkpt>
      <trkpt lat="42.24173" lon="3.22624">
        <ele>38.400001525879</ele>
        <time>2015-05-07T09:30:46Z</time>
      </trkpt>
      <trkpt lat="42.24171" lon="3.22625">
        <ele>38.599998474121</ele>
        <time>2015-05-07T09:30:47Z</time>
      </trkpt>
      <trkpt lat="42.24167" lon="3.22633">
        <ele>38.799999237061</ele>
        <time>2015-05-07T09:30:51Z</time>
      </trkpt>
      <trkpt lat="42.24164" lon="3.22639">
        <ele>39</ele>
        <time>2015-05-07T09:30:53Z</time>
      </trkpt>
      <trkpt lat="42.24162" lon="3.22644">
        <ele>39</ele>
        <time>2015-05-07T09:30:55Z</time>
      </trkpt>
      <trkpt lat="42.24161" lon="3.22652">
        <ele>38.599998474121</ele>
        <time>2015-05-07T09:30:58Z</time>
      </trkpt>
      <trkpt lat="42.2416" lon="3.22658">
        <ele>38.400001525879</ele>
        <time>2015-05-07T09:31:00Z</time>
      </trkpt>
      <trkpt lat="42.24156" lon="3.2267">
        <ele>37.400001525879</ele>
        <time>2015-05-07T09:31:04Z</time>
      </trkpt>
      <trkpt lat="42.24155" lon="3.22673">
        <ele>37.400001525879</ele>
        <time>2015-05-07T09:31:05Z</time>
      </trkpt>
      <trkpt lat="42.24154" lon="3.22675">
        <ele>37.200000762939</ele>
        <time>2015-05-07T09:31:06Z</time>
      </trkpt>
      <trkpt lat="42.24149" lon="3.22688">
        <ele>36.599998474121</ele>
        <time>2015-05-07T09:31:10Z</time>
      </trkpt>
      <trkpt lat="42.24144" lon="3.22702">
        <ele>36.200000762939</ele>
        <time>2015-05-07T09:31:15Z</time>
      </trkpt>
      <trkpt lat="42.24144" lon="3.22705">
        <ele>35.799999237061</ele>
        <time>2015-05-07T09:31:16Z</time>
      </trkpt>
      <trkpt lat="42.24137" lon="3.22719">
        <ele>35.599998474121</ele>
        <time>2015-05-07T09:31:21Z</time>
      </trkpt>
      <trkpt lat="42.24131" lon="3.22732">
        <ele>35.400001525879</ele>
        <time>2015-05-07T09:31:27Z</time>
      </trkpt>
      <trkpt lat="42.24131" lon="3.22733">
        <ele>35</ele>
        <time>2015-05-07T09:31:33Z</time>
      </trkpt>
      <trkpt lat="42.2413" lon="3.22733">
        <ele>35.400001525879</ele>
        <time>2015-05-07T09:31:45Z</time>
      </trkpt>
      <trkpt lat="42.2413" lon="3.22733">
        <ele>35.200000762939</ele>
        <time>2015-05-07T09:31:49Z</time>
      </trkpt>
      <trkpt lat="42.2413" lon="3.22733">
        <ele>35.200000762939</ele>
        <time>2015-05-07T09:31:50Z</time>
      </trkpt>
      <trkpt lat="42.24129" lon="3.22733">
        <ele>35.200000762939</ele>
        <time>2015-05-07T09:32:02Z</time>
      </trkpt>
      <trkpt lat="42.24129" lon="3.22733">
        <ele>35.200000762939</ele>
        <time>2015-05-07T09:32:03Z</time>
      </trkpt>
      <trkpt lat="42.24129" lon="3.22733">
        <ele>35.200000762939</ele>
        <time>2015-05-07T09:32:04Z</time>
      </trkpt>
      <trkpt lat="42.24129" lon="3.22733">
        <ele>35.200000762939</ele>
        <time>2015-05-07T09:32:05Z</time>
      </trkpt>
      <trkpt lat="42.24129" lon="3.22733">
        <ele>35.200000762939</ele>
        <time>2015-05-07T09:32:06Z</time>
      </trkpt>
      <trkpt lat="42.24129" lon="3.22733">
        <ele>35.200000762939</ele>
        <time>2015-05-07T09:32:09Z</time>
      </trkpt>
      <trkpt lat="42.24129" lon="3.22733">
        <ele>35.200000762939</ele>
        <time>2015-05-07T09:32:21Z</time>
      </trkpt>
      <trkpt lat="42.24128" lon="3.22734">
        <ele>35.400001525879</ele>
        <time>2015-05-07T09:32:29Z</time>
      </trkpt>
      <trkpt lat="42.24129" lon="3.22739">
        <ele>35.400001525879</ele>
        <time>2015-05-07T09:32:33Z</time>
      </trkpt>
      <trkpt lat="42.24125" lon="3.22752">
        <ele>34.599998474121</ele>
        <time>2015-05-07T09:32:37Z</time>
      </trkpt>
      <trkpt lat="42.24121" lon="3.22761">
        <ele>33.200000762939</ele>
        <time>2015-05-07T09:32:40Z</time>
      </trkpt>
      <trkpt lat="42.24115" lon="3.22768">
        <ele>32</ele>
        <time>2015-05-07T09:32:43Z</time>
      </trkpt>
      <trkpt lat="42.24109" lon="3.22777">
        <ele>31.39999961853</ele>
        <time>2015-05-07T09:32:47Z</time>
      </trkpt>
      <trkpt lat="42.24103" lon="3.22787">
        <ele>31.200000762939</ele>
        <time>2015-05-07T09:32:51Z</time>
      </trkpt>
      <trkpt lat="42.24101" lon="3.22789">
        <ele>30.799999237061</ele>
        <time>2015-05-07T09:32:52Z</time>
      </trkpt>
      <trkpt lat="42.24099" lon="3.22792">
        <ele>30.60000038147</ele>
        <time>2015-05-07T09:32:53Z</time>
      </trkpt>
      <trkpt lat="42.24097" lon="3.22795">
        <ele>30.39999961853</ele>
        <time>2015-05-07T09:32:54Z</time>
      </trkpt>
      <trkpt lat="42.24094" lon="3.22798">
        <ele>29.799999237061</ele>
        <time>2015-05-07T09:32:56Z</time>
      </trkpt>
      <trkpt lat="42.24093" lon="3.228">
        <ele>29.799999237061</ele>
        <time>2015-05-07T09:32:57Z</time>
      </trkpt>
      <trkpt lat="42.2409" lon="3.22802">
        <ele>29.60000038147</ele>
        <time>2015-05-07T09:32:58Z</time>
      </trkpt>
      <trkpt lat="42.24086" lon="3.22804">
        <ele>29.39999961853</ele>
        <time>2015-05-07T09:33:00Z</time>
      </trkpt>
      <trkpt lat="42.24083" lon="3.22808">
        <ele>29.799999237061</ele>
        <time>2015-05-07T09:33:02Z</time>
      </trkpt>
      <trkpt lat="42.2408" lon="3.22812">
        <ele>30.60000038147</ele>
        <time>2015-05-07T09:33:04Z</time>
      </trkpt>
      <trkpt lat="42.24078" lon="3.22812">
        <ele>31</ele>
        <time>2015-05-07T09:33:05Z</time>
      </trkpt>
      <trkpt lat="42.24077" lon="3.22812">
        <ele>31.200000762939</ele>
        <time>2015-05-07T09:33:06Z</time>
      </trkpt>
      <trkpt lat="42.24075" lon="3.22812">
        <ele>31.60000038147</ele>
        <time>2015-05-07T09:33:07Z</time>
      </trkpt>
      <trkpt lat="42.24073" lon="3.22812">
        <ele>32</ele>
        <time>2015-05-07T09:33:08Z</time>
      </trkpt>
      <trkpt lat="42.24072" lon="3.2281">
        <ele>32.400001525879</ele>
        <time>2015-05-07T09:33:09Z</time>
      </trkpt>
      <trkpt lat="42.24071" lon="3.22807">
        <ele>32.599998474121</ele>
        <time>2015-05-07T09:33:10Z</time>
      </trkpt>
      <trkpt lat="42.2407" lon="3.22804">
        <ele>33</ele>
        <time>2015-05-07T09:33:11Z</time>
      </trkpt>
      <trkpt lat="42.24068" lon="3.22802">
        <ele>33.400001525879</ele>
        <time>2015-05-07T09:33:12Z</time>
      </trkpt>
      <trkpt lat="42.24062" lon="3.2279">
        <ele>34.400001525879</ele>
        <time>2015-05-07T09:33:16Z</time>
      </trkpt>
      <trkpt lat="42.2406" lon="3.22787">
        <ele>34.599998474121</ele>
        <time>2015-05-07T09:33:17Z</time>
      </trkpt>
      <trkpt lat="42.24059" lon="3.22785">
        <ele>34.799999237061</ele>
        <time>2015-05-07T09:33:18Z</time>
      </trkpt>
      <trkpt lat="42.24057" lon="3.22782">
        <ele>34.599998474121</ele>
        <time>2015-05-07T09:33:19Z</time>
      </trkpt>
      <trkpt lat="42.24052" lon="3.22773">
        <ele>34.599998474121</ele>
        <time>2015-05-07T09:33:22Z</time>
      </trkpt>
      <trkpt lat="42.24051" lon="3.22771">
        <ele>34.599998474121</ele>
        <time>2015-05-07T09:33:23Z</time>
      </trkpt>
      <trkpt lat="42.2405" lon="3.22768">
        <ele>34.599998474121</ele>
        <time>2015-05-07T09:33:24Z</time>
      </trkpt>
      <trkpt lat="42.24044" lon="3.22761">
        <ele>34.799999237061</ele>
        <time>2015-05-07T09:33:27Z</time>
      </trkpt>
      <trkpt lat="42.24042" lon="3.22759">
        <ele>35</ele>
        <time>2015-05-07T09:33:28Z</time>
      </trkpt>
      <trkpt lat="42.24038" lon="3.22751">
        <ele>35.599998474121</ele>
        <time>2015-05-07T09:33:31Z</time>
      </trkpt>
      <trkpt lat="42.24035" lon="3.22747">
        <ele>36.200000762939</ele>
        <time>2015-05-07T09:33:33Z</time>
      </trkpt>
      <trkpt lat="42.2403" lon="3.22743">
        <ele>36.799999237061</ele>
        <time>2015-05-07T09:33:35Z</time>
      </trkpt>
      <trkpt lat="42.24021" lon="3.2273">
        <ele>37.599998474121</ele>
        <time>2015-05-07T09:33:41Z</time>
      </trkpt>
      <trkpt lat="42.24017" lon="3.22725">
        <ele>38</ele>
        <time>2015-05-07T09:33:43Z</time>
      </trkpt>
      <trkpt lat="42.24015" lon="3.22723">
        <ele>38.200000762939</ele>
        <time>2015-05-07T09:33:44Z</time>
      </trkpt>
      <trkpt lat="42.24011" lon="3.22715">
        <ele>38.799999237061</ele>
        <time>2015-05-07T09:33:47Z</time>
      </trkpt>
      <trkpt lat="42.2401" lon="3.22713">
        <ele>39</ele>
        <time>2015-05-07T09:33:48Z</time>
      </trkpt>
      <trkpt lat="42.24009" lon="3.22708">
        <ele>39.200000762939</ele>
        <time>2015-05-07T09:33:50Z</time>
      </trkpt>
      <trkpt lat="42.24008" lon="3.22706">
        <ele>39.400001525879</ele>
        <time>2015-05-07T09:33:51Z</time>
      </trkpt>
      <trkpt lat="42.24005" lon="3.22699">
        <ele>39.799999237061</ele>
        <time>2015-05-07T09:33:54Z</time>
      </trkpt>
      <trkpt lat="42.24004" lon="3.22698">
        <ele>40</ele>
        <time>2015-05-07T09:33:55Z</time>
      </trkpt>
      <trkpt lat="42.24002" lon="3.22693">
        <ele>39</ele>
        <time>2015-05-07T09:33:59Z</time>
      </trkpt>
      <trkpt lat="42.24003" lon="3.22686">
        <ele>37.799999237061</ele>
        <time>2015-05-07T09:34:02Z</time>
      </trkpt>
      <trkpt lat="42.24004" lon="3.22684">
        <ele>37.400001525879</ele>
        <time>2015-05-07T09:34:03Z</time>
      </trkpt>
      <trkpt lat="42.24004" lon="3.2268">
        <ele>37.200000762939</ele>
        <time>2015-05-07T09:34:04Z</time>
      </trkpt>
      <trkpt lat="42.24005" lon="3.22673">
        <ele>36.599998474121</ele>
        <time>2015-05-07T09:34:07Z</time>
      </trkpt>
      <trkpt lat="42.24006" lon="3.22669">
        <ele>35.599998474121</ele>
        <time>2015-05-07T09:34:09Z</time>
      </trkpt>
      <trkpt lat="42.24006" lon="3.22667">
        <ele>35</ele>
        <time>2015-05-07T09:34:10Z</time>
      </trkpt>
      <trkpt lat="42.24007" lon="3.2266">
        <ele>33.799999237061</ele>
        <time>2015-05-07T09:34:12Z</time>
      </trkpt>
      <trkpt lat="42.24007" lon="3.22653">
        <ele>32.599998474121</ele>
        <time>2015-05-07T09:34:14Z</time>
      </trkpt>
      <trkpt lat="42.24007" lon="3.22647">
        <ele>31.39999961853</ele>
        <time>2015-05-07T09:34:16Z</time>
      </trkpt>
      <trkpt lat="42.24007" lon="3.22644">
        <ele>31</ele>
        <time>2015-05-07T09:34:17Z</time>
      </trkpt>
      <trkpt lat="42.24006" lon="3.2264">
        <ele>30.200000762939</ele>
        <time>2015-05-07T09:34:19Z</time>
      </trkpt>
      <trkpt lat="42.24005" lon="3.22632">
        <ele>28.39999961853</ele>
        <time>2015-05-07T09:34:22Z</time>
      </trkpt>
      <trkpt lat="42.24006" lon="3.22625">
        <ele>27.200000762939</ele>
        <time>2015-05-07T09:34:24Z</time>
      </trkpt>
      <trkpt lat="42.24007" lon="3.22622">
        <ele>26.60000038147</ele>
        <time>2015-05-07T09:34:25Z</time>
      </trkpt>
      <trkpt lat="42.24007" lon="3.22619">
        <ele>26</ele>
        <time>2015-05-07T09:34:26Z</time>
      </trkpt>
      <trkpt lat="42.24008" lon="3.22616">
        <ele>25.60000038147</ele>
        <time>2015-05-07T09:34:27Z</time>
      </trkpt>
      <trkpt lat="42.2401" lon="3.2261">
        <ele>24.60000038147</ele>
        <time>2015-05-07T09:34:29Z</time>
      </trkpt>
      <trkpt lat="42.24012" lon="3.22605">
        <ele>24.200000762939</ele>
        <time>2015-05-07T09:34:31Z</time>
      </trkpt>
      <trkpt lat="42.24014" lon="3.22599">
        <ele>23.39999961853</ele>
        <time>2015-05-07T09:34:33Z</time>
      </trkpt>
      <trkpt lat="42.24014" lon="3.22593">
        <ele>22.39999961853</ele>
        <time>2015-05-07T09:34:35Z</time>
      </trkpt>
      <trkpt lat="42.24017" lon="3.22586">
        <ele>21.39999961853</ele>
        <time>2015-05-07T09:34:37Z</time>
      </trkpt>
      <trkpt lat="42.24017" lon="3.22582">
        <ele>21</ele>
        <time>2015-05-07T09:34:38Z</time>
      </trkpt>
      <trkpt lat="42.24018" lon="3.22574">
        <ele>20</ele>
        <time>2015-05-07T09:34:40Z</time>
      </trkpt>
      <trkpt lat="42.24017" lon="3.22571">
        <ele>19.39999961853</ele>
        <time>2015-05-07T09:34:41Z</time>
      </trkpt>
      <trkpt lat="42.24016" lon="3.22568">
        <ele>18.799999237061</ele>
        <time>2015-05-07T09:34:42Z</time>
      </trkpt>
      <trkpt lat="42.24014" lon="3.22558">
        <ele>17.39999961853</ele>
        <time>2015-05-07T09:34:45Z</time>
      </trkpt>
      <trkpt lat="42.24014" lon="3.22554">
        <ele>17</ele>
        <time>2015-05-07T09:34:46Z</time>
      </trkpt>
      <trkpt lat="42.24014" lon="3.22551">
        <ele>16.60000038147</ele>
        <time>2015-05-07T09:34:47Z</time>
      </trkpt>
      <trkpt lat="42.24013" lon="3.22548">
        <ele>16.200000762939</ele>
        <time>2015-05-07T09:34:48Z</time>
      </trkpt>
      <trkpt lat="42.24012" lon="3.22544">
        <ele>15.60000038147</ele>
        <time>2015-05-07T09:34:49Z</time>
      </trkpt>
      <trkpt lat="42.24011" lon="3.22539">
        <ele>15.199999809265</ele>
        <time>2015-05-07T09:34:51Z</time>
      </trkpt>
      <trkpt lat="42.24009" lon="3.22532">
        <ele>14.60000038147</ele>
        <time>2015-05-07T09:34:53Z</time>
      </trkpt>
      <trkpt lat="42.24009" lon="3.22528">
        <ele>14.199999809265</ele>
        <time>2015-05-07T09:34:54Z</time>
      </trkpt>
      <trkpt lat="42.24008" lon="3.22525">
        <ele>13.60000038147</ele>
        <time>2015-05-07T09:34:55Z</time>
      </trkpt>
      <trkpt lat="42.24008" lon="3.2252">
        <ele>13</ele>
        <time>2015-05-07T09:34:56Z</time>
      </trkpt>
      <trkpt lat="42.24006" lon="3.22514">
        <ele>12.39999961853</ele>
        <time>2015-05-07T09:34:58Z</time>
      </trkpt>
      <trkpt lat="42.24004" lon="3.22511">
        <ele>11.800000190735</ele>
        <time>2015-05-07T09:34:59Z</time>
      </trkpt>
      <trkpt lat="42.24003" lon="3.22504">
        <ele>11</ele>
        <time>2015-05-07T09:35:01Z</time>
      </trkpt>
      <trkpt lat="42.24002" lon="3.225">
        <ele>10.800000190735</ele>
        <time>2015-05-07T09:35:02Z</time>
      </trkpt>
      <trkpt lat="42.24002" lon="3.22497">
        <ele>10.39999961853</ele>
        <time>2015-05-07T09:35:03Z</time>
      </trkpt>
      <trkpt lat="42.23999" lon="3.22495">
        <ele>10.199999809265</ele>
        <time>2015-05-07T09:35:04Z</time>
      </trkpt>
      <trkpt lat="42.23994" lon="3.22488">
        <ele>9.6000003814697</ele>
        <time>2015-05-07T09:35:07Z</time>
      </trkpt>
      <trkpt lat="42.23993" lon="3.22476">
        <ele>9.1999998092651</ele>
        <time>2015-05-07T09:35:11Z</time>
      </trkpt>
      <trkpt lat="42.23992" lon="3.22473">
        <ele>9.3999996185303</ele>
        <time>2015-05-07T09:35:13Z</time>
      </trkpt>
      <trkpt lat="42.2399" lon="3.22471">
        <ele>9.3999996185303</ele>
        <time>2015-05-07T09:35:15Z</time>
      </trkpt>
      <trkpt lat="42.23988" lon="3.22469">
        <ele>9</ele>
        <time>2015-05-07T09:35:17Z</time>
      </trkpt>
      <trkpt lat="42.23987" lon="3.22467">
        <ele>8.3999996185303</ele>
        <time>2015-05-07T09:35:19Z</time>
      </trkpt>
      <trkpt lat="42.23986" lon="3.22468">
        <ele>8</ele>
        <time>2015-05-07T09:35:20Z</time>
      </trkpt>
      <trkpt lat="42.23984" lon="3.22469">
        <ele>7</ele>
        <time>2015-05-07T09:35:23Z</time>
      </trkpt>
      <trkpt lat="42.23983" lon="3.2247">
        <ele>6.8000001907349</ele>
        <time>2015-05-07T09:35:24Z</time>
      </trkpt>
      <trkpt lat="42.23983" lon="3.22469">
        <ele>6.5999999046326</ele>
        <time>2015-05-07T09:35:25Z</time>
      </trkpt>
      <trkpt lat="42.23984" lon="3.22469">
        <ele>6</ele>
        <time>2015-05-07T09:35:26Z</time>
      </trkpt>
      <trkpt lat="42.23984" lon="3.22469">
        <ele>5.8000001907349</ele>
        <time>2015-05-07T09:35:27Z</time>
      </trkpt>
      <trkpt lat="42.23984" lon="3.22469">
        <ele>5.4000000953674</ele>
        <time>2015-05-07T09:35:28Z</time>
      </trkpt>
      <trkpt lat="42.23984" lon="3.22469">
        <ele>5.1999998092651</ele>
        <time>2015-05-07T09:35:29Z</time>
      </trkpt>
      <trkpt lat="42.23984" lon="3.22469">
        <ele>5.1999998092651</ele>
        <time>2015-05-07T09:35:30Z</time>
      </trkpt>
      <trkpt lat="42.23984" lon="3.22469">
        <ele>5.1999998092651</ele>
        <time>2015-05-07T09:35:31Z</time>
      </trkpt>
      <trkpt lat="42.23984" lon="3.22469">
        <ele>5.1999998092651</ele>
        <time>2015-05-07T09:35:37Z</time>
      </trkpt>
      <trkpt lat="42.23984" lon="3.22469">
        <ele>5.1999998092651</ele>
        <time>2015-05-07T09:35:38Z</time>
      </trkpt>
      <trkpt lat="42.23984" lon="3.22469">
        <ele>5.1999998092651</ele>
        <time>2015-05-07T09:35:41Z</time>
      </trkpt>
      <trkpt lat="42.23984" lon="3.2247">
        <ele>5.1999998092651</ele>
        <time>2015-05-07T09:35:42Z</time>
      </trkpt>
      <trkpt lat="42.23985" lon="3.22469">
        <ele>5.4000000953674</ele>
        <time>2015-05-07T09:35:49Z</time>
      </trkpt>
      <trkpt lat="42.23982" lon="3.22467">
        <ele>5.1999998092651</ele>
        <time>2015-05-07T09:35:56Z</time>
      </trkpt>
      <trkpt lat="42.2398" lon="3.22466">
        <ele>4.8000001907349</ele>
        <time>2015-05-07T09:35:58Z</time>
      </trkpt>
      <trkpt lat="42.23978" lon="3.22465">
        <ele>4.5999999046326</ele>
        <time>2015-05-07T09:35:59Z</time>
      </trkpt>
      <trkpt lat="42.23977" lon="3.22465">
        <ele>4.5999999046326</ele>
        <time>2015-05-07T09:36:00Z</time>
      </trkpt>
      <trkpt lat="42.23976" lon="3.22464">
        <ele>4.5999999046326</ele>
        <time>2015-05-07T09:36:01Z</time>
      </trkpt>
      <trkpt lat="42.23975" lon="3.22463">
        <ele>4.4000000953674</ele>
        <time>2015-05-07T09:36:02Z</time>
      </trkpt>
      <trkpt lat="42.23974" lon="3.22462">
        <ele>4.4000000953674</ele>
        <time>2015-05-07T09:36:04Z</time>
      </trkpt>
      <trkpt lat="42.23975" lon="3.22459">
        <ele>4.5999999046326</ele>
        <time>2015-05-07T09:36:08Z</time>
      </trkpt>
      <trkpt lat="42.23975" lon="3.22457">
        <ele>4.8000001907349</ele>
        <time>2015-05-07T09:36:09Z</time>
      </trkpt>
      <trkpt lat="42.23981" lon="3.22455">
        <ele>6</ele>
        <time>2015-05-07T09:36:12Z</time>
      </trkpt>
      <trkpt lat="42.23983" lon="3.22451">
        <ele>6.5999999046326</ele>
        <time>2015-05-07T09:36:13Z</time>
      </trkpt>
      <trkpt lat="42.23983" lon="3.22451">
        <ele>7</ele>
        <time>2015-05-07T09:36:14Z</time>
      </trkpt>
      <trkpt lat="42.23985" lon="3.22449">
        <ele>8.1999998092651</ele>
        <time>2015-05-07T09:36:16Z</time>
      </trkpt>
      <trkpt lat="42.23986" lon="3.22446">
        <ele>9.8000001907349</ele>
        <time>2015-05-07T09:36:18Z</time>
      </trkpt>
      <trkpt lat="42.23986" lon="3.22444">
        <ele>11.199999809265</ele>
        <time>2015-05-07T09:36:20Z</time>
      </trkpt>
      <trkpt lat="42.23984" lon="3.22441">
        <ele>12.800000190735</ele>
        <time>2015-05-07T09:36:22Z</time>
      </trkpt>
      <trkpt lat="42.23983" lon="3.22439">
        <ele>14</ele>
        <time>2015-05-07T09:36:24Z</time>
      </trkpt>
      <trkpt lat="42.23984" lon="3.22437">
        <ele>14.60000038147</ele>
        <time>2015-05-07T09:36:25Z</time>
      </trkpt>
      <trkpt lat="42.23986" lon="3.22434">
        <ele>15.39999961853</ele>
        <time>2015-05-07T09:36:26Z</time>
      </trkpt>
      <trkpt lat="42.23988" lon="3.22432">
        <ele>16.60000038147</ele>
        <time>2015-05-07T09:36:28Z</time>
      </trkpt>
      <trkpt lat="42.23986" lon="3.22428">
        <ele>18</ele>
        <time>2015-05-07T09:36:30Z</time>
      </trkpt>
      <trkpt lat="42.23987" lon="3.22424">
        <ele>19.200000762939</ele>
        <time>2015-05-07T09:36:32Z</time>
      </trkpt>
      <trkpt lat="42.23987" lon="3.22423">
        <ele>19.60000038147</ele>
        <time>2015-05-07T09:36:33Z</time>
      </trkpt>
      <trkpt lat="42.23988" lon="3.22421">
        <ele>20.39999961853</ele>
        <time>2015-05-07T09:36:34Z</time>
      </trkpt>
      <trkpt lat="42.23989" lon="3.22419">
        <ele>21.39999961853</ele>
        <time>2015-05-07T09:36:36Z</time>
      </trkpt>
      <trkpt lat="42.23986" lon="3.22415">
        <ele>22.60000038147</ele>
        <time>2015-05-07T09:36:39Z</time>
      </trkpt>
      <trkpt lat="42.23985" lon="3.22415">
        <ele>23</ele>
        <time>2015-05-07T09:36:40Z</time>
      </trkpt>
      <trkpt lat="42.23982" lon="3.22415">
        <ele>23.799999237061</ele>
        <time>2015-05-07T09:36:42Z</time>
      </trkpt>
      <trkpt lat="42.23981" lon="3.22413">
        <ele>24.799999237061</ele>
        <time>2015-05-07T09:36:44Z</time>
      </trkpt>
      <trkpt lat="42.23979" lon="3.22412">
        <ele>25.39999961853</ele>
        <time>2015-05-07T09:36:45Z</time>
      </trkpt>
      <trkpt lat="42.23975" lon="3.22412">
        <ele>26.60000038147</ele>
        <time>2015-05-07T09:36:48Z</time>
      </trkpt>
      <trkpt lat="42.23973" lon="3.22412">
        <ele>27.200000762939</ele>
        <time>2015-05-07T09:36:49Z</time>
      </trkpt>
      <trkpt lat="42.23969" lon="3.22413">
        <ele>28</ele>
        <time>2015-05-07T09:36:51Z</time>
      </trkpt>
      <trkpt lat="42.23965" lon="3.22411">
        <ele>29</ele>
        <time>2015-05-07T09:36:53Z</time>
      </trkpt>
      <trkpt lat="42.23964" lon="3.2241">
        <ele>29.39999961853</ele>
        <time>2015-05-07T09:36:54Z</time>
      </trkpt>
      <trkpt lat="42.23961" lon="3.22406">
        <ele>30.60000038147</ele>
        <time>2015-05-07T09:36:57Z</time>
      </trkpt>
      <trkpt lat="42.23958" lon="3.22405">
        <ele>31.200000762939</ele>
        <time>2015-05-07T09:36:59Z</time>
      </trkpt>
      <trkpt lat="42.23956" lon="3.22406">
        <ele>31.39999961853</ele>
        <time>2015-05-07T09:37:00Z</time>
      </trkpt>
      <trkpt lat="42.23954" lon="3.22406">
        <ele>31.799999237061</ele>
        <time>2015-05-07T09:37:01Z</time>
      </trkpt>
      <trkpt lat="42.23948" lon="3.22404">
        <ele>32</ele>
        <time>2015-05-07T09:37:04Z</time>
      </trkpt>
      <trkpt lat="42.23946" lon="3.22404">
        <ele>32.200000762939</ele>
        <time>2015-05-07T09:37:05Z</time>
      </trkpt>
      <trkpt lat="42.23944" lon="3.22403">
        <ele>32</ele>
        <time>2015-05-07T09:37:06Z</time>
      </trkpt>
      <trkpt lat="42.23938" lon="3.22398">
        <ele>33</ele>
        <time>2015-05-07T09:37:11Z</time>
      </trkpt>
      <trkpt lat="42.23933" lon="3.22394">
        <ele>33.799999237061</ele>
        <time>2015-05-07T09:37:15Z</time>
      </trkpt>
      <trkpt lat="42.23933" lon="3.22393">
        <ele>34.200000762939</ele>
        <time>2015-05-07T09:37:16Z</time>
      </trkpt>
      <trkpt lat="42.23932" lon="3.22392">
        <ele>34.400001525879</ele>
        <time>2015-05-07T09:37:17Z</time>
      </trkpt>
      <trkpt lat="42.23928" lon="3.22391">
        <ele>35.200000762939</ele>
        <time>2015-05-07T09:37:19Z</time>
      </trkpt>
      <trkpt lat="42.23925" lon="3.22388">
        <ele>36.200000762939</ele>
        <time>2015-05-07T09:37:22Z</time>
      </trkpt>
      <trkpt lat="42.23923" lon="3.22388">
        <ele>36.599998474121</ele>
        <time>2015-05-07T09:37:23Z</time>
      </trkpt>
      <trkpt lat="42.23922" lon="3.22386">
        <ele>37.400001525879</ele>
        <time>2015-05-07T09:37:25Z</time>
      </trkpt>
      <trkpt lat="42.23919" lon="3.22384">
        <ele>37.799999237061</ele>
        <time>2015-05-07T09:37:27Z</time>
      </trkpt>
      <trkpt lat="42.23917" lon="3.22383">
        <ele>37.799999237061</ele>
        <time>2015-05-07T09:37:28Z</time>
      </trkpt>
      <trkpt lat="42.23916" lon="3.22384">
        <ele>38.200000762939</ele>
        <time>2015-05-07T09:37:29Z</time>
      </trkpt>
      <trkpt lat="42.23914" lon="3.22385">
        <ele>38.400001525879</ele>
        <time>2015-05-07T09:37:31Z</time>
      </trkpt>
      <trkpt lat="42.23911" lon="3.22386">
        <ele>38.799999237061</ele>
        <time>2015-05-07T09:37:33Z</time>
      </trkpt>
      <trkpt lat="42.23909" lon="3.22385">
        <ele>39</ele>
        <time>2015-05-07T09:37:35Z</time>
      </trkpt>
      <trkpt lat="42.23906" lon="3.22384">
        <ele>39.599998474121</ele>
        <time>2015-05-07T09:37:37Z</time>
      </trkpt>
      <trkpt lat="42.23901" lon="3.22384">
        <ele>40.799999237061</ele>
        <time>2015-05-07T09:37:40Z</time>
      </trkpt>
      <trkpt lat="42.239" lon="3.22384">
        <ele>41.400001525879</ele>
        <time>2015-05-07T09:37:41Z</time>
      </trkpt>
      <trkpt lat="42.23899" lon="3.22382">
        <ele>41.799999237061</ele>
        <time>2015-05-07T09:37:42Z</time>
      </trkpt>
      <trkpt lat="42.23898" lon="3.22382">
        <ele>42.200000762939</ele>
        <time>2015-05-07T09:37:43Z</time>
      </trkpt>
      <trkpt lat="42.23896" lon="3.22381">
        <ele>43.200000762939</ele>
        <time>2015-05-07T09:37:45Z</time>
      </trkpt>
      <trkpt lat="42.23894" lon="3.22381">
        <ele>43.599998474121</ele>
        <time>2015-05-07T09:37:46Z</time>
      </trkpt>
      <trkpt lat="42.23893" lon="3.22381">
        <ele>44</ele>
        <time>2015-05-07T09:37:47Z</time>
      </trkpt>
      <trkpt lat="42.23892" lon="3.22381">
        <ele>44.400001525879</ele>
        <time>2015-05-07T09:37:48Z</time>
      </trkpt>
      <trkpt lat="42.23886" lon="3.22382">
        <ele>45.599998474121</ele>
        <time>2015-05-07T09:37:51Z</time>
      </trkpt>
      <trkpt lat="42.23885" lon="3.22382">
        <ele>46</ele>
        <time>2015-05-07T09:37:52Z</time>
      </trkpt>
      <trkpt lat="42.23875" lon="3.22381">
        <ele>46</ele>
        <time>2015-05-07T09:37:58Z</time>
      </trkpt>
      <trkpt lat="42.23869" lon="3.22379">
        <ele>46.599998474121</ele>
        <time>2015-05-07T09:38:02Z</time>
      </trkpt>
      <trkpt lat="42.23868" lon="3.2238">
        <ele>46.799999237061</ele>
        <time>2015-05-07T09:38:03Z</time>
      </trkpt>
      <trkpt lat="42.23866" lon="3.22381">
        <ele>47.200000762939</ele>
        <time>2015-05-07T09:38:04Z</time>
      </trkpt>
      <trkpt lat="42.23864" lon="3.22382">
        <ele>47.400001525879</ele>
        <time>2015-05-07T09:38:05Z</time>
      </trkpt>
      <trkpt lat="42.23861" lon="3.22381">
        <ele>47.799999237061</ele>
        <time>2015-05-07T09:38:07Z</time>
      </trkpt>
      <trkpt lat="42.23856" lon="3.22382">
        <ele>48.200000762939</ele>
        <time>2015-05-07T09:38:10Z</time>
      </trkpt>
      <trkpt lat="42.23854" lon="3.22382">
        <ele>48.200000762939</ele>
        <time>2015-05-07T09:38:11Z</time>
      </trkpt>
      <trkpt lat="42.23851" lon="3.22381">
        <ele>47.799999237061</ele>
        <time>2015-05-07T09:38:13Z</time>
      </trkpt>
      <trkpt lat="42.23849" lon="3.22381">
        <ele>47.799999237061</ele>
        <time>2015-05-07T09:38:14Z</time>
      </trkpt>
      <trkpt lat="42.23848" lon="3.2238">
        <ele>47.599998474121</ele>
        <time>2015-05-07T09:38:15Z</time>
      </trkpt>
      <trkpt lat="42.23841" lon="3.22381">
        <ele>47.400001525879</ele>
        <time>2015-05-07T09:38:19Z</time>
      </trkpt>
      <trkpt lat="42.2384" lon="3.22382">
        <ele>47.400001525879</ele>
        <time>2015-05-07T09:38:20Z</time>
      </trkpt>
      <trkpt lat="42.23835" lon="3.22382">
        <ele>47</ele>
        <time>2015-05-07T09:38:23Z</time>
      </trkpt>
      <trkpt lat="42.2383" lon="3.2238">
        <ele>47.400001525879</ele>
        <time>2015-05-07T09:38:26Z</time>
      </trkpt>
      <trkpt lat="42.23827" lon="3.22379">
        <ele>49</ele>
        <time>2015-05-07T09:38:29Z</time>
      </trkpt>
      <trkpt lat="42.23825" lon="3.2238">
        <ele>49.400001525879</ele>
        <time>2015-05-07T09:38:30Z</time>
      </trkpt>
      <trkpt lat="42.23824" lon="3.2238">
        <ele>50</ele>
        <time>2015-05-07T09:38:31Z</time>
      </trkpt>
      <trkpt lat="42.23822" lon="3.2238">
        <ele>50.400001525879</ele>
        <time>2015-05-07T09:38:32Z</time>
      </trkpt>
      <trkpt lat="42.23817" lon="3.22381">
        <ele>51</ele>
        <time>2015-05-07T09:38:35Z</time>
      </trkpt>
      <trkpt lat="42.23815" lon="3.22381">
        <ele>51</ele>
        <time>2015-05-07T09:38:36Z</time>
      </trkpt>
      <trkpt lat="42.23806" lon="3.22382">
        <ele>51.400001525879</ele>
        <time>2015-05-07T09:38:40Z</time>
      </trkpt>
      <trkpt lat="42.23802" lon="3.22382">
        <ele>51.400001525879</ele>
        <time>2015-05-07T09:38:42Z</time>
      </trkpt>
      <trkpt lat="42.238" lon="3.22381">
        <ele>51.400001525879</ele>
        <time>2015-05-07T09:38:43Z</time>
      </trkpt>
      <trkpt lat="42.23793" lon="3.22379">
        <ele>51.599998474121</ele>
        <time>2015-05-07T09:38:46Z</time>
      </trkpt>
      <trkpt lat="42.23788" lon="3.22375">
        <ele>51.400001525879</ele>
        <time>2015-05-07T09:38:49Z</time>
      </trkpt>
      <trkpt lat="42.23785" lon="3.22372">
        <ele>51.400001525879</ele>
        <time>2015-05-07T09:38:51Z</time>
      </trkpt>
      <trkpt lat="42.23771" lon="3.22362">
        <ele>50.799999237061</ele>
        <time>2015-05-07T09:38:58Z</time>
      </trkpt>
      <trkpt lat="42.23767" lon="3.22357">
        <ele>50.599998474121</ele>
        <time>2015-05-07T09:39:01Z</time>
      </trkpt>
      <trkpt lat="42.23766" lon="3.22356">
        <ele>50.799999237061</ele>
        <time>2015-05-07T09:39:02Z</time>
      </trkpt>
      <trkpt lat="42.23762" lon="3.22354">
        <ele>51</ele>
        <time>2015-05-07T09:39:04Z</time>
      </trkpt>
      <trkpt lat="42.23751" lon="3.22342">
        <ele>50.599998474121</ele>
        <time>2015-05-07T09:39:11Z</time>
      </trkpt>
      <trkpt lat="42.23747" lon="3.22335">
        <ele>50.400001525879</ele>
        <time>2015-05-07T09:39:14Z</time>
      </trkpt>
      <trkpt lat="42.23746" lon="3.22332">
        <ele>50.200000762939</ele>
        <time>2015-05-07T09:39:15Z</time>
      </trkpt>
      <trkpt lat="42.23745" lon="3.22325">
        <ele>50</ele>
        <time>2015-05-07T09:39:18Z</time>
      </trkpt>
      <trkpt lat="42.23747" lon="3.22315">
        <ele>50</ele>
        <time>2015-05-07T09:39:22Z</time>
      </trkpt>
      <trkpt lat="42.23749" lon="3.22313">
        <ele>50</ele>
        <time>2015-05-07T09:39:23Z</time>
      </trkpt>
      <trkpt lat="42.23754" lon="3.22313">
        <ele>50</ele>
        <time>2015-05-07T09:39:26Z</time>
      </trkpt>
      <trkpt lat="42.23765" lon="3.22311">
        <ele>50.799999237061</ele>
        <time>2015-05-07T09:39:32Z</time>
      </trkpt>
      <trkpt lat="42.23765" lon="3.22309">
        <ele>51</ele>
        <time>2015-05-07T09:39:33Z</time>
      </trkpt>
      <trkpt lat="42.23763" lon="3.223">
        <ele>52.200000762939</ele>
        <time>2015-05-07T09:39:37Z</time>
      </trkpt>
      <trkpt lat="42.23761" lon="3.223">
        <ele>52.200000762939</ele>
        <time>2015-05-07T09:39:38Z</time>
      </trkpt>
      <trkpt lat="42.23759" lon="3.22297">
        <ele>52.400001525879</ele>
        <time>2015-05-07T09:39:39Z</time>
      </trkpt>
      <trkpt lat="42.23758" lon="3.22295">
        <ele>52.400001525879</ele>
        <time>2015-05-07T09:39:40Z</time>
      </trkpt>
      <trkpt lat="42.23757" lon="3.22291">
        <ele>52.799999237061</ele>
        <time>2015-05-07T09:39:42Z</time>
      </trkpt>
      <trkpt lat="42.23756" lon="3.22285">
        <ele>53.200000762939</ele>
        <time>2015-05-07T09:39:45Z</time>
      </trkpt>
      <trkpt lat="42.23756" lon="3.22282">
        <ele>53.400001525879</ele>
        <time>2015-05-07T09:39:46Z</time>
      </trkpt>
      <trkpt lat="42.23756" lon="3.2228">
        <ele>53.799999237061</ele>
        <time>2015-05-07T09:39:47Z</time>
      </trkpt>
      <trkpt lat="42.23755" lon="3.22276">
        <ele>54.400001525879</ele>
        <time>2015-05-07T09:39:49Z</time>
      </trkpt>
      <trkpt lat="42.23755" lon="3.22273">
        <ele>54.599998474121</ele>
        <time>2015-05-07T09:39:50Z</time>
      </trkpt>
      <trkpt lat="42.23755" lon="3.22273">
        <ele>54.599998474121</ele>
        <time>2015-05-07T09:39:50Z</time>
      </trkpt>
      <trkpt lat="42.23755" lon="3.2227">
        <ele>55.200000762939</ele>
        <time>2015-05-07T09:39:52Z</time>
      </trkpt>
      <trkpt lat="42.23756" lon="3.22268">
        <ele>55.599998474121</ele>
        <time>2015-05-07T09:39:53Z</time>
      </trkpt>
      <trkpt lat="42.23757" lon="3.22265">
        <ele>56.200000762939</ele>
        <time>2015-05-07T09:39:55Z</time>
      </trkpt>
      <trkpt lat="42.23757" lon="3.22263">
        <ele>56.400001525879</ele>
        <time>2015-05-07T09:39:56Z</time>
      </trkpt>
      <trkpt lat="42.23758" lon="3.22262">
        <ele>56.599998474121</ele>
        <time>2015-05-07T09:39:57Z</time>
      </trkpt>
      <trkpt lat="42.23761" lon="3.22257">
        <ele>57.799999237061</ele>
        <time>2015-05-07T09:40:00Z</time>
      </trkpt>
      <trkpt lat="42.23764" lon="3.22253">
        <ele>58.799999237061</ele>
        <time>2015-05-07T09:40:03Z</time>
      </trkpt>
      <trkpt lat="42.23764" lon="3.22251">
        <ele>59</ele>
        <time>2015-05-07T09:40:04Z</time>
      </trkpt>
      <trkpt lat="42.23763" lon="3.22246">
        <ele>60.400001525879</ele>
        <time>2015-05-07T09:40:07Z</time>
      </trkpt>
      <trkpt lat="42.23762" lon="3.22244">
        <ele>60.599998474121</ele>
        <time>2015-05-07T09:40:08Z</time>
      </trkpt>
      <trkpt lat="42.23761" lon="3.2224">
        <ele>61.400001525879</ele>
        <time>2015-05-07T09:40:10Z</time>
      </trkpt>
      <trkpt lat="42.23762" lon="3.22235">
        <ele>62.400001525879</ele>
        <time>2015-05-07T09:40:12Z</time>
      </trkpt>
      <trkpt lat="42.23763" lon="3.22233">
        <ele>62.599998474121</ele>
        <time>2015-05-07T09:40:13Z</time>
      </trkpt>
      <trkpt lat="42.23763" lon="3.22228">
        <ele>63.200000762939</ele>
        <time>2015-05-07T09:40:15Z</time>
      </trkpt>
      <trkpt lat="42.23761" lon="3.22221">
        <ele>63.400001525879</ele>
        <time>2015-05-07T09:40:18Z</time>
      </trkpt>
      <trkpt lat="42.23756" lon="3.22209">
        <ele>62.799999237061</ele>
        <time>2015-05-07T09:40:23Z</time>
      </trkpt>
      <trkpt lat="42.23755" lon="3.22207">
        <ele>62.599998474121</ele>
        <time>2015-05-07T09:40:24Z</time>
      </trkpt>
      <trkpt lat="42.23754" lon="3.22204">
        <ele>62.400001525879</ele>
        <time>2015-05-07T09:40:25Z</time>
      </trkpt>
      <trkpt lat="42.23748" lon="3.222">
        <ele>62</ele>
        <time>2015-05-07T09:40:28Z</time>
      </trkpt>
      <trkpt lat="42.23746" lon="3.22196">
        <ele>62.200000762939</ele>
        <time>2015-05-07T09:40:31Z</time>
      </trkpt>
      <trkpt lat="42.23744" lon="3.22193">
        <ele>62.400001525879</ele>
        <time>2015-05-07T09:40:33Z</time>
      </trkpt>
      <trkpt lat="42.23742" lon="3.22189">
        <ele>62.400001525879</ele>
        <time>2015-05-07T09:40:35Z</time>
      </trkpt>
      <trkpt lat="42.2374" lon="3.22186">
        <ele>62</ele>
        <time>2015-05-07T09:40:38Z</time>
      </trkpt>
      <trkpt lat="42.23739" lon="3.22185">
        <ele>61.599998474121</ele>
        <time>2015-05-07T09:40:39Z</time>
      </trkpt>
      <trkpt lat="42.23738" lon="3.22184">
        <ele>61.200000762939</ele>
        <time>2015-05-07T09:40:40Z</time>
      </trkpt>
      <trkpt lat="42.23738" lon="3.22181">
        <ele>60.400001525879</ele>
        <time>2015-05-07T09:40:42Z</time>
      </trkpt>
      <trkpt lat="42.23737" lon="3.2218">
        <ele>59.799999237061</ele>
        <time>2015-05-07T09:40:43Z</time>
      </trkpt>
      <trkpt lat="42.23735" lon="3.22179">
        <ele>59.200000762939</ele>
        <time>2015-05-07T09:40:45Z</time>
      </trkpt>
      <trkpt lat="42.23735" lon="3.22178">
        <ele>58.799999237061</ele>
        <time>2015-05-07T09:40:46Z</time>
      </trkpt>
      <trkpt lat="42.23734" lon="3.22174">
        <ele>57.799999237061</ele>
        <time>2015-05-07T09:40:49Z</time>
      </trkpt>
      <trkpt lat="42.23734" lon="3.22173">
        <ele>57.400001525879</ele>
        <time>2015-05-07T09:40:50Z</time>
      </trkpt>
      <trkpt lat="42.23734" lon="3.22169">
        <ele>56</ele>
        <time>2015-05-07T09:40:53Z</time>
      </trkpt>
      <trkpt lat="42.23734" lon="3.2217">
        <ele>55.400001525879</ele>
        <time>2015-05-07T09:40:55Z</time>
      </trkpt>
      <trkpt lat="42.23734" lon="3.2217">
        <ele>55</ele>
        <time>2015-05-07T09:40:56Z</time>
      </trkpt>
      <trkpt lat="42.23734" lon="3.22168">
        <ele>54.799999237061</ele>
        <time>2015-05-07T09:40:57Z</time>
      </trkpt>
      <trkpt lat="42.23734" lon="3.22169">
        <ele>54.799999237061</ele>
        <time>2015-05-07T09:41:01Z</time>
      </trkpt>
      <trkpt lat="42.23734" lon="3.22169">
        <ele>54.599998474121</ele>
        <time>2015-05-07T09:41:08Z</time>
      </trkpt>
      <trkpt lat="42.23734" lon="3.22173">
        <ele>54.799999237061</ele>
        <time>2015-05-07T09:41:16Z</time>
      </trkpt>
      <trkpt lat="42.23734" lon="3.22173">
        <ele>54.799999237061</ele>
        <time>2015-05-07T09:41:17Z</time>
      </trkpt>
      <trkpt lat="42.23734" lon="3.22173">
        <ele>54.799999237061</ele>
        <time>2015-05-07T09:41:21Z</time>
      </trkpt>
      <trkpt lat="42.23735" lon="3.22174">
        <ele>54.799999237061</ele>
        <time>2015-05-07T09:41:26Z</time>
      </trkpt>
      <trkpt lat="42.23735" lon="3.22174">
        <ele>54.799999237061</ele>
        <time>2015-05-07T09:41:27Z</time>
      </trkpt>
      <trkpt lat="42.23735" lon="3.22175">
        <ele>54.799999237061</ele>
        <time>2015-05-07T09:41:28Z</time>
      </trkpt>
      <trkpt lat="42.23735" lon="3.22175">
        <ele>54.799999237061</ele>
        <time>2015-05-07T09:41:31Z</time>
      </trkpt>
      <trkpt lat="42.23735" lon="3.22175">
        <ele>54.799999237061</ele>
        <time>2015-05-07T09:41:32Z</time>
      </trkpt>
      <trkpt lat="42.23735" lon="3.22175">
        <ele>54.799999237061</ele>
        <time>2015-05-07T09:41:33Z</time>
      </trkpt>
      <trkpt lat="42.23734" lon="3.22175">
        <ele>54.599998474121</ele>
        <time>2015-05-07T09:41:36Z</time>
      </trkpt>
      <trkpt lat="42.23734" lon="3.22176">
        <ele>54.799999237061</ele>
        <time>2015-05-07T09:41:41Z</time>
      </trkpt>
      <trkpt lat="42.23735" lon="3.22176">
        <ele>54.799999237061</ele>
        <time>2015-05-07T09:41:48Z</time>
      </trkpt>
      <trkpt lat="42.23735" lon="3.22176">
        <ele>54.599998474121</ele>
        <time>2015-05-07T09:41:50Z</time>
      </trkpt>
      <trkpt lat="42.23734" lon="3.22176">
        <ele>54.799999237061</ele>
        <time>2015-05-07T09:41:54Z</time>
      </trkpt>
      <trkpt lat="42.23735" lon="3.22178">
        <ele>55</ele>
        <time>2015-05-07T09:42:02Z</time>
      </trkpt>
      <trkpt lat="42.23734" lon="3.22178">
        <ele>55.200000762939</ele>
        <time>2015-05-07T09:42:07Z</time>
      </trkpt>
      <trkpt lat="42.23734" lon="3.22177">
        <ele>55</ele>
        <time>2015-05-07T09:42:09Z</time>
      </trkpt>
      <trkpt lat="42.23734" lon="3.22178">
        <ele>55</ele>
        <time>2015-05-07T09:42:16Z</time>
      </trkpt>
      <trkpt lat="42.23734" lon="3.22178">
        <ele>55.400001525879</ele>
        <time>2015-05-07T09:42:30Z</time>
      </trkpt>
      <trkpt lat="42.23735" lon="3.22178">
        <ele>54.799999237061</ele>
        <time>2015-05-07T09:42:39Z</time>
      </trkpt>
      <trkpt lat="42.23734" lon="3.22177">
        <ele>54.799999237061</ele>
        <time>2015-05-07T09:42:52Z</time>
      </trkpt>
      <trkpt lat="42.23734" lon="3.22177">
        <ele>54.799999237061</ele>
        <time>2015-05-07T09:42:58Z</time>
      </trkpt>
      <trkpt lat="42.23734" lon="3.22177">
        <ele>54.799999237061</ele>
        <time>2015-05-07T09:43:03Z</time>
      </trkpt>
      <trkpt lat="42.23736" lon="3.22175">
        <ele>54.799999237061</ele>
        <time>2015-05-07T09:43:08Z</time>
      </trkpt>
      <trkpt lat="42.23736" lon="3.22174">
        <ele>54.799999237061</ele>
        <time>2015-05-07T09:43:09Z</time>
      </trkpt>
      <trkpt lat="42.23733" lon="3.22168">
        <ele>54</ele>
        <time>2015-05-07T09:43:14Z</time>
      </trkpt>
      <trkpt lat="42.23733" lon="3.22166">
        <ele>54</ele>
        <time>2015-05-07T09:43:15Z</time>
      </trkpt>
      <trkpt lat="42.23734" lon="3.22164">
        <ele>53.799999237061</ele>
        <time>2015-05-07T09:43:16Z</time>
      </trkpt>
      <trkpt lat="42.23733" lon="3.2216">
        <ele>52.799999237061</ele>
        <time>2015-05-07T09:43:19Z</time>
      </trkpt>
      <trkpt lat="42.23729" lon="3.2216">
        <ele>51.599998474121</ele>
        <time>2015-05-07T09:43:22Z</time>
      </trkpt>
      <trkpt lat="42.23729" lon="3.22158">
        <ele>50.400001525879</ele>
        <time>2015-05-07T09:43:24Z</time>
      </trkpt>
      <trkpt lat="42.23728" lon="3.22156">
        <ele>50</ele>
        <time>2015-05-07T09:43:25Z</time>
      </trkpt>
      <trkpt lat="42.23727" lon="3.22156">
        <ele>49.599998474121</ele>
        <time>2015-05-07T09:43:26Z</time>
      </trkpt>
      <trkpt lat="42.23727" lon="3.22156">
        <ele>49</ele>
        <time>2015-05-07T09:43:27Z</time>
      </trkpt>
      <trkpt lat="42.23724" lon="3.22156">
        <ele>47.599998474121</ele>
        <time>2015-05-07T09:43:30Z</time>
      </trkpt>
      <trkpt lat="42.23724" lon="3.22157">
        <ele>47.200000762939</ele>
        <time>2015-05-07T09:43:31Z</time>
      </trkpt>
      <trkpt lat="42.23721" lon="3.22158">
        <ele>46.599998474121</ele>
        <time>2015-05-07T09:43:34Z</time>
      </trkpt>
      <trkpt lat="42.23719" lon="3.22153">
        <ele>45.400001525879</ele>
        <time>2015-05-07T09:43:39Z</time>
      </trkpt>
      <trkpt lat="42.23718" lon="3.22154">
        <ele>45.200000762939</ele>
        <time>2015-05-07T09:43:40Z</time>
      </trkpt>
      <trkpt lat="42.23716" lon="3.22152">
        <ele>44.200000762939</ele>
        <time>2015-05-07T09:43:42Z</time>
      </trkpt>
      <trkpt lat="42.23717" lon="3.2215">
        <ele>43.599998474121</ele>
        <time>2015-05-07T09:43:43Z</time>
      </trkpt>
      <trkpt lat="42.23718" lon="3.22148">
        <ele>42.799999237061</ele>
        <time>2015-05-07T09:43:45Z</time>
      </trkpt>
      <trkpt lat="42.23718" lon="3.22146">
        <ele>42.400001525879</ele>
        <time>2015-05-07T09:43:46Z</time>
      </trkpt>
      <trkpt lat="42.23719" lon="3.22142">
        <ele>41.400001525879</ele>
        <time>2015-05-07T09:43:49Z</time>
      </trkpt>
      <trkpt lat="42.23719" lon="3.22143">
        <ele>40.599998474121</ele>
        <time>2015-05-07T09:43:51Z</time>
      </trkpt>
      <trkpt lat="42.23718" lon="3.22141">
        <ele>40.200000762939</ele>
        <time>2015-05-07T09:43:52Z</time>
      </trkpt>
      <trkpt lat="42.23718" lon="3.22139">
        <ele>39.599998474121</ele>
        <time>2015-05-07T09:43:54Z</time>
      </trkpt>
      <trkpt lat="42.23718" lon="3.22139">
        <ele>39.200000762939</ele>
        <time>2015-05-07T09:43:55Z</time>
      </trkpt>
      <trkpt lat="42.23718" lon="3.22139">
        <ele>39</ele>
        <time>2015-05-07T09:43:56Z</time>
      </trkpt>
      <trkpt lat="42.23714" lon="3.22137">
        <ele>38.200000762939</ele>
        <time>2015-05-07T09:44:00Z</time>
      </trkpt>
      <trkpt lat="42.23712" lon="3.22136">
        <ele>37.799999237061</ele>
        <time>2015-05-07T09:44:01Z</time>
      </trkpt>
      <trkpt lat="42.2371" lon="3.22135">
        <ele>36.799999237061</ele>
        <time>2015-05-07T09:44:03Z</time>
      </trkpt>
      <trkpt lat="42.23709" lon="3.22133">
        <ele>36.200000762939</ele>
        <time>2015-05-07T09:44:04Z</time>
      </trkpt>
      <trkpt lat="42.23708" lon="3.22131">
        <ele>35.799999237061</ele>
        <time>2015-05-07T09:44:05Z</time>
      </trkpt>
      <trkpt lat="42.23707" lon="3.22131">
        <ele>35.200000762939</ele>
        <time>2015-05-07T09:44:06Z</time>
      </trkpt>
      <trkpt lat="42.23707" lon="3.22131">
        <ele>34.599998474121</ele>
        <time>2015-05-07T09:44:07Z</time>
      </trkpt>
      <trkpt lat="42.23708" lon="3.22131">
        <ele>33.599998474121</ele>
        <time>2015-05-07T09:44:14Z</time>
      </trkpt>
      <trkpt lat="42.23707" lon="3.22128">
        <ele>33.599998474121</ele>
        <time>2015-05-07T09:44:15Z</time>
      </trkpt>
      <trkpt lat="42.23707" lon="3.22127">
        <ele>33.599998474121</ele>
        <time>2015-05-07T09:44:16Z</time>
      </trkpt>
      <trkpt lat="42.23707" lon="3.22127">
        <ele>33.599998474121</ele>
        <time>2015-05-07T09:44:17Z</time>
      </trkpt>
      <trkpt lat="42.23707" lon="3.22127">
        <ele>33.599998474121</ele>
        <time>2015-05-07T09:44:19Z</time>
      </trkpt>
      <trkpt lat="42.23707" lon="3.22127">
        <ele>33.599998474121</ele>
        <time>2015-05-07T09:44:21Z</time>
      </trkpt>
      <trkpt lat="42.23706" lon="3.22125">
        <ele>33.599998474121</ele>
        <time>2015-05-07T09:44:24Z</time>
      </trkpt>
      <trkpt lat="42.23706" lon="3.22124">
        <ele>33.799999237061</ele>
        <time>2015-05-07T09:44:29Z</time>
      </trkpt>
      <trkpt lat="42.23706" lon="3.22121">
        <ele>34</ele>
        <time>2015-05-07T09:44:36Z</time>
      </trkpt>
      <trkpt lat="42.23705" lon="3.22117">
        <ele>33.799999237061</ele>
        <time>2015-05-07T09:44:38Z</time>
      </trkpt>
      <trkpt lat="42.23704" lon="3.22115">
        <ele>34</ele>
        <time>2015-05-07T09:44:39Z</time>
      </trkpt>
      <trkpt lat="42.23702" lon="3.22114">
        <ele>34.200000762939</ele>
        <time>2015-05-07T09:44:40Z</time>
      </trkpt>
      <trkpt lat="42.23701" lon="3.22112">
        <ele>34.400001525879</ele>
        <time>2015-05-07T09:44:41Z</time>
      </trkpt>
      <trkpt lat="42.23702" lon="3.2211">
        <ele>35</ele>
        <time>2015-05-07T09:44:42Z</time>
      </trkpt>
      <trkpt lat="42.23702" lon="3.22105">
        <ele>35.799999237061</ele>
        <time>2015-05-07T09:44:44Z</time>
      </trkpt>
      <trkpt lat="42.23703" lon="3.22103">
        <ele>36.599998474121</ele>
        <time>2015-05-07T09:44:45Z</time>
      </trkpt>
      <trkpt lat="42.23704" lon="3.22101">
        <ele>37.599998474121</ele>
        <time>2015-05-07T09:44:46Z</time>
      </trkpt>
      <trkpt lat="42.23705" lon="3.22097">
        <ele>39.400001525879</ele>
        <time>2015-05-07T09:44:48Z</time>
      </trkpt>
      <trkpt lat="42.23704" lon="3.2209">
        <ele>41.200000762939</ele>
        <time>2015-05-07T09:44:50Z</time>
      </trkpt>
      <trkpt lat="42.23703" lon="3.22082">
        <ele>42.599998474121</ele>
        <time>2015-05-07T09:44:53Z</time>
      </trkpt>
      <trkpt lat="42.23703" lon="3.22079">
        <ele>42.799999237061</ele>
        <time>2015-05-07T09:44:54Z</time>
      </trkpt>
      <trkpt lat="42.23703" lon="3.22076">
        <ele>43</ele>
        <time>2015-05-07T09:44:55Z</time>
      </trkpt>
      <trkpt lat="42.23703" lon="3.22066">
        <ele>43.599998474121</ele>
        <time>2015-05-07T09:44:58Z</time>
      </trkpt>
      <trkpt lat="42.23703" lon="3.22061">
        <ele>44.200000762939</ele>
        <time>2015-05-07T09:45:00Z</time>
      </trkpt>
      <trkpt lat="42.23705" lon="3.22056">
        <ele>44.799999237061</ele>
        <time>2015-05-07T09:45:02Z</time>
      </trkpt>
      <trkpt lat="42.23704" lon="3.22047">
        <ele>45.799999237061</ele>
        <time>2015-05-07T09:45:05Z</time>
      </trkpt>
      <trkpt lat="42.23704" lon="3.22045">
        <ele>46.200000762939</ele>
        <time>2015-05-07T09:45:06Z</time>
      </trkpt>
      <trkpt lat="42.23703" lon="3.22038">
        <ele>46.799999237061</ele>
        <time>2015-05-07T09:45:09Z</time>
      </trkpt>
      <trkpt lat="42.23703" lon="3.22036">
        <ele>46.599998474121</ele>
        <time>2015-05-07T09:45:10Z</time>
      </trkpt>
      <trkpt lat="42.23702" lon="3.22029">
        <ele>46.599998474121</ele>
        <time>2015-05-07T09:45:14Z</time>
      </trkpt>
      <trkpt lat="42.23702" lon="3.22024">
        <ele>47</ele>
        <time>2015-05-07T09:45:16Z</time>
      </trkpt>
      <trkpt lat="42.23702" lon="3.22023">
        <ele>47.200000762939</ele>
        <time>2015-05-07T09:45:17Z</time>
      </trkpt>
      <trkpt lat="42.23699" lon="3.22014">
        <ele>48.200000762939</ele>
        <time>2015-05-07T09:45:20Z</time>
      </trkpt>
      <trkpt lat="42.23698" lon="3.22012">
        <ele>48.400001525879</ele>
        <time>2015-05-07T09:45:21Z</time>
      </trkpt>
      <trkpt lat="42.23696" lon="3.22009">
        <ele>48.400001525879</ele>
        <time>2015-05-07T09:45:23Z</time>
      </trkpt>
      <trkpt lat="42.23695" lon="3.22003">
        <ele>48</ele>
        <time>2015-05-07T09:45:25Z</time>
      </trkpt>
      <trkpt lat="42.23693" lon="3.21996">
        <ele>47.599998474121</ele>
        <time>2015-05-07T09:45:28Z</time>
      </trkpt>
      <trkpt lat="42.23692" lon="3.21994">
        <ele>47.400001525879</ele>
        <time>2015-05-07T09:45:29Z</time>
      </trkpt>
      <trkpt lat="42.23688" lon="3.21986">
        <ele>46.200000762939</ele>
        <time>2015-05-07T09:45:32Z</time>
      </trkpt>
      <trkpt lat="42.23685" lon="3.21983">
        <ele>45.200000762939</ele>
        <time>2015-05-07T09:45:34Z</time>
      </trkpt>
      <trkpt lat="42.23684" lon="3.21981">
        <ele>44.799999237061</ele>
        <time>2015-05-07T09:45:35Z</time>
      </trkpt>
      <trkpt lat="42.23682" lon="3.2198">
        <ele>44.400001525879</ele>
        <time>2015-05-07T09:45:36Z</time>
      </trkpt>
      <trkpt lat="42.23679" lon="3.2198">
        <ele>44</ele>
        <time>2015-05-07T09:45:38Z</time>
      </trkpt>
      <trkpt lat="42.23677" lon="3.2198">
        <ele>44</ele>
        <time>2015-05-07T09:45:39Z</time>
      </trkpt>
      <trkpt lat="42.23674" lon="3.21981">
        <ele>43</ele>
        <time>2015-05-07T09:45:42Z</time>
      </trkpt>
      <trkpt lat="42.23672" lon="3.21981">
        <ele>42.200000762939</ele>
        <time>2015-05-07T09:45:44Z</time>
      </trkpt>
      <trkpt lat="42.23671" lon="3.21979">
        <ele>41.799999237061</ele>
        <time>2015-05-07T09:45:45Z</time>
      </trkpt>
      <trkpt lat="42.2367" lon="3.21978">
        <ele>40.400001525879</ele>
        <time>2015-05-07T09:45:48Z</time>
      </trkpt>
      <trkpt lat="42.23669" lon="3.2198">
        <ele>39.799999237061</ele>
        <time>2015-05-07T09:45:49Z</time>
      </trkpt>
      <trkpt lat="42.23667" lon="3.21979">
        <ele>39</ele>
        <time>2015-05-07T09:45:51Z</time>
      </trkpt>
      <trkpt lat="42.23666" lon="3.21977">
        <ele>38.400001525879</ele>
        <time>2015-05-07T09:45:52Z</time>
      </trkpt>
      <trkpt lat="42.23664" lon="3.21977">
        <ele>37.799999237061</ele>
        <time>2015-05-07T09:45:54Z</time>
      </trkpt>
      <trkpt lat="42.23661" lon="3.21974">
        <ele>37</ele>
        <time>2015-05-07T09:45:56Z</time>
      </trkpt>
      <trkpt lat="42.23659" lon="3.21972">
        <ele>36.400001525879</ele>
        <time>2015-05-07T09:45:57Z</time>
      </trkpt>
      <trkpt lat="42.23658" lon="3.21967">
        <ele>35</ele>
        <time>2015-05-07T09:45:59Z</time>
      </trkpt>
      <trkpt lat="42.23656" lon="3.21968">
        <ele>34.599998474121</ele>
        <time>2015-05-07T09:46:01Z</time>
      </trkpt>
      <trkpt lat="42.23652" lon="3.21967">
        <ele>35.400001525879</ele>
        <time>2015-05-07T09:46:04Z</time>
      </trkpt>
      <trkpt lat="42.2365" lon="3.21966">
        <ele>36.200000762939</ele>
        <time>2015-05-07T09:46:06Z</time>
      </trkpt>
      <trkpt lat="42.23647" lon="3.21965">
        <ele>37.200000762939</ele>
        <time>2015-05-07T09:46:08Z</time>
      </trkpt>
      <trkpt lat="42.23645" lon="3.21965">
        <ele>37.599998474121</ele>
        <time>2015-05-07T09:46:09Z</time>
      </trkpt>
      <trkpt lat="42.23644" lon="3.21966">
        <ele>38</ele>
        <time>2015-05-07T09:46:10Z</time>
      </trkpt>
      <trkpt lat="42.2364" lon="3.21968">
        <ele>38.599998474121</ele>
        <time>2015-05-07T09:46:12Z</time>
      </trkpt>
      <trkpt lat="42.2363" lon="3.21975">
        <ele>39</ele>
        <time>2015-05-07T09:46:17Z</time>
      </trkpt>
      <trkpt lat="42.23625" lon="3.21976">
        <ele>38.799999237061</ele>
        <time>2015-05-07T09:46:19Z</time>
      </trkpt>
      <trkpt lat="42.23617" lon="3.21976">
        <ele>38.599998474121</ele>
        <time>2015-05-07T09:46:22Z</time>
      </trkpt>
      <trkpt lat="42.23616" lon="3.21976">
        <ele>38.599998474121</ele>
        <time>2015-05-07T09:46:23Z</time>
      </trkpt>
      <trkpt lat="42.23614" lon="3.21977">
        <ele>38.799999237061</ele>
        <time>2015-05-07T09:46:24Z</time>
      </trkpt>
      <trkpt lat="42.23606" lon="3.21977">
        <ele>39.799999237061</ele>
        <time>2015-05-07T09:46:28Z</time>
      </trkpt>
      <trkpt lat="42.23605" lon="3.21975">
        <ele>40.799999237061</ele>
        <time>2015-05-07T09:46:30Z</time>
      </trkpt>
      <trkpt lat="42.23602" lon="3.21974">
        <ele>41.599998474121</ele>
        <time>2015-05-07T09:46:32Z</time>
      </trkpt>
      <trkpt lat="42.236" lon="3.21975">
        <ele>42</ele>
        <time>2015-05-07T09:46:33Z</time>
      </trkpt>
      <trkpt lat="42.23596" lon="3.21977">
        <ele>43</ele>
        <time>2015-05-07T09:46:36Z</time>
      </trkpt>
      <trkpt lat="42.23586" lon="3.21979">
        <ele>44</ele>
        <time>2015-05-07T09:46:41Z</time>
      </trkpt>
      <trkpt lat="42.23584" lon="3.21979">
        <ele>44.200000762939</ele>
        <time>2015-05-07T09:46:42Z</time>
      </trkpt>
      <trkpt lat="42.23573" lon="3.21976">
        <ele>44.599998474121</ele>
        <time>2015-05-07T09:46:47Z</time>
      </trkpt>
      <trkpt lat="42.23572" lon="3.21977">
        <ele>44.599998474121</ele>
        <time>2015-05-07T09:46:48Z</time>
      </trkpt>
      <trkpt lat="42.23561" lon="3.21984">
        <ele>44.599998474121</ele>
        <time>2015-05-07T09:46:52Z</time>
      </trkpt>
      <trkpt lat="42.23552" lon="3.21988">
        <ele>43.799999237061</ele>
        <time>2015-05-07T09:46:56Z</time>
      </trkpt>
      <trkpt lat="42.23548" lon="3.2199">
        <ele>43.200000762939</ele>
        <time>2015-05-07T09:46:58Z</time>
      </trkpt>
      <trkpt lat="42.23539" lon="3.21994">
        <ele>43</ele>
        <time>2015-05-07T09:47:02Z</time>
      </trkpt>
      <trkpt lat="42.23535" lon="3.21998">
        <ele>42.799999237061</ele>
        <time>2015-05-07T09:47:04Z</time>
      </trkpt>
      <trkpt lat="42.23531" lon="3.22001">
        <ele>42.799999237061</ele>
        <time>2015-05-07T09:47:06Z</time>
      </trkpt>
      <trkpt lat="42.23518" lon="3.22012">
        <ele>42.200000762939</ele>
        <time>2015-05-07T09:47:12Z</time>
      </trkpt>
      <trkpt lat="42.23517" lon="3.22014">
        <ele>42</ele>
        <time>2015-05-07T09:47:13Z</time>
      </trkpt>
      <trkpt lat="42.23513" lon="3.22018">
        <ele>41.799999237061</ele>
        <time>2015-05-07T09:47:15Z</time>
      </trkpt>
      <trkpt lat="42.23507" lon="3.22024">
        <ele>41.200000762939</ele>
        <time>2015-05-07T09:47:18Z</time>
      </trkpt>
      <trkpt lat="42.23505" lon="3.22027">
        <ele>40.799999237061</ele>
        <time>2015-05-07T09:47:19Z</time>
      </trkpt>
      <trkpt lat="42.23498" lon="3.22033">
        <ele>40</ele>
        <time>2015-05-07T09:47:23Z</time>
      </trkpt>
      <trkpt lat="42.23496" lon="3.22034">
        <ele>40</ele>
        <time>2015-05-07T09:47:24Z</time>
      </trkpt>
      <trkpt lat="42.23491" lon="3.2204">
        <ele>40.200000762939</ele>
        <time>2015-05-07T09:47:27Z</time>
      </trkpt>
      <trkpt lat="42.23489" lon="3.22038">
        <ele>40.200000762939</ele>
        <time>2015-05-07T09:47:29Z</time>
      </trkpt>
      <trkpt lat="42.23483" lon="3.22039">
        <ele>41.599998474121</ele>
        <time>2015-05-07T09:47:33Z</time>
      </trkpt>
      <trkpt lat="42.23482" lon="3.2204">
        <ele>42.200000762939</ele>
        <time>2015-05-07T09:47:34Z</time>
      </trkpt>
      <trkpt lat="42.23478" lon="3.22042">
        <ele>43.599998474121</ele>
        <time>2015-05-07T09:47:37Z</time>
      </trkpt>
      <trkpt lat="42.23476" lon="3.22043">
        <ele>43.799999237061</ele>
        <time>2015-05-07T09:47:38Z</time>
      </trkpt>
      <trkpt lat="42.23475" lon="3.22043">
        <ele>44.400001525879</ele>
        <time>2015-05-07T09:47:39Z</time>
      </trkpt>
      <trkpt lat="42.23473" lon="3.22044">
        <ele>44.599998474121</ele>
        <time>2015-05-07T09:47:40Z</time>
      </trkpt>
      <trkpt lat="42.23471" lon="3.22045">
        <ele>45</ele>
        <time>2015-05-07T09:47:41Z</time>
      </trkpt>
      <trkpt lat="42.23468" lon="3.22051">
        <ele>45.599998474121</ele>
        <time>2015-05-07T09:47:44Z</time>
      </trkpt>
      <trkpt lat="42.23467" lon="3.22053">
        <ele>45.799999237061</ele>
        <time>2015-05-07T09:47:45Z</time>
      </trkpt>
      <trkpt lat="42.23462" lon="3.22058">
        <ele>45.400001525879</ele>
        <time>2015-05-07T09:47:50Z</time>
      </trkpt>
      <trkpt lat="42.23452" lon="3.2207">
        <ele>44</ele>
        <time>2015-05-07T09:47:57Z</time>
      </trkpt>
      <trkpt lat="42.2345" lon="3.22072">
        <ele>43.799999237061</ele>
        <time>2015-05-07T09:47:58Z</time>
      </trkpt>
      <trkpt lat="42.23443" lon="3.22074">
        <ele>42.799999237061</ele>
        <time>2015-05-07T09:48:01Z</time>
      </trkpt>
      <trkpt lat="42.23435" lon="3.22075">
        <ele>41.799999237061</ele>
        <time>2015-05-07T09:48:05Z</time>
      </trkpt>
      <trkpt lat="42.23434" lon="3.22075">
        <ele>41.799999237061</ele>
        <time>2015-05-07T09:48:06Z</time>
      </trkpt>
      <trkpt lat="42.23428" lon="3.22068">
        <ele>42.799999237061</ele>
        <time>2015-05-07T09:48:10Z</time>
      </trkpt>
      <trkpt lat="42.23428" lon="3.22065">
        <ele>43.599998474121</ele>
        <time>2015-05-07T09:48:12Z</time>
      </trkpt>
      <trkpt lat="42.23427" lon="3.22064">
        <ele>43.799999237061</ele>
        <time>2015-05-07T09:48:13Z</time>
      </trkpt>
      <trkpt lat="42.23428" lon="3.22062">
        <ele>45</ele>
        <time>2015-05-07T09:48:16Z</time>
      </trkpt>
      <trkpt lat="42.23427" lon="3.22061">
        <ele>45.400001525879</ele>
        <time>2015-05-07T09:48:17Z</time>
      </trkpt>
      <trkpt lat="42.23424" lon="3.22056">
        <ele>45.599998474121</ele>
        <time>2015-05-07T09:48:21Z</time>
      </trkpt>
      <trkpt lat="42.23426" lon="3.22055">
        <ele>45.599998474121</ele>
        <time>2015-05-07T09:48:24Z</time>
      </trkpt>
      <trkpt lat="42.23428" lon="3.22055">
        <ele>45.400001525879</ele>
        <time>2015-05-07T09:48:28Z</time>
      </trkpt>
      <trkpt lat="42.23427" lon="3.22054">
        <ele>45.200000762939</ele>
        <time>2015-05-07T09:48:29Z</time>
      </trkpt>
      <trkpt lat="42.23427" lon="3.22053">
        <ele>45.200000762939</ele>
        <time>2015-05-07T09:48:30Z</time>
      </trkpt>
      <trkpt lat="42.23427" lon="3.22054">
        <ele>45.200000762939</ele>
        <time>2015-05-07T09:48:31Z</time>
      </trkpt>
      <trkpt lat="42.23426" lon="3.22053">
        <ele>45.200000762939</ele>
        <time>2015-05-07T09:48:32Z</time>
      </trkpt>
      <trkpt lat="42.23426" lon="3.22054">
        <ele>45.200000762939</ele>
        <time>2015-05-07T09:48:33Z</time>
      </trkpt>
      <trkpt lat="42.23425" lon="3.22054">
        <ele>45.400001525879</ele>
        <time>2015-05-07T09:48:35Z</time>
      </trkpt>
      <trkpt lat="42.23424" lon="3.22055">
        <ele>45.400001525879</ele>
        <time>2015-05-07T09:48:36Z</time>
      </trkpt>
      <trkpt lat="42.2342" lon="3.22056">
        <ele>45.200000762939</ele>
        <time>2015-05-07T09:48:41Z</time>
      </trkpt>
      <trkpt lat="42.23419" lon="3.22056">
        <ele>45.400001525879</ele>
        <time>2015-05-07T09:48:45Z</time>
      </trkpt>
      <trkpt lat="42.23424" lon="3.22061">
        <ele>45.799999237061</ele>
        <time>2015-05-07T09:48:50Z</time>
      </trkpt>
      <trkpt lat="42.23425" lon="3.22063">
        <ele>45.799999237061</ele>
        <time>2015-05-07T09:48:52Z</time>
      </trkpt>
      <trkpt lat="42.23426" lon="3.22065">
        <ele>45.799999237061</ele>
        <time>2015-05-07T09:48:57Z</time>
      </trkpt>
      <trkpt lat="42.23426" lon="3.22065">
        <ele>46</ele>
        <time>2015-05-07T09:49:03Z</time>
      </trkpt>
      <trkpt lat="42.23426" lon="3.22066">
        <ele>46.799999237061</ele>
        <time>2015-05-07T09:49:06Z</time>
      </trkpt>
      <trkpt lat="42.23425" lon="3.22065">
        <ele>46.799999237061</ele>
        <time>2015-05-07T09:49:18Z</time>
      </trkpt>
      <trkpt lat="42.23425" lon="3.22065">
        <ele>46.799999237061</ele>
        <time>2015-05-07T09:49:22Z</time>
      </trkpt>
      <trkpt lat="42.23425" lon="3.22066">
        <ele>46.799999237061</ele>
        <time>2015-05-07T09:49:28Z</time>
      </trkpt>
      <trkpt lat="42.23425" lon="3.22066">
        <ele>46.799999237061</ele>
        <time>2015-05-07T09:49:33Z</time>
      </trkpt>
      <trkpt lat="42.23425" lon="3.22066">
        <ele>46.799999237061</ele>
        <time>2015-05-07T09:49:37Z</time>
      </trkpt>
      <trkpt lat="42.23425" lon="3.22066">
        <ele>46.799999237061</ele>
        <time>2015-05-07T09:49:41Z</time>
      </trkpt>
      <trkpt lat="42.23426" lon="3.22066">
        <ele>46.799999237061</ele>
        <time>2015-05-07T09:49:52Z</time>
      </trkpt>
      <trkpt lat="42.23424" lon="3.22067">
        <ele>46.200000762939</ele>
        <time>2015-05-07T09:49:58Z</time>
      </trkpt>
      <trkpt lat="42.23423" lon="3.22065">
        <ele>45.799999237061</ele>
        <time>2015-05-07T09:50:01Z</time>
      </trkpt>
      <trkpt lat="42.23423" lon="3.22064">
        <ele>46</ele>
        <time>2015-05-07T09:50:03Z</time>
      </trkpt>
      <trkpt lat="42.23423" lon="3.22062">
        <ele>46.200000762939</ele>
        <time>2015-05-07T09:50:06Z</time>
      </trkpt>
      <trkpt lat="42.23421" lon="3.2206">
        <ele>46.400001525879</ele>
        <time>2015-05-07T09:50:09Z</time>
      </trkpt>
      <trkpt lat="42.23418" lon="3.22054">
        <ele>46.200000762939</ele>
        <time>2015-05-07T09:50:16Z</time>
      </trkpt>
      <trkpt lat="42.23417" lon="3.22052">
        <ele>46.400001525879</ele>
        <time>2015-05-07T09:50:18Z</time>
      </trkpt>
      <trkpt lat="42.23417" lon="3.22051">
        <ele>46.400001525879</ele>
        <time>2015-05-07T09:50:19Z</time>
      </trkpt>
      <trkpt lat="42.23415" lon="3.22041">
        <ele>46.200000762939</ele>
        <time>2015-05-07T09:50:27Z</time>
      </trkpt>
      <trkpt lat="42.23413" lon="3.22028">
        <ele>46</ele>
        <time>2015-05-07T09:50:36Z</time>
      </trkpt>
      <trkpt lat="42.23413" lon="3.22017">
        <ele>46</ele>
        <time>2015-05-07T09:50:44Z</time>
      </trkpt>
      <trkpt lat="42.23414" lon="3.22009">
        <ele>46.200000762939</ele>
        <time>2015-05-07T09:50:50Z</time>
      </trkpt>
      <trkpt lat="42.23414" lon="3.22008">
        <ele>46.200000762939</ele>
        <time>2015-05-07T09:50:51Z</time>
      </trkpt>
      <trkpt lat="42.23414" lon="3.22001">
        <ele>46</ele>
        <time>2015-05-07T09:50:56Z</time>
      </trkpt>
      <trkpt lat="42.23414" lon="3.22">
        <ele>46</ele>
        <time>2015-05-07T09:50:57Z</time>
      </trkpt>
      <trkpt lat="42.23413" lon="3.21992">
        <ele>46.200000762939</ele>
        <time>2015-05-07T09:51:02Z</time>
      </trkpt>
      <trkpt lat="42.23414" lon="3.21989">
        <ele>46.200000762939</ele>
        <time>2015-05-07T09:51:04Z</time>
      </trkpt>
      <trkpt lat="42.23415" lon="3.21987">
        <ele>46</ele>
        <time>2015-05-07T09:51:06Z</time>
      </trkpt>
      <trkpt lat="42.23415" lon="3.21985">
        <ele>45.799999237061</ele>
        <time>2015-05-07T09:51:07Z</time>
      </trkpt>
      <trkpt lat="42.23416" lon="3.21979">
        <ele>45.799999237061</ele>
        <time>2015-05-07T09:51:11Z</time>
      </trkpt>
      <trkpt lat="42.23417" lon="3.21974">
        <ele>45.799999237061</ele>
        <time>2015-05-07T09:51:15Z</time>
      </trkpt>
      <trkpt lat="42.23417" lon="3.2197">
        <ele>46</ele>
        <time>2015-05-07T09:51:18Z</time>
      </trkpt>
      <trkpt lat="42.23417" lon="3.21962">
        <ele>46.200000762939</ele>
        <time>2015-05-07T09:51:23Z</time>
      </trkpt>
      <trkpt lat="42.23417" lon="3.21959">
        <ele>46.200000762939</ele>
        <time>2015-05-07T09:51:24Z</time>
      </trkpt>
      <trkpt lat="42.23417" lon="3.21953">
        <ele>46</ele>
        <time>2015-05-07T09:51:26Z</time>
      </trkpt>
      <trkpt lat="42.23417" lon="3.21939">
        <ele>45.400001525879</ele>
        <time>2015-05-07T09:51:31Z</time>
      </trkpt>
      <trkpt lat="42.23417" lon="3.21936">
        <ele>45.400001525879</ele>
        <time>2015-05-07T09:51:32Z</time>
      </trkpt>
      <trkpt lat="42.23418" lon="3.21928">
        <ele>44.799999237061</ele>
        <time>2015-05-07T09:51:35Z</time>
      </trkpt>
      <trkpt lat="42.23418" lon="3.21922">
        <ele>44.599998474121</ele>
        <time>2015-05-07T09:51:37Z</time>
      </trkpt>
      <trkpt lat="42.23421" lon="3.21908">
        <ele>43.799999237061</ele>
        <time>2015-05-07T09:51:42Z</time>
      </trkpt>
      <trkpt lat="42.23421" lon="3.21905">
        <ele>43.400001525879</ele>
        <time>2015-05-07T09:51:43Z</time>
      </trkpt>
      <trkpt lat="42.23421" lon="3.21896">
        <ele>42.400001525879</ele>
        <time>2015-05-07T09:51:46Z</time>
      </trkpt>
      <trkpt lat="42.23421" lon="3.21891">
        <ele>42</ele>
        <time>2015-05-07T09:51:48Z</time>
      </trkpt>
      <trkpt lat="42.2342" lon="3.21889">
        <ele>41.599998474121</ele>
        <time>2015-05-07T09:51:49Z</time>
      </trkpt>
      <trkpt lat="42.23419" lon="3.21887">
        <ele>41.400001525879</ele>
        <time>2015-05-07T09:51:50Z</time>
      </trkpt>
      <trkpt lat="42.23413" lon="3.21879">
        <ele>40.400001525879</ele>
        <time>2015-05-07T09:51:54Z</time>
      </trkpt>
      <trkpt lat="42.23413" lon="3.21877">
        <ele>40.200000762939</ele>
        <time>2015-05-07T09:51:55Z</time>
      </trkpt>
      <trkpt lat="42.2341" lon="3.21876">
        <ele>39.799999237061</ele>
        <time>2015-05-07T09:51:57Z</time>
      </trkpt>
      <trkpt lat="42.23409" lon="3.21875">
        <ele>39.599998474121</ele>
        <time>2015-05-07T09:51:58Z</time>
      </trkpt>
      <trkpt lat="42.23411" lon="3.21874">
        <ele>39</ele>
        <time>2015-05-07T09:52:01Z</time>
      </trkpt>
      <trkpt lat="42.23412" lon="3.21874">
        <ele>38.799999237061</ele>
        <time>2015-05-07T09:52:02Z</time>
      </trkpt>
      <trkpt lat="42.23414" lon="3.21866">
        <ele>38.400001525879</ele>
        <time>2015-05-07T09:52:05Z</time>
      </trkpt>
      <trkpt lat="42.23414" lon="3.21855">
        <ele>39</ele>
        <time>2015-05-07T09:52:09Z</time>
      </trkpt>
      <trkpt lat="42.23416" lon="3.2185">
        <ele>38.799999237061</ele>
        <time>2015-05-07T09:52:12Z</time>
      </trkpt>
      <trkpt lat="42.23417" lon="3.21848">
        <ele>38.599998474121</ele>
        <time>2015-05-07T09:52:14Z</time>
      </trkpt>
      <trkpt lat="42.23417" lon="3.21848">
        <ele>38.400001525879</ele>
        <time>2015-05-07T09:52:19Z</time>
      </trkpt>
      <trkpt lat="42.23418" lon="3.21849">
        <ele>38.599998474121</ele>
        <time>2015-05-07T09:52:20Z</time>
      </trkpt>
      <trkpt lat="42.23415" lon="3.21846">
        <ele>38.599998474121</ele>
        <time>2015-05-07T09:52:24Z</time>
      </trkpt>
      <trkpt lat="42.23411" lon="3.21844">
        <ele>38.599998474121</ele>
        <time>2015-05-07T09:52:27Z</time>
      </trkpt>
      <trkpt lat="42.2341" lon="3.21844">
        <ele>38.599998474121</ele>
        <time>2015-05-07T09:52:28Z</time>
      </trkpt>
      <trkpt lat="42.23409" lon="3.21845">
        <ele>38.599998474121</ele>
        <time>2015-05-07T09:52:29Z</time>
      </trkpt>
      <trkpt lat="42.23408" lon="3.21846">
        <ele>38.599998474121</ele>
        <time>2015-05-07T09:52:30Z</time>
      </trkpt>
      <trkpt lat="42.23406" lon="3.21846">
        <ele>38.400001525879</ele>
        <time>2015-05-07T09:52:31Z</time>
      </trkpt>
      <trkpt lat="42.23401" lon="3.21846">
        <ele>37.599998474121</ele>
        <time>2015-05-07T09:52:34Z</time>
      </trkpt>
      <trkpt lat="42.23398" lon="3.21847">
        <ele>37</ele>
        <time>2015-05-07T09:52:36Z</time>
      </trkpt>
      <trkpt lat="42.23396" lon="3.21848">
        <ele>36.400001525879</ele>
        <time>2015-05-07T09:52:37Z</time>
      </trkpt>
      <trkpt lat="42.23395" lon="3.21851">
        <ele>36.200000762939</ele>
        <time>2015-05-07T09:52:38Z</time>
      </trkpt>
      <trkpt lat="42.2339" lon="3.21854">
        <ele>35.599998474121</ele>
        <time>2015-05-07T09:52:41Z</time>
      </trkpt>
      <trkpt lat="42.23388" lon="3.21854">
        <ele>35.599998474121</ele>
        <time>2015-05-07T09:52:42Z</time>
      </trkpt>
      <trkpt lat="42.23386" lon="3.21854">
        <ele>35.400001525879</ele>
        <time>2015-05-07T09:52:43Z</time>
      </trkpt>
      <trkpt lat="42.23382" lon="3.21852">
        <ele>35.200000762939</ele>
        <time>2015-05-07T09:52:45Z</time>
      </trkpt>
      <trkpt lat="42.23377" lon="3.21849">
        <ele>34.799999237061</ele>
        <time>2015-05-07T09:52:47Z</time>
      </trkpt>
      <trkpt lat="42.23375" lon="3.21848">
        <ele>34.200000762939</ele>
        <time>2015-05-07T09:52:48Z</time>
      </trkpt>
      <trkpt lat="42.23371" lon="3.21846">
        <ele>33.200000762939</ele>
        <time>2015-05-07T09:52:50Z</time>
      </trkpt>
      <trkpt lat="42.23367" lon="3.21845">
        <ele>32.200000762939</ele>
        <time>2015-05-07T09:52:52Z</time>
      </trkpt>
      <trkpt lat="42.23363" lon="3.21843">
        <ele>31.39999961853</ele>
        <time>2015-05-07T09:52:54Z</time>
      </trkpt>
      <trkpt lat="42.23357" lon="3.21839">
        <ele>31</ele>
        <time>2015-05-07T09:52:57Z</time>
      </trkpt>
      <trkpt lat="42.23349" lon="3.21834">
        <ele>30.799999237061</ele>
        <time>2015-05-07T09:53:01Z</time>
      </trkpt>
      <trkpt lat="42.23345" lon="3.21834">
        <ele>30.799999237061</ele>
        <time>2015-05-07T09:53:03Z</time>
      </trkpt>
      <trkpt lat="42.23338" lon="3.21833">
        <ele>30.799999237061</ele>
        <time>2015-05-07T09:53:06Z</time>
      </trkpt>
      <trkpt lat="42.23328" lon="3.21828">
        <ele>30.60000038147</ele>
        <time>2015-05-07T09:53:11Z</time>
      </trkpt>
      <trkpt lat="42.23324" lon="3.21826">
        <ele>30.799999237061</ele>
        <time>2015-05-07T09:53:13Z</time>
      </trkpt>
      <trkpt lat="42.23322" lon="3.21826">
        <ele>30.799999237061</ele>
        <time>2015-05-07T09:53:14Z</time>
      </trkpt>
      <trkpt lat="42.23318" lon="3.21827">
        <ele>30.799999237061</ele>
        <time>2015-05-07T09:53:16Z</time>
      </trkpt>
      <trkpt lat="42.23317" lon="3.21828">
        <ele>30.799999237061</ele>
        <time>2015-05-07T09:53:17Z</time>
      </trkpt>
      <trkpt lat="42.23309" lon="3.21831">
        <ele>30.200000762939</ele>
        <time>2015-05-07T09:53:21Z</time>
      </trkpt>
      <trkpt lat="42.23307" lon="3.21831">
        <ele>30</ele>
        <time>2015-05-07T09:53:22Z</time>
      </trkpt>
      <trkpt lat="42.23306" lon="3.21833">
        <ele>29.799999237061</ele>
        <time>2015-05-07T09:53:23Z</time>
      </trkpt>
      <trkpt lat="42.233" lon="3.21837">
        <ele>29</ele>
        <time>2015-05-07T09:53:26Z</time>
      </trkpt>
      <trkpt lat="42.23298" lon="3.21839">
        <ele>28.799999237061</ele>
        <time>2015-05-07T09:53:27Z</time>
      </trkpt>
      <trkpt lat="42.23294" lon="3.21838">
        <ele>28.200000762939</ele>
        <time>2015-05-07T09:53:29Z</time>
      </trkpt>
      <trkpt lat="42.2329" lon="3.21836">
        <ele>27.799999237061</ele>
        <time>2015-05-07T09:53:31Z</time>
      </trkpt>
      <trkpt lat="42.23288" lon="3.21835">
        <ele>27.60000038147</ele>
        <time>2015-05-07T09:53:32Z</time>
      </trkpt>
      <trkpt lat="42.23281" lon="3.21833">
        <ele>27</ele>
        <time>2015-05-07T09:53:36Z</time>
      </trkpt>
      <trkpt lat="42.23279" lon="3.21831">
        <ele>26.60000038147</ele>
        <time>2015-05-07T09:53:37Z</time>
      </trkpt>
      <trkpt lat="42.23274" lon="3.21827">
        <ele>25.799999237061</ele>
        <time>2015-05-07T09:53:40Z</time>
      </trkpt>
      <trkpt lat="42.23273" lon="3.21824">
        <ele>25.60000038147</ele>
        <time>2015-05-07T09:53:41Z</time>
      </trkpt>
      <trkpt lat="42.23272" lon="3.21821">
        <ele>25.200000762939</ele>
        <time>2015-05-07T09:53:42Z</time>
      </trkpt>
      <trkpt lat="42.23272" lon="3.21818">
        <ele>24.60000038147</ele>
        <time>2015-05-07T09:53:43Z</time>
      </trkpt>
      <trkpt lat="42.23273" lon="3.21815">
        <ele>24.200000762939</ele>
        <time>2015-05-07T09:53:44Z</time>
      </trkpt>
      <trkpt lat="42.23277" lon="3.21807">
        <ele>23.39999961853</ele>
        <time>2015-05-07T09:53:47Z</time>
      </trkpt>
      <trkpt lat="42.23278" lon="3.21805">
        <ele>23.200000762939</ele>
        <time>2015-05-07T09:53:48Z</time>
      </trkpt>
      <trkpt lat="42.2328" lon="3.21803">
        <ele>22.799999237061</ele>
        <time>2015-05-07T09:53:49Z</time>
      </trkpt>
      <trkpt lat="42.23287" lon="3.21798">
        <ele>22.39999961853</ele>
        <time>2015-05-07T09:53:52Z</time>
      </trkpt>
      <trkpt lat="42.23289" lon="3.21796">
        <ele>22</ele>
        <time>2015-05-07T09:53:53Z</time>
      </trkpt>
      <trkpt lat="42.23301" lon="3.21786">
        <ele>21.200000762939</ele>
        <time>2015-05-07T09:53:59Z</time>
      </trkpt>
      <trkpt lat="42.23314" lon="3.21773">
        <ele>21.200000762939</ele>
        <time>2015-05-07T09:54:06Z</time>
      </trkpt>
      <trkpt lat="42.23316" lon="3.2177">
        <ele>21</ele>
        <time>2015-05-07T09:54:07Z</time>
      </trkpt>
      <trkpt lat="42.23326" lon="3.21765">
        <ele>20.200000762939</ele>
        <time>2015-05-07T09:54:11Z</time>
      </trkpt>
      <trkpt lat="42.23333" lon="3.21764">
        <ele>20</ele>
        <time>2015-05-07T09:54:14Z</time>
      </trkpt>
      <trkpt lat="42.23338" lon="3.21761">
        <ele>19.799999237061</ele>
        <time>2015-05-07T09:54:16Z</time>
      </trkpt>
      <trkpt lat="42.23347" lon="3.2176">
        <ele>18.60000038147</ele>
        <time>2015-05-07T09:54:19Z</time>
      </trkpt>
      <trkpt lat="42.2335" lon="3.2176">
        <ele>18</ele>
        <time>2015-05-07T09:54:20Z</time>
      </trkpt>
      <trkpt lat="42.23353" lon="3.21761">
        <ele>17.60000038147</ele>
        <time>2015-05-07T09:54:21Z</time>
      </trkpt>
      <trkpt lat="42.23355" lon="3.2176">
        <ele>17.39999961853</ele>
        <time>2015-05-07T09:54:22Z</time>
      </trkpt>
      <trkpt lat="42.23368" lon="3.21758">
        <ele>16.799999237061</ele>
        <time>2015-05-07T09:54:27Z</time>
      </trkpt>
      <trkpt lat="42.23373" lon="3.21755">
        <ele>16.39999961853</ele>
        <time>2015-05-07T09:54:29Z</time>
      </trkpt>
      <trkpt lat="42.23375" lon="3.21752">
        <ele>16.39999961853</ele>
        <time>2015-05-07T09:54:30Z</time>
      </trkpt>
      <trkpt lat="42.23376" lon="3.21748">
        <ele>16</ele>
        <time>2015-05-07T09:54:31Z</time>
      </trkpt>
      <trkpt lat="42.23376" lon="3.2174">
        <ele>16</ele>
        <time>2015-05-07T09:54:34Z</time>
      </trkpt>
      <trkpt lat="42.23376" lon="3.21737">
        <ele>16</ele>
        <time>2015-05-07T09:54:35Z</time>
      </trkpt>
      <trkpt lat="42.23379" lon="3.21728">
        <ele>16.39999961853</ele>
        <time>2015-05-07T09:54:38Z</time>
      </trkpt>
      <trkpt lat="42.2338" lon="3.21725">
        <ele>16.60000038147</ele>
        <time>2015-05-07T09:54:39Z</time>
      </trkpt>
      <trkpt lat="42.23381" lon="3.21721">
        <ele>17</ele>
        <time>2015-05-07T09:54:40Z</time>
      </trkpt>
      <trkpt lat="42.23383" lon="3.21715">
        <ele>17.60000038147</ele>
        <time>2015-05-07T09:54:42Z</time>
      </trkpt>
      <trkpt lat="42.23384" lon="3.21704">
        <ele>18.799999237061</ele>
        <time>2015-05-07T09:54:45Z</time>
      </trkpt>
      <trkpt lat="42.23385" lon="3.217">
        <ele>19</ele>
        <time>2015-05-07T09:54:46Z</time>
      </trkpt>
      <trkpt lat="42.23386" lon="3.21696">
        <ele>19.200000762939</ele>
        <time>2015-05-07T09:54:47Z</time>
      </trkpt>
      <trkpt lat="42.23388" lon="3.21693">
        <ele>19.200000762939</ele>
        <time>2015-05-07T09:54:48Z</time>
      </trkpt>
      <trkpt lat="42.23393" lon="3.21684">
        <ele>19.200000762939</ele>
        <time>2015-05-07T09:54:51Z</time>
      </trkpt>
      <trkpt lat="42.23407" lon="3.21672">
        <ele>18.799999237061</ele>
        <time>2015-05-07T09:54:57Z</time>
      </trkpt>
      <trkpt lat="42.2342" lon="3.21671">
        <ele>18.60000038147</ele>
        <time>2015-05-07T09:55:02Z</time>
      </trkpt>
      <trkpt lat="42.23429" lon="3.21667">
        <ele>19.799999237061</ele>
        <time>2015-05-07T09:55:06Z</time>
      </trkpt>
      <trkpt lat="42.2344" lon="3.21662">
        <ele>20.39999961853</ele>
        <time>2015-05-07T09:55:10Z</time>
      </trkpt>
      <trkpt lat="42.23446" lon="3.21662">
        <ele>20.200000762939</ele>
        <time>2015-05-07T09:55:12Z</time>
      </trkpt>
      <trkpt lat="42.23449" lon="3.21661">
        <ele>20</ele>
        <time>2015-05-07T09:55:13Z</time>
      </trkpt>
      <trkpt lat="42.23451" lon="3.21661">
        <ele>19.799999237061</ele>
        <time>2015-05-07T09:55:14Z</time>
      </trkpt>
      <trkpt lat="42.23454" lon="3.21662">
        <ele>19.799999237061</ele>
        <time>2015-05-07T09:55:15Z</time>
      </trkpt>
      <trkpt lat="42.23458" lon="3.21661">
        <ele>19.60000038147</ele>
        <time>2015-05-07T09:55:17Z</time>
      </trkpt>
      <trkpt lat="42.23464" lon="3.2166">
        <ele>19.799999237061</ele>
        <time>2015-05-07T09:55:19Z</time>
      </trkpt>
      <trkpt lat="42.23472" lon="3.21662">
        <ele>20.60000038147</ele>
        <time>2015-05-07T09:55:23Z</time>
      </trkpt>
      <trkpt lat="42.23484" lon="3.21659">
        <ele>19.60000038147</ele>
        <time>2015-05-07T09:55:28Z</time>
      </trkpt>
      <trkpt lat="42.23489" lon="3.21662">
        <ele>18.60000038147</ele>
        <time>2015-05-07T09:55:30Z</time>
      </trkpt>
      <trkpt lat="42.23494" lon="3.21664">
        <ele>18.200000762939</ele>
        <time>2015-05-07T09:55:32Z</time>
      </trkpt>
      <trkpt lat="42.23496" lon="3.21665">
        <ele>18.200000762939</ele>
        <time>2015-05-07T09:55:33Z</time>
      </trkpt>
      <trkpt lat="42.23502" lon="3.21667">
        <ele>18.200000762939</ele>
        <time>2015-05-07T09:55:36Z</time>
      </trkpt>
      <trkpt lat="42.23504" lon="3.21666">
        <ele>18.39999961853</ele>
        <time>2015-05-07T09:55:37Z</time>
      </trkpt>
      <trkpt lat="42.23505" lon="3.21664">
        <ele>18.39999961853</ele>
        <time>2015-05-07T09:55:38Z</time>
      </trkpt>
      <trkpt lat="42.23507" lon="3.21656">
        <ele>18.799999237061</ele>
        <time>2015-05-07T09:55:41Z</time>
      </trkpt>
      <trkpt lat="42.23507" lon="3.21653">
        <ele>19</ele>
        <time>2015-05-07T09:55:42Z</time>
      </trkpt>
      <trkpt lat="42.2351" lon="3.21644">
        <ele>19.200000762939</ele>
        <time>2015-05-07T09:55:45Z</time>
      </trkpt>
      <trkpt lat="42.23512" lon="3.21642">
        <ele>19.200000762939</ele>
        <time>2015-05-07T09:55:46Z</time>
      </trkpt>
      <trkpt lat="42.23514" lon="3.2164">
        <ele>18.799999237061</ele>
        <time>2015-05-07T09:55:47Z</time>
      </trkpt>
      <trkpt lat="42.23519" lon="3.21634">
        <ele>18.39999961853</ele>
        <time>2015-05-07T09:55:50Z</time>
      </trkpt>
      <trkpt lat="42.23522" lon="3.2163">
        <ele>18.60000038147</ele>
        <time>2015-05-07T09:55:52Z</time>
      </trkpt>
      <trkpt lat="42.23519" lon="3.21624">
        <ele>18.60000038147</ele>
        <time>2015-05-07T09:55:55Z</time>
      </trkpt>
      <trkpt lat="42.23516" lon="3.21621">
        <ele>18.60000038147</ele>
        <time>2015-05-07T09:55:57Z</time>
      </trkpt>
      <trkpt lat="42.23509" lon="3.21613">
        <ele>19</ele>
        <time>2015-05-07T09:56:01Z</time>
      </trkpt>
      <trkpt lat="42.23505" lon="3.21603">
        <ele>19.39999961853</ele>
        <time>2015-05-07T09:56:04Z</time>
      </trkpt>
      <trkpt lat="42.23503" lon="3.21601">
        <ele>19.39999961853</ele>
        <time>2015-05-07T09:56:05Z</time>
      </trkpt>
      <trkpt lat="42.23496" lon="3.21593">
        <ele>19.39999961853</ele>
        <time>2015-05-07T09:56:10Z</time>
      </trkpt>
      <trkpt lat="42.23494" lon="3.2159">
        <ele>19.39999961853</ele>
        <time>2015-05-07T09:56:11Z</time>
      </trkpt>
      <trkpt lat="42.23492" lon="3.21588">
        <ele>19.200000762939</ele>
        <time>2015-05-07T09:56:12Z</time>
      </trkpt>
      <trkpt lat="42.23491" lon="3.21582">
        <ele>18.39999961853</ele>
        <time>2015-05-07T09:56:14Z</time>
      </trkpt>
      <trkpt lat="42.23487" lon="3.21574">
        <ele>17.60000038147</ele>
        <time>2015-05-07T09:56:17Z</time>
      </trkpt>
      <trkpt lat="42.23486" lon="3.21571">
        <ele>17.60000038147</ele>
        <time>2015-05-07T09:56:18Z</time>
      </trkpt>
      <trkpt lat="42.23485" lon="3.21564">
        <ele>17.39999961853</ele>
        <time>2015-05-07T09:56:20Z</time>
      </trkpt>
      <trkpt lat="42.23484" lon="3.21549">
        <ele>17.799999237061</ele>
        <time>2015-05-07T09:56:25Z</time>
      </trkpt>
      <trkpt lat="42.23487" lon="3.21533">
        <ele>18.799999237061</ele>
        <time>2015-05-07T09:56:30Z</time>
      </trkpt>
      <trkpt lat="42.23492" lon="3.21513">
        <ele>19.200000762939</ele>
        <time>2015-05-07T09:56:36Z</time>
      </trkpt>
      <trkpt lat="42.23495" lon="3.21496">
        <ele>18.60000038147</ele>
        <time>2015-05-07T09:56:41Z</time>
      </trkpt>
      <trkpt lat="42.23497" lon="3.21491">
        <ele>18.60000038147</ele>
        <time>2015-05-07T09:56:43Z</time>
      </trkpt>
      <trkpt lat="42.235" lon="3.21486">
        <ele>18.200000762939</ele>
        <time>2015-05-07T09:56:45Z</time>
      </trkpt>
      <trkpt lat="42.23507" lon="3.21476">
        <ele>17.799999237061</ele>
        <time>2015-05-07T09:56:49Z</time>
      </trkpt>
      <trkpt lat="42.23509" lon="3.21474">
        <ele>18</ele>
        <time>2015-05-07T09:56:50Z</time>
      </trkpt>
      <trkpt lat="42.23512" lon="3.2147">
        <ele>18</ele>
        <time>2015-05-07T09:56:52Z</time>
      </trkpt>
      <trkpt lat="42.23514" lon="3.21469">
        <ele>17.799999237061</ele>
        <time>2015-05-07T09:56:53Z</time>
      </trkpt>
      <trkpt lat="42.23516" lon="3.21469">
        <ele>17.60000038147</ele>
        <time>2015-05-07T09:56:54Z</time>
      </trkpt>
      <trkpt lat="42.23526" lon="3.21463">
        <ele>17.39999961853</ele>
        <time>2015-05-07T09:56:59Z</time>
      </trkpt>
      <trkpt lat="42.23535" lon="3.21449">
        <ele>18.200000762939</ele>
        <time>2015-05-07T09:57:04Z</time>
      </trkpt>
      <trkpt lat="42.23546" lon="3.21435">
        <ele>18.39999961853</ele>
        <time>2015-05-07T09:57:10Z</time>
      </trkpt>
      <trkpt lat="42.23547" lon="3.21433">
        <ele>18.39999961853</ele>
        <time>2015-05-07T09:57:11Z</time>
      </trkpt>
      <trkpt lat="42.23552" lon="3.21427">
        <ele>18.799999237061</ele>
        <time>2015-05-07T09:57:14Z</time>
      </trkpt>
      <trkpt lat="42.23555" lon="3.21424">
        <ele>19.200000762939</ele>
        <time>2015-05-07T09:57:16Z</time>
      </trkpt>
      <trkpt lat="42.23559" lon="3.21421">
        <ele>20</ele>
        <time>2015-05-07T09:57:18Z</time>
      </trkpt>
      <trkpt lat="42.23563" lon="3.21416">
        <ele>21</ele>
        <time>2015-05-07T09:57:21Z</time>
      </trkpt>
      <trkpt lat="42.23565" lon="3.21413">
        <ele>21.200000762939</ele>
        <time>2015-05-07T09:57:22Z</time>
      </trkpt>
      <trkpt lat="42.23575" lon="3.214">
        <ele>20.60000038147</ele>
        <time>2015-05-07T09:57:28Z</time>
      </trkpt>
      <trkpt lat="42.23579" lon="3.21397">
        <ele>20.200000762939</ele>
        <time>2015-05-07T09:57:30Z</time>
      </trkpt>
      <trkpt lat="42.23584" lon="3.21395">
        <ele>20</ele>
        <time>2015-05-07T09:57:33Z</time>
      </trkpt>
      <trkpt lat="42.23584" lon="3.21394">
        <ele>19.799999237061</ele>
        <time>2015-05-07T09:57:34Z</time>
      </trkpt>
      <trkpt lat="42.23588" lon="3.21388">
        <ele>19</ele>
        <time>2015-05-07T09:57:38Z</time>
      </trkpt>
      <trkpt lat="42.23589" lon="3.21387">
        <ele>18.39999961853</ele>
        <time>2015-05-07T09:57:39Z</time>
      </trkpt>
      <trkpt lat="42.2359" lon="3.21385">
        <ele>18</ele>
        <time>2015-05-07T09:57:40Z</time>
      </trkpt>
      <trkpt lat="42.23592" lon="3.21383">
        <ele>17.60000038147</ele>
        <time>2015-05-07T09:57:41Z</time>
      </trkpt>
      <trkpt lat="42.23595" lon="3.21379">
        <ele>16.799999237061</ele>
        <time>2015-05-07T09:57:43Z</time>
      </trkpt>
      <trkpt lat="42.23596" lon="3.21376">
        <ele>16.60000038147</ele>
        <time>2015-05-07T09:57:44Z</time>
      </trkpt>
      <trkpt lat="42.23597" lon="3.21375">
        <ele>16.39999961853</ele>
        <time>2015-05-07T09:57:45Z</time>
      </trkpt>
      <trkpt lat="42.23602" lon="3.21367">
        <ele>17.200000762939</ele>
        <time>2015-05-07T09:57:49Z</time>
      </trkpt>
      <trkpt lat="42.23606" lon="3.21363">
        <ele>17.799999237061</ele>
        <time>2015-05-07T09:57:51Z</time>
      </trkpt>
      <trkpt lat="42.2361" lon="3.21357">
        <ele>18.60000038147</ele>
        <time>2015-05-07T09:57:54Z</time>
      </trkpt>
      <trkpt lat="42.23611" lon="3.21354">
        <ele>18.799999237061</ele>
        <time>2015-05-07T09:57:55Z</time>
      </trkpt>
      <trkpt lat="42.23616" lon="3.21348">
        <ele>20</ele>
        <time>2015-05-07T09:57:58Z</time>
      </trkpt>
      <trkpt lat="42.23616" lon="3.21346">
        <ele>20.39999961853</ele>
        <time>2015-05-07T09:57:59Z</time>
      </trkpt>
      <trkpt lat="42.23619" lon="3.21342">
        <ele>21.200000762939</ele>
        <time>2015-05-07T09:58:01Z</time>
      </trkpt>
      <trkpt lat="42.23623" lon="3.21336">
        <ele>22.39999961853</ele>
        <time>2015-05-07T09:58:04Z</time>
      </trkpt>
      <trkpt lat="42.23623" lon="3.21334">
        <ele>22.60000038147</ele>
        <time>2015-05-07T09:58:05Z</time>
      </trkpt>
      <trkpt lat="42.23626" lon="3.21324">
        <ele>23</ele>
        <time>2015-05-07T09:58:09Z</time>
      </trkpt>
      <trkpt lat="42.23634" lon="3.21318">
        <ele>22.39999961853</ele>
        <time>2015-05-07T09:58:13Z</time>
      </trkpt>
      <trkpt lat="42.23636" lon="3.21316">
        <ele>22</ele>
        <time>2015-05-07T09:58:14Z</time>
      </trkpt>
      <trkpt lat="42.23643" lon="3.21313">
        <ele>21.60000038147</ele>
        <time>2015-05-07T09:58:18Z</time>
      </trkpt>
      <trkpt lat="42.23645" lon="3.21311">
        <ele>21.799999237061</ele>
        <time>2015-05-07T09:58:19Z</time>
      </trkpt>
      <trkpt lat="42.23651" lon="3.21309">
        <ele>22.60000038147</ele>
        <time>2015-05-07T09:58:22Z</time>
      </trkpt>
      <trkpt lat="42.23654" lon="3.21307">
        <ele>23.39999961853</ele>
        <time>2015-05-07T09:58:24Z</time>
      </trkpt>
      <trkpt lat="42.23656" lon="3.21305">
        <ele>23.60000038147</ele>
        <time>2015-05-07T09:58:25Z</time>
      </trkpt>
      <trkpt lat="42.23661" lon="3.21302">
        <ele>24.799999237061</ele>
        <time>2015-05-07T09:58:28Z</time>
      </trkpt>
      <trkpt lat="42.23666" lon="3.213">
        <ele>25.200000762939</ele>
        <time>2015-05-07T09:58:30Z</time>
      </trkpt>
      <trkpt lat="42.2368" lon="3.2129">
        <ele>26</ele>
        <time>2015-05-07T09:58:37Z</time>
      </trkpt>
      <trkpt lat="42.23693" lon="3.21281">
        <ele>26.200000762939</ele>
        <time>2015-05-07T09:58:43Z</time>
      </trkpt>
      <trkpt lat="42.23708" lon="3.21275">
        <ele>27</ele>
        <time>2015-05-07T09:58:50Z</time>
      </trkpt>
      <trkpt lat="42.23714" lon="3.21273">
        <ele>28</ele>
        <time>2015-05-07T09:58:53Z</time>
      </trkpt>
      <trkpt lat="42.23716" lon="3.21272">
        <ele>28.39999961853</ele>
        <time>2015-05-07T09:58:54Z</time>
      </trkpt>
      <trkpt lat="42.23717" lon="3.21271">
        <ele>28.60000038147</ele>
        <time>2015-05-07T09:58:55Z</time>
      </trkpt>
      <trkpt lat="42.23722" lon="3.2127">
        <ele>29.799999237061</ele>
        <time>2015-05-07T09:58:58Z</time>
      </trkpt>
      <trkpt lat="42.23724" lon="3.21268">
        <ele>30.200000762939</ele>
        <time>2015-05-07T09:58:59Z</time>
      </trkpt>
      <trkpt lat="42.23727" lon="3.21265">
        <ele>31.200000762939</ele>
        <time>2015-05-07T09:59:01Z</time>
      </trkpt>
      <trkpt lat="42.23732" lon="3.21261">
        <ele>32.200000762939</ele>
        <time>2015-05-07T09:59:04Z</time>
      </trkpt>
      <trkpt lat="42.23734" lon="3.21253">
        <ele>32.599998474121</ele>
        <time>2015-05-07T09:59:08Z</time>
      </trkpt>
      <trkpt lat="42.2374" lon="3.21242">
        <ele>31.799999237061</ele>
        <time>2015-05-07T09:59:13Z</time>
      </trkpt>
      <trkpt lat="42.23743" lon="3.21237">
        <ele>31.200000762939</ele>
        <time>2015-05-07T09:59:15Z</time>
      </trkpt>
      <trkpt lat="42.23748" lon="3.21231">
        <ele>30</ele>
        <time>2015-05-07T09:59:18Z</time>
      </trkpt>
      <trkpt lat="42.23754" lon="3.21223">
        <ele>29.799999237061</ele>
        <time>2015-05-07T09:59:23Z</time>
      </trkpt>
      <trkpt lat="42.23754" lon="3.21222">
        <ele>30</ele>
        <time>2015-05-07T09:59:24Z</time>
      </trkpt>
      <trkpt lat="42.23758" lon="3.2122">
        <ele>31.200000762939</ele>
        <time>2015-05-07T09:59:28Z</time>
      </trkpt>
      <trkpt lat="42.23759" lon="3.21218">
        <ele>31.60000038147</ele>
        <time>2015-05-07T09:59:29Z</time>
      </trkpt>
      <trkpt lat="42.23759" lon="3.21217">
        <ele>32.599998474121</ele>
        <time>2015-05-07T09:59:32Z</time>
      </trkpt>
      <trkpt lat="42.23759" lon="3.21216">
        <ele>32.799999237061</ele>
        <time>2015-05-07T09:59:33Z</time>
      </trkpt>
      <trkpt lat="42.23761" lon="3.21208">
        <ele>33.599998474121</ele>
        <time>2015-05-07T09:59:36Z</time>
      </trkpt>
      <trkpt lat="42.23763" lon="3.21207">
        <ele>33.400001525879</ele>
        <time>2015-05-07T09:59:37Z</time>
      </trkpt>
      <trkpt lat="42.23765" lon="3.21201">
        <ele>32.400001525879</ele>
        <time>2015-05-07T09:59:40Z</time>
      </trkpt>
      <trkpt lat="42.23766" lon="3.21197">
        <ele>31.799999237061</ele>
        <time>2015-05-07T09:59:41Z</time>
      </trkpt>
      <trkpt lat="42.23766" lon="3.21194">
        <ele>31.60000038147</ele>
        <time>2015-05-07T09:59:42Z</time>
      </trkpt>
      <trkpt lat="42.23767" lon="3.21191">
        <ele>31.200000762939</ele>
        <time>2015-05-07T09:59:43Z</time>
      </trkpt>
      <trkpt lat="42.23767" lon="3.21187">
        <ele>30.39999961853</ele>
        <time>2015-05-07T09:59:45Z</time>
      </trkpt>
      <trkpt lat="42.23768" lon="3.21183">
        <ele>30</ele>
        <time>2015-05-07T09:59:47Z</time>
      </trkpt>
      <trkpt lat="42.23767" lon="3.2118">
        <ele>30</ele>
        <time>2015-05-07T09:59:48Z</time>
      </trkpt>
      <trkpt lat="42.23767" lon="3.21172">
        <ele>29</ele>
        <time>2015-05-07T09:59:51Z</time>
      </trkpt>
      <trkpt lat="42.23768" lon="3.2117">
        <ele>28.60000038147</ele>
        <time>2015-05-07T09:59:52Z</time>
      </trkpt>
      <trkpt lat="42.23767" lon="3.21165">
        <ele>28</ele>
        <time>2015-05-07T09:59:54Z</time>
      </trkpt>
      <trkpt lat="42.23767" lon="3.21162">
        <ele>28</ele>
        <time>2015-05-07T09:59:55Z</time>
      </trkpt>
      <trkpt lat="42.23766" lon="3.2116">
        <ele>27.799999237061</ele>
        <time>2015-05-07T09:59:56Z</time>
      </trkpt>
      <trkpt lat="42.23765" lon="3.21157">
        <ele>28</ele>
        <time>2015-05-07T09:59:57Z</time>
      </trkpt>
      <trkpt lat="42.23762" lon="3.21149">
        <ele>27.60000038147</ele>
        <time>2015-05-07T10:00:00Z</time>
      </trkpt>
      <trkpt lat="42.23759" lon="3.21141">
        <ele>26.60000038147</ele>
        <time>2015-05-07T10:00:03Z</time>
      </trkpt>
      <trkpt lat="42.23759" lon="3.21137">
        <ele>25.60000038147</ele>
        <time>2015-05-07T10:00:04Z</time>
      </trkpt>
      <trkpt lat="42.23759" lon="3.21135">
        <ele>25.200000762939</ele>
        <time>2015-05-07T10:00:05Z</time>
      </trkpt>
      <trkpt lat="42.23756" lon="3.2113">
        <ele>24.60000038147</ele>
        <time>2015-05-07T10:00:08Z</time>
      </trkpt>
      <trkpt lat="42.23754" lon="3.21125">
        <ele>25</ele>
        <time>2015-05-07T10:00:10Z</time>
      </trkpt>
      <trkpt lat="42.23752" lon="3.21123">
        <ele>25.39999961853</ele>
        <time>2015-05-07T10:00:11Z</time>
      </trkpt>
      <trkpt lat="42.23751" lon="3.21121">
        <ele>25.799999237061</ele>
        <time>2015-05-07T10:00:12Z</time>
      </trkpt>
      <trkpt lat="42.2375" lon="3.21119">
        <ele>26.200000762939</ele>
        <time>2015-05-07T10:00:13Z</time>
      </trkpt>
      <trkpt lat="42.2375" lon="3.21115">
        <ele>26.60000038147</ele>
        <time>2015-05-07T10:00:14Z</time>
      </trkpt>
      <trkpt lat="42.23751" lon="3.21109">
        <ele>27.39999961853</ele>
        <time>2015-05-07T10:00:16Z</time>
      </trkpt>
      <trkpt lat="42.23752" lon="3.21107">
        <ele>27.799999237061</ele>
        <time>2015-05-07T10:00:17Z</time>
      </trkpt>
      <trkpt lat="42.23751" lon="3.21106">
        <ele>28.39999961853</ele>
        <time>2015-05-07T10:00:18Z</time>
      </trkpt>
      <trkpt lat="42.23751" lon="3.21103">
        <ele>28.60000038147</ele>
        <time>2015-05-07T10:00:19Z</time>
      </trkpt>
      <trkpt lat="42.23751" lon="3.21101">
        <ele>29</ele>
        <time>2015-05-07T10:00:20Z</time>
      </trkpt>
      <trkpt lat="42.23752" lon="3.21099">
        <ele>29.39999961853</ele>
        <time>2015-05-07T10:00:21Z</time>
      </trkpt>
      <trkpt lat="42.23755" lon="3.21096">
        <ele>30.200000762939</ele>
        <time>2015-05-07T10:00:23Z</time>
      </trkpt>
      <trkpt lat="42.23756" lon="3.21093">
        <ele>31</ele>
        <time>2015-05-07T10:00:25Z</time>
      </trkpt>
      <trkpt lat="42.23758" lon="3.21091">
        <ele>31.200000762939</ele>
        <time>2015-05-07T10:00:26Z</time>
      </trkpt>
      <trkpt lat="42.23759" lon="3.2109">
        <ele>31.60000038147</ele>
        <time>2015-05-07T10:00:27Z</time>
      </trkpt>
      <trkpt lat="42.2376" lon="3.21088">
        <ele>31.799999237061</ele>
        <time>2015-05-07T10:00:28Z</time>
      </trkpt>
      <trkpt lat="42.23761" lon="3.21087">
        <ele>32.200000762939</ele>
        <time>2015-05-07T10:00:29Z</time>
      </trkpt>
      <trkpt lat="42.23761" lon="3.21085">
        <ele>32.599998474121</ele>
        <time>2015-05-07T10:00:30Z</time>
      </trkpt>
      <trkpt lat="42.23762" lon="3.21083">
        <ele>33.200000762939</ele>
        <time>2015-05-07T10:00:31Z</time>
      </trkpt>
      <trkpt lat="42.23762" lon="3.21079">
        <ele>34</ele>
        <time>2015-05-07T10:00:33Z</time>
      </trkpt>
      <trkpt lat="42.23763" lon="3.21078">
        <ele>34.400001525879</ele>
        <time>2015-05-07T10:00:34Z</time>
      </trkpt>
      <trkpt lat="42.23763" lon="3.21077">
        <ele>34.599998474121</ele>
        <time>2015-05-07T10:00:35Z</time>
      </trkpt>
    </trkseg>
  </trk>
</gpx>